[[{"header":{"parameterUnit":"m.s-1","parameterCategory":1,"la1":30.6,"la2":29.2853,"lo1":-89.7004,"lo2":-87.6739,"dy":0.0162,"dx":0.0183,"nx":112,"ny":82,"refTime":"2023-05-16T12:00:00:Z","depth":0,"parameterNumber":2,"parameterNumberName":"U-component_of_WINDS"},"data":[0.0,0.0,0.0,0.0,0.0,0.0,0.0,0.0,0.0,0.0,0.0,0.0,0.0,0.0,0.0,0.0,0.0,0.0,0.0,0.0,0.0,0.0,0.0,0.0,0.0,0.0,0.0,0.0,0.0,0.0,0.0,0.0,0.0,0.0,0.0,0.0,0.0,0.0,0.0,0.0,0.0,0.0,0.0,0.0,0.0,0.0,0.0,0.0,0.0,0.0,0.0,0.0,0.0,0.0,0.0,0.0,0.0,0.0,0.0,0.0,0.0,0.0,0.0,0.0,0.0,0.0,0.0,0.0,0.0,0.0,0.0,0.0,0.0,0.0,0.0,0.0,0.0,0.0,0.0,0.0,0.0,0.0,0.0,0.0,0.0,0.0,0.0,0.0,0.0,0.0,0.0,-2.2719,-2.4515,-2.5605,-2.5681,-2.4907,-2.4021,-2.3163,0.0,0.0,0.0,0.0,0.0,0.0,0.0,0.0,0.0,0.0,0.0,0.0,0.0,0.0,0.0,0.0,0.0,0.0,0.0,0.0,0.0,0.0,0.0,0.0,0.0,0.0,0.0,0.0,0.0,0.0,0.0,0.0,0.0,0.0,0.0,0.0,0.0,0.0,0.0,0.0,0.0,0.0,0.0,0.0,0.0,0.0,0.0,0.0,0.0,0.0,0.0,0.0,0.0,0.0,0.0,0.0,0.0,0.0,0.0,0.0,0.0,0.0,0.0,0.0,0.0,0.0,0.0,0.0,0.0,0.0,0.0,0.0,0.0,0.0,0.0,0.0,0.0,0.0,0.0,0.0,0.0,0.0,0.0,0.0,0.0,0.0,0.0,0.0,0.0,0.0,0.0,0.0,0.0,0.0,0.0,0.0,0.0,0.0,0.0,0.0,0.0,0.0,0.0,0.0,-2.1609,-2.3678,-2.4856,-2.554,-2.5601,-2.4879,-2.404,-2.3163,0.0,0.0,0.0,0.0,0.0,0.0,0.0,0.0,0.0,0.0,0.0,0.0,0.0,0.0,0.0,0.0,0.0,0.0,0.0,0.0,0.0,0.0,0.0,0.0,0.0,0.0,0.0,0.0,0.0,0.0,0.0,0.0,0.0,0.0,0.0,0.0,0.0,0.0,0.0,0.0,0.0,0.0,0.0,0.0,0.0,0.0,0.0,0.0,0.0,0.0,0.0,0.0,0.0,0.0,0.0,0.0,0.0,0.0,0.0,0.0,0.0,0.0,0.0,0.0,0.0,0.0,0.0,0.0,0.0,0.0,0.0,0.0,0.0,0.0,0.0,0.0,0.0,0.0,0.0,0.0,0.0,0.0,0.0,0.0,0.0,0.0,0.0,0.0,0.0,0.0,0.0,0.0,0.0,0.0,0.0,0.0,0.0,0.0,0.0,0.0,0.0,0.0,0.0,-2.0954,-2.2566,-2.4534,-2.5178,-2.5493,-2.5586,-2.5308,-2.4539,-2.3183,-2.2342,0.0,0.0,0.0,0.0,0.0,0.0,0.0,0.0,0.0,0.0,0.0,0.0,0.0,0.0,0.0,0.0,0.0,0.0,0.0,0.0,0.0,0.0,0.0,0.0,0.0,0.0,0.0,0.0,0.0,0.0,0.0,0.0,0.0,0.0,0.0,0.0,0.0,0.0,0.0,0.0,0.0,0.0,0.0,0.0,0.0,0.0,0.0,0.0,0.0,0.0,0.0,0.0,0.0,0.0,0.0,0.0,0.0,0.0,0.0,0.0,0.0,0.0,0.0,0.0,0.0,0.0,0.0,0.0,0.0,0.0,0.0,0.0,0.0,0.0,0.0,0.0,0.0,0.0,0.0,0.0,0.0,0.0,0.0,0.0,0.0,0.0,0.0,0.0,0.0,0.0,0.0,0.0,0.0,0.0,0.0,0.0,0.0,0.0,0.0,0.0,0.0,0.0,-2.2305,-2.3187,-2.5058,-2.5321,-2.5437,-2.5562,-2.5632,-2.4932,-2.3215,-2.3105,0.0,0.0,0.0,0.0,0.0,0.0,0.0,0.0,0.0,0.0,0.0,0.0,0.0,0.0,0.0,0.0,0.0,0.0,0.0,0.0,0.0,0.0,0.0,0.0,0.0,0.0,0.0,0.0,0.0,0.0,0.0,0.0,0.0,0.0,0.0,0.0,0.0,0.0,0.0,0.0,0.0,0.0,0.0,0.0,0.0,0.0,0.0,0.0,0.0,0.0,0.0,0.0,0.0,0.0,0.0,0.0,0.0,0.0,0.0,0.0,0.0,0.0,0.0,0.0,0.0,0.0,0.0,0.0,0.0,0.0,0.0,0.0,0.0,0.0,0.0,0.0,0.0,0.0,0.0,0.0,0.0,0.0,0.0,0.0,0.0,0.0,0.0,0.0,0.0,0.0,0.0,0.0,0.0,0.0,0.0,0.0,0.0,0.0,0.0,0.0,0.0,0.0,-2.2238,-2.3107,-2.4912,-2.5225,-2.5363,-2.5493,-2.5561,-2.4888,-2.3205,-2.3103,0.0,0.0,0.0,0.0,0.0,0.0,0.0,0.0,0.0,0.0,0.0,0.0,0.0,0.0,0.0,0.0,0.0,0.0,0.0,0.0,0.0,0.0,0.0,0.0,0.0,0.0,0.0,0.0,0.0,0.0,0.0,0.0,0.0,0.0,0.0,0.0,0.0,0.0,0.0,0.0,0.0,0.0,0.0,0.0,0.0,0.0,0.0,0.0,0.0,0.0,0.0,0.0,0.0,0.0,0.0,0.0,0.0,0.0,0.0,0.0,0.0,0.0,0.0,0.0,0.0,0.0,0.0,0.0,0.0,0.0,0.0,0.0,0.0,0.0,0.0,0.0,0.0,0.0,0.0,0.0,0.0,0.0,0.0,0.0,0.0,0.0,0.0,0.0,0.0,0.0,0.0,0.0,0.0,0.0,0.0,0.0,0.0,0.0,0.0,0.0,0.0,0.0,-2.214,-2.3031,0.0,-2.519,-2.5331,-2.5422,-2.5544,-2.489,-2.3218,0.0,0.0,0.0,0.0,0.0,0.0,0.0,0.0,0.0,0.0,0.0,0.0,0.0,0.0,0.0,0.0,0.0,0.0,0.0,0.0,0.0,0.0,0.0,0.0,0.0,0.0,0.0,0.0,0.0,0.0,0.0,0.0,0.0,0.0,0.0,0.0,0.0,0.0,0.0,0.0,0.0,0.0,0.0,0.0,0.0,0.0,0.0,0.0,0.0,0.0,0.0,0.0,0.0,0.0,0.0,0.0,0.0,0.0,0.0,0.0,0.0,0.0,0.0,0.0,0.0,0.0,0.0,0.0,0.0,0.0,0.0,0.0,0.0,0.0,0.0,0.0,0.0,0.0,0.0,0.0,0.0,0.0,0.0,0.0,0.0,0.0,0.0,0.0,0.0,0.0,0.0,0.0,0.0,0.0,0.0,0.0,0.0,0.0,0.0,0.0,0.0,0.0,-2.1377,-2.2036,-2.2905,0.0,-2.5118,-2.5262,-2.5359,-2.5476,-2.4838,-2.3178,0.0,0.0,0.0,0.0,0.0,0.0,0.0,0.0,0.0,0.0,0.0,0.0,0.0,0.0,0.0,0.0,0.0,0.0,0.0,0.0,0.0,0.0,0.0,0.0,0.0,0.0,0.0,0.0,0.0,0.0,0.0,0.0,0.0,0.0,0.0,0.0,0.0,0.0,0.0,0.0,0.0,0.0,0.0,0.0,0.0,0.0,0.0,0.0,0.0,0.0,0.0,0.0,0.0,0.0,0.0,0.0,0.0,0.0,0.0,0.0,0.0,0.0,0.0,0.0,0.0,0.0,0.0,0.0,0.0,0.0,0.0,0.0,0.0,0.0,0.0,0.0,0.0,0.0,0.0,0.0,0.0,0.0,0.0,0.0,0.0,0.0,0.0,0.0,0.0,0.0,0.0,0.0,0.0,0.0,0.0,0.0,0.0,0.0,0.0,0.0,0.0,0.0,-2.1437,-2.193,-2.2761,-2.47,-2.5006,-2.5153,-2.5293,-2.5357,-2.4701,0.0,0.0,0.0,0.0,0.0,0.0,0.0,0.0,0.0,0.0,0.0,0.0,0.0,0.0,0.0,0.0,0.0,0.0,0.0,0.0,0.0,0.0,0.0,0.0,0.0,0.0,0.0,0.0,0.0,0.0,0.0,0.0,0.0,0.0,0.0,0.0,0.0,0.0,0.0,0.0,0.0,0.0,0.0,0.0,0.0,0.0,0.0,0.0,0.0,0.0,0.0,0.0,0.0,0.0,0.0,0.0,0.0,0.0,0.0,0.0,0.0,0.0,0.0,0.0,0.0,0.0,0.0,0.0,0.0,0.0,0.0,0.0,0.0,0.0,0.0,0.0,0.0,0.0,0.0,0.0,0.0,0.0,0.0,0.0,0.0,0.0,0.0,0.0,0.0,0.0,0.0,0.0,0.0,0.0,0.0,0.0,0.0,0.0,0.0,0.0,0.0,0.0,0.0,-2.1316,-2.2313,-2.3321,-2.4557,-2.4847,-2.5006,-2.5149,-2.5254,-2.4634,-2.303,0.0,0.0,0.0,0.0,0.0,0.0,0.0,0.0,0.0,0.0,0.0,0.0,0.0,0.0,0.0,0.0,0.0,0.0,0.0,0.0,0.0,0.0,0.0,0.0,0.0,0.0,0.0,0.0,0.0,0.0,0.0,0.0,0.0,0.0,0.0,0.0,0.0,0.0,0.0,0.0,0.0,0.0,0.0,0.0,0.0,0.0,0.0,0.0,0.0,0.0,0.0,0.0,0.0,0.0,0.0,0.0,0.0,0.0,0.0,0.0,0.0,0.0,0.0,0.0,0.0,0.0,0.0,0.0,0.0,0.0,0.0,0.0,0.0,0.0,0.0,0.0,0.0,0.0,0.0,0.0,0.0,0.0,0.0,0.0,0.0,0.0,0.0,0.0,0.0,0.0,0.0,0.0,0.0,0.0,0.0,0.0,0.0,0.0,0.0,0.0,0.0,0.0,-2.1279,-2.2428,-2.3596,-2.4933,-2.4938,-2.504,-2.5507,-2.534,-2.4553,-2.2948,0.0,0.0,0.0,0.0,0.0,0.0,0.0,0.0,0.0,0.0,0.0,0.0,0.0,0.0,0.0,0.0,0.0,0.0,0.0,0.0,0.0,0.0,0.0,0.0,0.0,0.0,0.0,0.0,0.0,0.0,0.0,0.0,0.0,0.0,0.0,0.0,0.0,0.0,0.0,0.0,0.0,0.0,0.0,0.0,0.0,0.0,0.0,0.0,0.0,0.0,0.0,0.0,0.0,0.0,0.0,0.0,0.0,0.0,0.0,0.0,0.0,0.0,0.0,0.0,0.0,0.0,0.0,0.0,0.0,0.0,0.0,0.0,0.0,0.0,0.0,0.0,0.0,0.0,0.0,0.0,0.0,0.0,0.0,0.0,0.0,0.0,0.0,0.0,0.0,0.0,0.0,0.0,0.0,0.0,0.0,0.0,0.0,0.0,0.0,0.0,0.0,0.0,-2.1422,-2.2483,-2.3805,-2.5574,-2.5298,-2.5307,-2.6115,-2.5571,-2.4506,-2.2872,0.0,0.0,0.0,0.0,0.0,0.0,0.0,0.0,0.0,0.0,0.0,0.0,0.0,0.0,0.0,0.0,0.0,0.0,0.0,0.0,0.0,0.0,0.0,0.0,0.0,0.0,0.0,0.0,0.0,0.0,0.0,0.0,0.0,0.0,0.0,0.0,0.0,0.0,0.0,0.0,0.0,0.0,0.0,0.0,0.0,0.0,0.0,0.0,0.0,0.0,0.0,0.0,0.0,0.0,0.0,0.0,0.0,0.0,0.0,0.0,-2.0233,0.0,0.0,0.0,0.0,0.0,0.0,0.0,0.0,0.0,0.0,0.0,0.0,0.0,0.0,0.0,0.0,0.0,0.0,0.0,0.0,0.0,0.0,0.0,0.0,0.0,0.0,0.0,0.0,0.0,0.0,0.0,0.0,0.0,0.0,0.0,0.0,0.0,0.0,0.0,0.0,0.0,-2.2072,-2.3656,-2.4939,-2.5504,-2.6134,-2.6403,-2.6064,-2.6006,-2.5006,-2.2783,0.0,0.0,0.0,0.0,0.0,0.0,0.0,0.0,0.0,0.0,0.0,0.0,0.0,0.0,0.0,0.0,0.0,0.0,0.0,0.0,0.0,0.0,0.0,0.0,0.0,0.0,0.0,0.0,0.0,0.0,0.0,0.0,0.0,0.0,0.0,0.0,0.0,0.0,0.0,0.0,0.0,0.0,0.0,0.0,0.0,0.0,0.0,0.0,0.0,0.0,0.0,0.0,0.0,0.0,0.0,0.0,0.0,0.0,0.0,0.0,0.0,-2.1271,0.0,0.0,0.0,0.0,0.0,0.0,0.0,0.0,0.0,0.0,0.0,0.0,0.0,0.0,0.0,0.0,0.0,0.0,0.0,0.0,0.0,0.0,0.0,0.0,0.0,0.0,0.0,0.0,0.0,0.0,0.0,0.0,0.0,0.0,0.0,0.0,0.0,0.0,0.0,0.0,-2.2833,-2.4223,-2.5512,-2.653,-2.6802,-2.6804,-2.6551,-2.6268,-2.5253,-2.3244,-2.2859,0.0,0.0,0.0,0.0,0.0,0.0,0.0,0.0,0.0,0.0,0.0,0.0,0.0,0.0,0.0,0.0,0.0,0.0,0.0,0.0,0.0,0.0,0.0,0.0,0.0,0.0,0.0,0.0,0.0,0.0,0.0,0.0,0.0,0.0,0.0,0.0,0.0,0.0,0.0,0.0,0.0,0.0,0.0,0.0,0.0,0.0,0.0,0.0,0.0,0.0,0.0,0.0,0.0,0.0,-2.8664,-2.8434,-2.8417,-2.8293,-2.8034,-2.5777,-2.4363,-2.3546,0.0,0.0,0.0,0.0,0.0,0.0,0.0,0.0,0.0,0.0,0.0,0.0,0.0,0.0,0.0,0.0,0.0,0.0,0.0,0.0,0.0,0.0,0.0,0.0,0.0,-1.5178,-1.5522,0.0,0.0,0.0,0.0,0.0,0.0,0.0,0.0,0.0,0.0,0.0,0.0,-2.3611,-2.4712,-2.6023,-2.7658,-2.7438,-2.7155,-2.7046,-2.6497,-2.5446,-2.3771,-2.2977,-2.1903,0.0,0.0,0.0,0.0,0.0,0.0,0.0,0.0,0.0,0.0,0.0,0.0,0.0,0.0,0.0,0.0,0.0,0.0,0.0,0.0,0.0,0.0,0.0,0.0,0.0,0.0,0.0,0.0,0.0,0.0,0.0,0.0,-1.9052,-1.9469,0.0,0.0,0.0,0.0,0.0,0.0,0.0,0.0,0.0,0.0,0.0,0.0,0.0,0.0,-2.9862,-3.0499,-3.1193,-3.1923,-3.1923,-3.1857,-3.1774,-3.1671,-3.1567,-3.1515,-3.0941,0.0,-2.6034,-2.503,0.0,0.0,0.0,0.0,0.0,0.0,0.0,0.0,0.0,0.0,0.0,0.0,0.0,0.0,0.0,0.0,0.0,0.0,0.0,0.0,0.0,0.0,-1.6923,-1.7043,-1.769,-1.8364,0.0,-1.7357,-1.6195,-1.6809,0.0,0.0,0.0,0.0,0.0,0.0,0.0,0.0,-2.4215,-2.5857,-2.7073,-2.7523,-2.8297,-2.827,-2.695,-2.686,-2.5918,-2.3677,-2.2842,-2.2042,-2.1187,-1.9613,0.0,0.0,0.0,0.0,0.0,0.0,0.0,0.0,0.0,0.0,0.0,0.0,0.0,0.0,0.0,0.0,0.0,0.0,0.0,0.0,0.0,0.0,0.0,0.0,0.0,0.0,0.0,0.0,0.0,-1.9483,-2.0442,-2.1425,-2.201,-2.2704,0.0,0.0,0.0,0.0,0.0,0.0,0.0,0.0,0.0,-3.0346,-3.0715,-3.1344,-3.2254,-3.2606,-3.3316,-3.4481,-3.4481,-3.4657,-3.4969,-3.4914,-3.4631,-3.4154,-3.4042,-3.2772,-3.0666,-2.8665,-2.7197,-2.6148,0.0,0.0,0.0,0.0,0.0,-2.1338,-2.0602,0.0,0.0,0.0,0.0,0.0,0.0,0.0,0.0,0.0,0.0,0.0,0.0,0.0,0.0,-1.8397,-1.8895,-1.9427,-1.9883,-1.939,-1.8896,0.0,-1.9789,-2.0369,-2.0982,0.0,0.0,0.0,0.0,0.0,-2.5606,-2.6516,-2.7338,-2.799,-2.8567,-2.8457,-2.7456,-2.708,-2.6302,-2.4891,-2.3681,-2.2678,-2.1935,-2.0384,-1.9167,0.0,0.0,0.0,0.0,0.0,0.0,0.0,0.0,0.0,0.0,0.0,0.0,0.0,0.0,0.0,0.0,0.0,0.0,0.0,0.0,0.0,0.0,0.0,0.0,0.0,0.0,0.0,0.0,-2.116,-2.2013,-2.3257,-2.3946,-2.4859,0.0,0.0,0.0,0.0,0.0,0.0,-3.0439,-3.0734,-3.1568,-3.3071,-3.3298,-3.3843,-3.4815,-3.4815,-3.5502,-3.6802,-3.6802,-3.7062,-3.7584,-3.7584,-3.7229,-3.6624,-3.6566,-3.5971,-3.4829,-3.1905,-2.9935,-2.8628,-2.7926,-2.7126,-2.6225,-2.5169,-2.4524,-2.406,-2.3214,-2.2581,-2.2146,-2.1757,0.0,-2.0721,-2.047,0.0,0.0,0.0,0.0,-1.9666,-1.9666,0.0,-2.0248,-2.0368,-2.0634,-2.0986,-2.1464,-2.1801,-2.1942,0.0,-2.1816,-2.2375,-2.2992,0.0,0.0,0.0,0.0,-2.5663,-2.6535,-2.6986,-2.7513,-2.8334,-2.8543,-2.8391,-2.7779,-2.7122,-2.6448,-2.5782,-2.4295,-2.3121,-2.2369,-2.1017,-1.983,-1.8882,0.0,0.0,0.0,0.0,0.0,0.0,0.0,0.0,0.0,0.0,0.0,0.0,0.0,0.0,0.0,0.0,0.0,0.0,0.0,0.0,0.0,0.0,0.0,0.0,0.0,0.0,0.0,0.0,0.0,-2.4773,-2.6099,0.0,0.0,0.0,0.0,-3.1121,-3.1376,-3.1849,-3.2679,-3.3575,-3.4471,-3.5305,-3.6018,-3.6765,-3.7572,-3.7589,-3.8056,-3.8926,-3.8926,-3.9045,-3.9199,-3.9199,-3.9182,-3.9087,-3.8986,-3.8447,-3.738,-3.4024,-3.24,-3.1796,-3.0269,-2.9403,-2.8903,-2.8029,-2.7429,-2.7047,-2.6585,-2.6132,-2.5561,-2.4672,-2.3599,-2.2608,-2.2363,-2.2132,0.0,0.0,-2.2111,-2.2553,-2.2517,-2.2995,-2.3525,-2.3626,-2.3878,-2.4177,-2.4597,-2.4982,-2.4552,0.0,-2.2164,-2.2645,-2.3186,0.0,-2.4033,-2.4444,-2.535,-2.6074,-2.6452,-2.7238,-2.7869,-2.8182,-2.838,-2.8236,-2.7562,-2.6944,-2.6305,-2.5576,-2.4131,-2.2977,-2.2239,-2.1456,-2.0327,-1.8831,-1.8716,0.0,0.0,0.0,0.0,0.0,0.0,0.0,0.0,0.0,0.0,0.0,0.0,0.0,0.0,0.0,0.0,0.0,0.0,0.0,0.0,0.0,0.0,0.0,0.0,0.0,0.0,0.0,0.0,-2.7541,-2.8613,0.0,0.0,-3.1604,-3.251,-3.3337,-3.4038,-3.4761,-3.5548,-3.6027,-3.6611,-3.7474,-3.8304,-3.8912,-3.9251,-3.9738,-4.0408,-4.1237,-4.1237,-4.1481,-4.198,-4.198,-4.1457,-4.0515,-4.0471,-3.9712,-3.833,-3.7153,-3.5648,-3.3936,-3.2618,-3.1984,-3.1725,-3.0608,-3.0048,-2.9696,-2.8878,-2.8063,-2.7248,-2.6104,-2.5244,-2.4667,-2.4574,-2.4232,-2.3933,-2.3822,-2.3849,-2.3886,-2.3886,-2.4106,-2.4376,-2.4426,-2.4687,-2.4995,-2.525,-2.5646,-2.5712,-2.4955,-2.5082,-2.5469,-2.5933,-2.6374,-2.6816,-2.7194,-2.7709,-2.7978,-2.7739,-2.8194,-2.837,-2.7975,-2.8164,-2.8246,-2.8088,-2.7053,-2.6337,-2.6148,-2.4745,-2.363,-2.2943,-2.2162,-2.1285,-2.0308,-1.9214,-1.8441,0.0,0.0,0.0,0.0,0.0,0.0,0.0,0.0,0.0,0.0,0.0,0.0,0.0,0.0,0.0,0.0,0.0,0.0,0.0,0.0,0.0,0.0,0.0,0.0,0.0,0.0,-2.9209,-3.0038,-3.0931,-3.1946,-3.3101,-3.3902,-3.4684,-3.5515,-3.6407,-3.7172,-3.7763,-3.843,-3.902,-3.9564,-4.038,-4.0918,-4.1029,-4.1514,-4.2081,-4.2697,-4.2697,-4.3006,-4.3506,-4.3506,-4.2967,-4.1963,-4.1963,-4.1343,-4.0297,-3.9777,-3.8597,-3.6878,-3.5318,-3.4457,-3.3997,-3.2921,-3.2243,-3.1637,-3.0762,-2.9961,-2.921,-2.8309,-2.7751,-2.7403,-2.7306,-2.695,-2.6589,-2.6589,-2.6388,-2.6199,-2.6199,-2.6316,-2.6367,-2.6367,-2.6583,-2.6847,-2.701,-2.7321,-2.7688,-2.7922,-2.7462,-2.7137,-2.7442,-2.7907,-2.8318,-2.8682,-2.8924,-2.9005,-2.88,-2.8962,-2.8858,-2.8252,-2.8357,-2.8439,-2.8336,-2.7277,-2.6535,-2.6417,-2.5269,-2.4174,-2.3243,-2.2699,-2.1992,-2.1041,-1.9428,-1.8644,-1.8725,0.0,0.0,0.0,0.0,0.0,0.0,0.0,0.0,0.0,0.0,0.0,0.0,0.0,0.0,0.0,0.0,0.0,0.0,0.0,0.0,0.0,0.0,0.0,-2.867,-3.0,-3.1345,-3.2215,-3.301,-3.42,-3.5877,-3.6223,-3.6734,-3.7698,-3.8535,-3.9105,-3.9253,-4.0762,-4.1596,-4.1647,-4.2364,-4.2792,-4.2945,-4.2962,-4.3081,-4.3348,-4.3348,-4.3447,-4.3545,-4.3545,-4.3527,-4.3492,-4.3492,-4.3444,-4.3175,-4.1769,-4.1116,-4.0716,-3.8315,-3.6693,-3.5684,-3.4972,-3.3994,-3.2929,-3.2446,-3.1996,-3.1614,-3.134,-3.1029,-3.0795,-3.049,-3.0247,-3.0,-2.9879,-2.9735,-2.9642,-2.9642,-2.9642,-2.9642,-2.9642,-2.975,-2.9872,-3.0015,-3.021,-3.0485,-3.074,-2.8919,-2.7402,-2.757,-2.7964,-2.8345,-2.8603,-2.8844,0.0,-2.9472,-2.9541,-2.9382,-2.8956,-2.8974,-2.8776,-2.8261,-2.7601,-2.6921,-2.6271,-2.5568,-2.4547,-2.3125,-2.3068,-2.2414,-2.0951,-1.9476,-1.8693,-1.8669,0.0,0.0,0.0,0.0,0.0,0.0,0.0,0.0,0.0,0.0,0.0,0.0,0.0,0.0,0.0,0.0,0.0,0.0,0.0,0.0,0.0,0.0,-3.1978,-3.0894,-3.2096,-3.3452,-3.443,-3.5773,-3.6845,-3.7395,-3.8612,-3.9484,-3.979,-4.0565,-4.1144,-4.1302,-4.1796,-4.2121,-4.2278,-4.3115,-4.3613,-4.3613,-4.4143,-4.4506,-4.4664,-4.4664,-4.4733,-4.4889,-4.4889,-4.4595,-4.4059,-4.4059,-4.3765,-4.318,-4.2765,-4.2593,-4.225,-3.9279,-3.786,-3.749,-3.7119,-3.6189,-3.503,-3.4405,-3.3594,-3.2739,-3.2014,-3.1598,-3.134,-3.1061,-3.0795,-3.0556,-3.0402,-3.0262,-3.0158,-3.0158,-3.0158,-3.0158,-3.0158,-3.0262,-3.0366,-3.0418,-3.0623,-3.0876,-3.0927,-3.0575,-3.0177,-2.9878,-2.9729,-2.9724,-2.9954,0.0,0.0,-2.9915,-3.0139,-3.0058,-2.9399,-2.9103,-2.8886,-2.8717,-2.769,-2.7002,0.0,-2.5737,-2.4932,-2.4602,-2.3547,-2.2534,-2.1631,-2.1301,-2.0848,0.0,0.0,0.0,0.0,0.0,0.0,0.0,0.0,0.0,0.0,0.0,0.0,0.0,0.0,0.0,0.0,0.0,0.0,0.0,0.0,0.0,0.0,-3.3488,-3.4298,-3.4254,-3.4792,-3.5727,-3.6961,-3.8003,-3.875,-3.921,-4.0222,-4.1017,-4.1466,-4.2239,-4.2919,-4.3373,-4.3788,-4.4125,-4.4164,-4.4788,-4.512,-4.5175,-4.5601,-4.5917,-4.6028,-4.6028,-4.6138,-4.6281,-4.6281,-4.6094,0.0,-4.5717,-4.5303,-4.4578,-4.4251,-4.3923,0.0,0.0,0.0,0.0,0.0,-3.741,-3.6619,-3.6185,-3.5512,-3.4808,-3.4252,-3.3843,-3.3544,-3.3393,-3.2879,-3.2384,-3.2243,-3.1883,-3.1508,-3.1455,-3.1471,-3.1471,-3.1471,-3.1508,-3.156,-3.156,-3.1717,-3.1872,-3.1872,0.0,0.0,-3.1518,-3.1202,-3.1062,-3.1292,-3.1299,-3.1156,0.0,-3.0908,-3.0636,-3.0006,-2.9745,-2.942,-2.8947,-2.8217,0.0,0.0,0.0,-2.5618,-2.5129,-2.3689,0.0,0.0,0.0,-2.1767,0.0,0.0,0.0,0.0,-1.9278,-1.9172,0.0,0.0,0.0,0.0,0.0,0.0,0.0,0.0,0.0,0.0,0.0,0.0,0.0,0.0,0.0,0.0,-3.5268,-3.6362,-3.8099,-3.7969,-3.8205,-3.9573,-3.9901,-4.0401,-4.1236,-4.1543,-4.2072,-4.2916,-4.3689,-4.4473,-4.5243,0.0,0.0,0.0,0.0,-4.6844,-4.6944,-4.6944,-4.706,-4.7158,-4.7158,-4.729,-4.7437,-4.7437,-4.755,-4.7644,-4.7644,-4.7283,-4.6611,-4.5922,-4.5024,-4.4061,-4.2616,-4.1452,-4.0402,-3.8848,-3.8063,0.0,0.0,0.0,0.0,-3.6933,-3.664,-3.6307,-3.6324,-3.5605,-3.4733,-3.4625,-3.3966,-3.3332,-3.3239,-3.3185,-3.3185,-3.3185,-3.3185,-3.317,-3.3076,-3.3168,-3.319,-3.3112,-3.2803,-3.2565,-3.27,-3.2321,-3.2089,-3.2426,-3.2062,0.0,-3.216,-3.1692,-3.1176,-3.0726,0.0,0.0,-2.9169,-2.8969,-2.8435,-2.7308,-2.7068,-2.643,-2.5181,-2.3826,-2.3142,-2.3143,-2.2444,-2.2087,-2.2094,-2.2188,-2.2193,-2.2177,-2.1644,-2.1407,0.0,0.0,0.0,0.0,0.0,0.0,0.0,0.0,0.0,0.0,0.0,0.0,0.0,0.0,0.0,-3.6611,-3.7449,-3.8663,-4.0801,-4.1166,-4.1225,-4.1209,-4.1878,-4.2574,-4.3353,-4.4174,-4.4739,-4.4933,-4.5284,-4.5557,-4.5796,-4.5991,0.0,-4.6498,-4.6514,-4.665,-4.6844,-4.6844,-4.6903,-4.706,0.0,0.0,-4.729,-4.729,-4.7273,-4.729,-4.729,-4.7204,-4.705,-4.6914,-4.6058,-4.4653,-4.3064,-4.1938,-4.1188,-4.0731,-3.9665,-3.8439,-3.8388,-3.7803,-3.7102,-3.6949,-3.6795,-3.6571,-3.6377,-3.6034,0.0,-3.5582,-3.5338,-3.5094,-3.5094,-3.4984,-3.4944,-3.4944,-3.4944,-3.477,-3.4171,-3.4045,-3.3887,-3.335,-3.3198,-3.3192,-3.3451,-3.2659,-3.2059,-3.2229,-3.2389,-3.2299,-3.1788,-3.1942,-3.1816,-3.1172,-3.0771,-3.0489,-3.0283,-2.9438,-2.8802,-2.8564,-2.7564,-2.668,-2.5924,-2.5059,-2.4617,-2.4684,-2.4058,-2.3401,-2.2739,-2.2842,-2.2609,-2.2043,-2.2093,-2.2111,0.0,0.0,0.0,0.0,0.0,0.0,0.0,0.0,0.0,0.0,0.0,-3.338,0.0,0.0,-3.7417,-3.8807,-3.9613,-4.061,-4.22,-4.2842,-4.3185,-4.3089,-4.3492,-4.4057,-4.4463,-4.4934,-4.547,-4.6024,-4.6137,-4.643,-4.6985,-4.7048,-4.7191,-4.7378,-4.7581,-4.772,-4.7781,-4.7841,-4.7945,-4.8005,-4.8005,-4.8065,-4.8226,-4.8226,-4.8226,-4.8343,-4.8343,-4.8138,-4.7779,-4.7271,-4.6453,-4.5341,-4.4466,-4.3189,-4.1954,-4.1798,-4.1184,-4.0301,-3.9828,-3.9304,-3.8797,-3.8259,-3.7916,-3.774,-3.7579,-3.7102,-3.6648,-3.6483,-3.6117,-3.579,-3.5657,-3.5546,-3.549,-3.5394,-3.5394,-3.53,-3.492,-3.4841,-3.4636,-3.3941,-3.3799,-3.3741,-3.3603,-3.3168,-3.2951,-3.3193,-3.3121,-3.2945,-3.2734,-3.23,-3.1967,-3.1759,-3.1227,-3.0822,-3.0609,-2.9547,-2.8895,-2.8895,-2.7695,-2.6879,-2.6545,-2.5853,-2.5556,-2.5651,-2.5357,-2.4837,-2.4095,-2.4191,-2.3842,-2.3101,-2.3287,-2.3172,0.0,0.0,0.0,0.0,0.0,0.0,0.0,0.0,-3.2536,-3.3752,-3.4787,-3.5817,-3.7124,-3.8293,-3.9408,-4.0609,-4.1478,-4.2319,-4.3135,-4.3858,-4.4477,-4.4825,-4.493,-4.5096,-4.5342,-4.5424,-4.5865,-4.6898,-4.7029,-4.7424,-4.8398,-4.8546,-4.8595,-4.8644,-4.8935,-4.9144,-4.9207,-4.9316,-4.9379,-4.9441,-4.9289,-4.9266,-4.9372,-4.9236,-4.9229,-4.9428,-4.9428,-4.9086,-4.843,-4.7546,-4.6826,-4.6282,-4.6031,-4.4761,-4.3037,-4.2625,-4.2331,-4.1967,-4.1218,-4.0855,-4.0629,-3.9773,-3.9308,-3.8985,-3.8838,-3.8193,-3.7478,-3.7367,-3.6932,-3.6355,-3.6166,-3.6071,-3.5959,-3.5846,-3.5846,-3.5758,-3.5631,-3.5584,-3.5379,-3.4636,-3.4383,-3.4169,-3.3736,-3.3686,-3.3797,-3.4151,-3.3844,-3.3627,-3.37,-3.284,-3.2209,-3.2235,-3.1725,-3.1193,-3.066,-2.9793,-2.9166,-2.893,-2.794,-2.7326,-2.721,-2.6573,-2.6249,-2.6369,-2.6253,-2.5964,-2.5476,-2.5557,-2.5179,-2.4449,-2.4543,-2.4242,-2.7948,-2.9535,-3.0951,-3.1043,-3.2013,-3.2982,0.0,0.0,-3.523,-3.5999,-3.6801,-3.7685,-3.8573,-3.9969,-4.1091,-4.1446,-4.2616,-4.3722,-4.4385,-4.477,-4.518,-4.6029,-4.5878,-4.5937,-4.6653,-4.6854,-4.7283,-4.8207,-4.8477,-4.8958,-4.9922,-4.9955,-5.0007,-5.0159,-5.0176,-5.0376,-5.0738,-5.0803,-5.0851,-5.0963,-5.0287,-4.9965,-5.0011,-4.9289,-4.9063,-4.9063,-4.9063,-4.9012,-4.8877,-4.8088,-4.775,-4.7597,-4.6938,-4.6034,-4.4899,-4.3586,-4.2623,-4.1904,-4.1672,-4.1455,-4.1177,-4.0481,-4.0067,-3.964,-3.9001,-3.8551,-3.8278,-3.8278,-3.8101,-3.7923,-3.7939,-3.771,-3.7462,-3.7478,-3.7361,-3.7069,-3.6437,-3.6311,-3.6105,-3.5394,-3.4747,-3.4327,-3.4387,-3.4021,-3.3761,-3.3899,-3.4086,-3.3991,-3.3498,-3.3535,-3.3184,-3.2127,-3.2117,-3.1754,-3.0695,-3.0595,-3.0106,-2.8952,-2.8767,-2.8482,-2.7992,-2.729,-2.6915,-2.7,-2.6471,-2.6168,-2.61,-2.6231,-2.5935,-2.5273,-2.5273,-2.4967,-3.0391,-3.1628,0.0,0.0,-3.4198,-3.4814,-3.5614,-3.6245,-3.6846,-3.7523,-3.833,-3.9125,-3.9889,-4.1075,-4.2202,0.0,-4.3841,-4.4543,-4.5254,-4.5492,-4.5961,-4.6805,-4.6914,-4.7061,-4.7508,-4.761,-4.8042,-4.8882,-4.9141,-4.9497,-4.9981,-5.0135,-5.0204,-5.0255,-5.0358,-5.0476,-5.0627,-5.0776,-5.0908,-5.1105,-5.0784,-5.068,-5.0727,-5.0422,-5.005,-4.961,-4.9187,-4.9001,-4.8984,-4.868,-4.8308,-4.7885,-4.7426,-4.6776,-4.5925,-4.4899,-4.387,-4.2972,-4.2499,-4.2202,-4.1939,-4.121,-4.0753,-4.0476,-4.0164,-3.9561,-3.9023,-3.9023,-3.8674,-3.8294,-3.8237,-3.7992,-3.7817,-3.77,-3.7599,-3.7401,-3.7101,-3.7038,-3.6832,-3.6121,-3.5742,-3.5268,-3.4501,-3.4335,-3.4174,-3.3809,-3.4101,-3.4235,-3.4071,-3.382,-3.3243,-3.2101,-3.2242,-3.206,-3.1182,-3.0867,-3.0508,-3.0086,-2.9744,-2.9273,-2.8665,-2.8379,-2.8119,-2.7736,-2.7528,-2.7216,-2.6844,-2.6934,-2.6627,-2.591,-2.5479,-2.5197,-3.2773,0.0,0.0,-3.5737,-3.6184,-3.6569,-3.7554,-3.7923,-3.82,-3.8692,-3.9457,-4.0204,-4.0954,-4.1875,-4.2942,-4.4228,-4.4661,-4.5135,-4.5744,-4.6111,-4.6557,-4.7269,-4.7654,-4.8079,-4.8489,-4.8327,-4.8648,-4.9561,-4.9752,-4.9993,-5.0505,-5.0661,-5.0747,-5.0817,-5.0905,-5.0957,-5.1025,-5.1178,-5.1329,-5.1513,-5.1378,-5.1343,-5.1457,-5.1254,-5.0811,-5.005,-4.9543,-4.9187,-4.9001,-4.9001,-4.8635,-4.8101,-4.8023,-4.7429,-4.6646,-4.6066,-4.5159,-4.4081,-4.329,-4.2966,-4.27,-4.1955,-4.1494,-4.1262,-4.1049,-4.0449,-3.9768,-3.9768,-3.925,-3.8699,-3.8585,-3.8251,-3.7876,-3.7759,-3.7642,-3.748,-3.748,-3.748,-3.7322,-3.6817,-3.6564,-3.609,-3.5063,-3.4791,-3.4521,-3.4062,-3.4129,-3.43,-3.4497,-3.4065,-3.3454,-3.267,-3.2664,-3.2485,-3.1854,-3.1445,-3.1129,-3.089,-3.0469,-2.9954,-2.9308,-2.9183,-2.8912,-2.8475,-2.8344,-2.804,-2.7594,-2.7669,-2.7327,-2.6576,-2.6063,-2.5658,-3.4829,0.0,-3.6569,-3.7261,-3.7938,-3.8431,-3.8477,-3.8985,-3.9462,-3.9493,-4.0031,-4.0778,-4.1581,-4.2364,-4.322,-4.4235,-4.5028,-4.5557,-4.5807,-4.636,-4.6845,-4.7098,-4.794,-4.8775,0.0,-4.924,-4.9361,-5.0294,-5.0342,-5.0887,-5.1987,-5.2036,-5.2109,-5.2324,-5.2307,-5.2378,-5.2557,-5.2557,-5.2627,-5.2836,-5.2337,-5.2068,-5.2034,-5.149,-5.0811,-5.0084,-5.0067,-4.9661,-4.9001,-4.9001,-4.894,-4.8753,-4.8753,-4.8111,-4.7145,-4.7128,-4.6179,-4.4753,-4.3903,-4.3595,-4.3479,-4.2734,-4.2268,-4.1917,-4.1213,-4.0733,-4.0464,-4.0464,-3.9978,-3.9444,-3.9444,-3.8679,-3.7876,-3.7876,-3.77,-3.748,-3.748,-3.748,-3.7464,-3.7449,-3.6896,-3.6421,-3.6374,-3.5443,-3.4681,-3.4665,-3.4349,-3.4201,-3.4448,-3.4176,-3.4022,-3.4108,-3.3657,-3.3151,-3.2605,-3.2655,-3.2173,-3.0872,-3.0855,-3.0609,-2.9986,-2.9361,-2.9059,-2.9171,-2.8528,-2.8219,-2.8264,-2.8404,-2.8084,-2.7381,-2.7411,-2.6627,-3.5753,0.0,-3.7839,-3.8596,-3.9016,-3.9293,-3.9754,-4.0016,-4.0185,-4.0185,-4.037,-4.0739,-4.1518,-4.2355,-4.318,-4.392,-4.4898,-4.5515,-4.5589,-4.6303,-4.7051,-4.775,-4.8509,0.0,0.0,0.0,0.0,-5.0911,-5.1034,-5.1312,-5.1721,-5.1957,-5.2102,-5.2175,-5.2318,-5.2445,-5.2445,-5.2445,-5.257,-5.2694,-5.2652,-5.2689,-5.2791,-5.2118,-5.1695,-5.1505,-5.0507,-4.9902,-4.954,-4.9034,-4.8753,-4.8564,-4.8436,-4.8158,-4.7811,-4.7201,-4.6656,-4.6043,-4.4754,-4.4324,-4.4208,-4.3479,-4.301,-4.272,-4.2474,-4.1824,-4.1209,-4.1209,-4.0691,-4.014,-4.014,-3.9489,-3.8723,-3.8638,-3.8109,-3.7599,-3.7539,-3.748,-3.748,-3.748,-3.7291,-3.7017,-3.6584,-3.635,-3.5892,-3.5158,-3.4655,-3.4399,-3.4497,-3.4636,-3.4601,-3.4225,-3.4085,-3.3786,-3.3325,-3.2918,-3.2522,-3.2216,-3.1808,-3.1289,-3.0762,-3.0547,-3.0011,-2.9094,-2.8929,-2.8671,-2.8237,-2.8327,-2.8288,-2.8121,-2.7603,-2.6861,-3.6679,-3.7623,-3.8696,-3.952,-3.9688,-3.9795,-4.0293,-4.0401,-4.047,-4.0455,-4.0524,-4.0755,-4.1463,-4.2027,-4.2757,-4.3758,-4.4564,-4.5159,-4.5484,-4.6465,-4.7431,-4.804,-4.9006,0.0,0.0,0.0,0.0,-5.1151,-5.135,-5.1424,-5.1515,-5.1737,-5.1957,-5.2102,-5.2247,-5.2318,-5.2373,-5.2373,-5.2445,-5.2624,-5.2694,-5.2903,-5.3093,-5.2639,-5.2253,-5.2034,-5.0837,-5.0116,-4.9765,-4.9009,-4.8564,-4.8356,-4.8227,-4.8163,-4.8048,-4.7535,-4.7289,-4.7073,-4.5599,-4.4903,-4.4605,-4.4158,-4.357,-4.3113,-4.3113,-4.2541,-4.1954,-4.1954,-4.1436,-4.0869,-4.0869,-4.0232,-3.9457,-3.9113,-3.8535,-3.7959,-3.7587,-3.748,-3.748,-3.748,-3.748,-3.7381,-3.708,-3.6981,-3.6564,-3.5396,-3.5034,-3.4792,-3.453,-3.4804,-3.4922,-3.4609,-3.4616,-3.4476,-3.4024,-3.3622,-3.3271,-3.2878,-3.253,-3.2071,-3.1498,-3.1269,-3.0756,-2.9832,-2.9359,-2.8947,-2.8564,-2.8362,-2.8327,-2.8414,-2.7918,-2.7181,-3.7637,-3.8554,-3.9206,-3.9844,-4.0011,-4.0066,-4.0277,-4.0277,-4.0331,-4.047,-4.0455,-4.0739,0.0,0.0,-4.2104,-4.3561,-4.4029,-4.4513,-4.5348,-4.6874,-4.7909,0.0,0.0,0.0,0.0,0.0,0.0,-5.1183,0.0,-5.1258,-5.1499,-5.1499,-5.1647,-5.203,-5.2102,-5.2175,-5.2373,-5.2373,-5.2445,-5.2553,-5.2553,-5.2694,-5.2903,-5.2903,-5.2518,-5.1798,-5.1045,-5.0308,-4.9588,-4.8802,-4.8356,-4.8163,-4.8163,-4.8115,-4.8001,-4.8001,-4.8001,-4.7802,-4.6394,-4.54,-4.4738,-4.4705,-4.3948,-4.3113,-4.3113,-4.2867,-4.2634,-4.2634,-4.2148,-4.163,-4.163,-4.099,-4.0116,-3.9321,-3.8934,-3.8575,-3.7729,-3.7496,-3.748,-3.748,-3.7539,-3.7583,-3.77,-3.7399,-3.669,-3.5493,-3.5475,-3.5316,-3.4595,-3.4739,-3.4994,-3.5291,-3.5291,-3.5143,-3.4762,-3.4815,-3.4292,-3.2938,-3.2993,-3.278,-3.2107,-3.1498,-3.1198,-3.1293,-2.9814,-2.9112,-2.9178,-2.8528,-2.8237,-2.83,-2.8353,-2.7587,-3.8219,-3.9013,-3.9627,-3.9879,-4.0011,-3.9996,-4.0066,-4.0081,-4.0137,-4.0331,-4.0331,-4.0462,0.0,0.0,0.0,-4.2798,-4.3499,0.0,-4.5126,-4.6633,0.0,-4.7893,0.0,-5.0089,-5.0262,-5.0418,0.0,0.0,-5.1124,-5.1183,-5.1258,-5.1424,-5.1589,-5.1663,-5.1957,-5.2102,-5.2175,-5.2318,-5.2445,-5.2445,-5.2445,-5.2499,-5.2694,-5.2694,-5.2664,-5.2552,-5.1279,-5.0526,-5.0109,-4.8825,-4.8179,-4.8066,-4.8066,-4.8001,-4.8001,-4.8001,-4.8001,-4.7951,-4.757,-4.6593,-4.5417,-4.487,-4.3948,-4.3113,-4.3113,-4.2867,-4.2634,-4.2634,-4.2504,-4.2359,-4.2359,-4.184,-4.1136,-4.0713,-3.9758,-3.8822,-3.8347,-3.7844,-3.748,-3.748,-3.7642,-3.7876,-3.8049,-3.7625,-3.7138,-3.6821,-3.6075,-3.5316,-3.4595,-3.4739,-3.4994,-3.5291,-3.5291,-3.5299,-3.5368,-3.5061,-3.4514,-3.3539,-3.3137,-3.2634,-3.1982,-3.1881,-3.1638,-3.1163,-3.0328,-2.9616,-2.9047,-2.8415,-2.8154,-2.8237,-2.83,-2.7815,-3.8367,-3.9043,-3.9625,-3.9711,-3.9711,-3.9783,-3.9854,-3.9627,-3.9485,-3.968,-3.952,0.0,-3.9511,0.0,0.0,0.0,0.0,0.0,-4.4526,-4.6369,-4.7664,0.0,-4.9016,0.0,-5.0089,-5.0262,-5.0418,0.0,-5.0896,-5.1124,-5.1183,-5.135,-5.1424,-5.1499,-5.1737,-5.1957,-5.2102,-5.2318,-5.2373,-5.2373,-5.2373,-5.2445,-5.2499,-5.2499,-5.257,-5.2627,0.0,-5.0391,-5.0191,-4.8712,-4.8049,-4.8001,-4.8001,-4.8001,-4.8001,-4.8001,-4.8001,-4.8001,-4.8001,-4.7255,-4.6146,-4.5417,-4.4488,-4.3522,-4.3195,-4.2867,-4.2634,-4.2634,-4.2634,-4.2634,-4.2634,-4.2342,-4.1892,-4.1259,-4.0238,-3.9313,-3.8631,-3.797,-3.7539,-3.7599,-3.7759,-3.7992,-3.818,-3.7955,-3.7679,-3.7371,-3.6841,-3.6151,-3.5119,-3.4954,-3.4994,-3.5291,-3.5291,-3.5383,-3.5577,-3.5426,-3.4994,-3.4267,-3.3676,-3.3059,-3.2449,-3.2211,-3.1952,-3.1602,-3.0966,-3.0272,-2.9545,-2.8812,-2.8379,-2.8154,-2.8191,-2.7817,-3.8247,-3.8889,-3.9337,-3.9424,-3.9424,-3.9394,-3.9505,-3.9109,-3.8672,-3.8773,0.0,-3.8044,-3.8193,-3.8748,-3.9443,-4.0332,0.0,-4.2922,-4.3789,-4.5812,-4.7307,-4.7572,-4.8859,-4.9742,-4.9916,-5.0089,-5.0262,-5.0262,-5.0589,-5.0896,-5.1108,-5.1183,-5.1258,-5.1499,-5.1499,-5.1647,-5.2102,-5.223,-5.2373,-5.2373,-5.2373,-5.2373,-5.2373,-5.2373,-5.2373,-5.2307,0.0,0.0,-5.0104,-4.8614,-4.8001,-4.8001,-4.8001,-4.8001,-4.8001,-4.8001,-4.8001,-4.8001,-4.8001,-4.7587,-4.6843,-4.6179,-4.5118,-4.4079,-4.344,-4.2948,-4.2634,-4.2634,-4.2634,-4.2634,-4.2634,-4.2634,-4.2346,-4.1483,-4.0748,-3.9936,-3.8853,-3.8033,-3.7524,-3.77,-3.7817,-3.7992,-3.818,-3.8351,-3.8181,-3.7549,-3.7574,-3.7265,-3.6037,-3.5399,-3.511,-3.5308,-3.5291,-3.5383,-3.5577,-3.5728,-3.5538,-3.4933,-3.4288,-3.3635,-3.3124,-3.2418,-3.2108,-3.2179,-3.1531,-3.0858,-3.0166,-2.9391,-2.8688,-2.8071,-2.8071,-2.778,-3.8614,-3.9088,-3.9177,-3.9337,-3.9424,-3.9275,-3.8762,-3.8552,0.0,0.0,-3.785,-3.7842,-3.8044,-3.8284,-3.8907,-4.0132,0.0,0.0,0.0,0.0,-4.5893,0.0,0.0,0.0,0.0,0.0,0.0,0.0,0.0,0.0,-5.0896,-5.1124,-5.1258,-5.1499,-5.1499,-5.1647,-5.2102,-5.2102,-5.2247,-5.2373,-5.2373,-5.2373,-5.2373,-5.2373,-5.2373,-5.2307,0.0,0.0,-5.0104,-4.8614,-4.8001,-4.8001,-4.8001,-4.8001,-4.8001,-4.8001,-4.8001,-4.8001,-4.8001,-4.7836,-4.7457,-4.6731,-4.5466,-4.4178,-4.3891,-4.3246,-4.2634,-4.2634,-4.2634,-4.2634,-4.2634,-4.2634,-4.2476,-4.2013,-4.1389,-4.0623,-3.9549,-3.8349,-3.7583,-3.7817,-3.786,-3.7992,-3.8278,-3.8391,-3.8359,-3.823,-3.7899,-3.7609,-3.738,-3.6421,-3.5675,-3.5358,-3.5291,-3.5383,-3.5577,-3.5728,-3.5538,-3.4933,-3.4288,-3.3596,-3.2976,-3.2273,-3.1984,-3.2108,-3.1446,-3.0795,-3.0106,-2.9361,-2.8629,-2.7946,-2.7986,-2.7982,-3.8603,-3.8943,-3.8943,-3.9031,-3.8852,-3.854,-3.827,0.0,0.0,0.0,-3.6009,-3.5683,-3.6209,0.0,0.0,0.0,0.0,0.0,0.0,0.0,0.0,0.0,0.0,0.0,0.0,0.0,0.0,0.0,0.0,0.0,-5.0912,-5.1124,-5.1258,-5.135,-5.1424,-5.1573,-5.1811,-5.203,-5.2175,-5.2247,-5.2373,-5.2373,-5.2373,-5.2373,-5.2373,-5.2307,0.0,0.0,-5.0104,-4.8614,-4.8001,-4.8001,-4.8001,-4.8001,-4.8001,-4.8001,-4.8001,-4.8001,-4.7853,-4.777,-4.7572,-4.7094,-4.5881,-4.4591,-4.4168,-4.3344,-4.2634,-4.2634,-4.2634,-4.2634,-4.2634,-4.2571,-4.2445,-4.2174,-4.1167,-4.0007,-3.9201,-3.8191,-3.7599,-3.7876,-3.7876,-3.7992,-3.8335,-3.8391,-3.8391,-3.8391,-3.8307,-3.8133,-3.7756,-3.7065,-3.6389,-3.5914,-3.5525,-3.5383,-3.5577,-3.5667,-3.5603,-3.548,-3.4411,-3.3728,-3.3524,-3.2498,-3.193,-3.1984,-3.1777,-3.1305,-3.062,-2.9913,-2.9185,-2.847,-2.8094,-2.7986,-3.8208,-3.862,-3.8694,-3.862,-3.8237,-3.7836,-3.7534,-3.6245,0.0,0.0,-3.417,-3.3649,-3.433,0.0,-3.6042,0.0,-3.8962,0.0,0.0,0.0,0.0,0.0,0.0,0.0,0.0,0.0,0.0,0.0,0.0,0.0,0.0,-5.1048,-5.1183,-5.1183,-5.135,-5.1424,-5.1499,-5.1811,-5.203,-5.2102,-5.2247,-5.239,-5.2373,-5.2373,-5.2291,-5.2075,0.0,0.0,0.0,-4.8547,-4.8001,-4.8001,-4.8001,-4.8001,-4.8001,-4.8001,-4.8001,-4.7919,-4.777,-4.7638,-4.7571,-4.7319,-4.632,-4.5163,-4.4366,-4.3571,-4.2828,-4.2603,-4.2634,-4.2634,-4.2634,-4.2508,-4.2318,-4.2125,-4.0785,-3.936,-3.8839,-3.8065,-3.7599,-3.7876,-3.7876,-3.7992,-3.8335,-3.8391,-3.8391,-3.8391,-3.8655,-3.8592,-3.8019,-3.7477,-3.6987,-3.6618,-3.5844,-3.5383,-3.5532,-3.5577,-3.5711,-3.5932,-3.4711,-3.399,-3.4037,-3.2824,-3.2031,-3.1894,-3.2091,-3.1812,-3.1095,-3.0442,-2.9716,-2.8938,-2.8212,-2.79,-3.7462,-3.8077,-3.8458,-3.8104,-3.7927,-3.7411,-3.568,0.0,0.0,-3.3698,-3.3419,-3.3359,-3.3574,-3.4237,-3.5024,-3.5812,0.0,-3.913,0.0,0.0,0.0,0.0,0.0,0.0,0.0,0.0,0.0,0.0,0.0,0.0,0.0,-5.0912,-5.1048,-5.1183,-5.1183,-5.135,-5.1499,-5.1499,-5.1737,-5.2102,-5.2102,-5.2247,-5.2373,-5.2373,-5.2009,-5.133,0.0,0.0,0.0,-4.8332,-4.8001,-4.8001,-4.8001,-4.8001,-4.8001,-4.8001,-4.7853,-4.7704,-4.7704,-4.7504,-4.7251,-4.7183,-4.6645,-4.5864,-4.4967,-4.4188,-4.3476,-4.2812,-4.2634,-4.2634,-4.2634,-4.2508,-4.2318,-4.2028,-4.0674,-3.9487,-3.9424,-3.8397,-3.7599,-3.7876,-3.7876,-3.7992,-3.8335,-3.8391,-3.8391,-3.8391,-3.8655,-3.8772,-3.8707,-3.7738,-3.7136,-3.722,-3.605,-3.5354,-3.5492,-3.5549,-3.5667,-3.5817,-3.5181,-3.4538,-3.3934,-3.321,-3.251,-3.1912,-3.2037,-3.1777,-3.1095,-3.0442,-2.9702,-2.8877,-2.807,-2.7795,-3.6331,-3.6794,-3.6997,-3.6981,-3.6339,-3.5634,-3.5007,0.0,-3.297,-3.2579,-3.2241,-3.2153,-3.2675,-3.3004,-3.3784,-3.5492,-3.6617,0.0,0.0,0.0,0.0,0.0,0.0,0.0,0.0,0.0,0.0,0.0,0.0,0.0,0.0,-5.0743,-5.0912,-5.1048,-5.1124,-5.1258,-5.135,-5.1424,-5.1573,-5.1737,-5.1868,-5.1941,-5.2013,-5.2158,-5.1834,-5.1107,0.0,0.0,0.0,-4.8299,-4.8001,-4.8001,-4.8001,-4.7935,-4.7853,-4.7853,-4.7721,-4.7588,-4.7454,-4.7319,-4.7183,-4.703,-4.6835,-4.6397,-4.5127,-4.4285,-4.3557,-4.2828,-4.2634,-4.2571,-4.2508,-4.227,-4.2012,-4.1801,-4.0926,-4.004,-3.9598,-3.876,-3.803,-3.7956,-3.7876,-3.7992,-3.8335,-3.8391,-3.8391,-3.8391,-3.8655,-3.8805,-3.8805,-3.7771,-3.7102,-3.7153,-3.6035,-3.5337,-3.5492,-3.5549,-3.5667,-3.5773,-3.5249,-3.4624,-3.3934,-3.3279,-3.2596,-3.1856,-3.1912,-3.1845,-3.1568,-3.0974,-3.0304,-2.9499,-2.8759,-2.8205,-3.4864,-3.5238,-3.5409,-3.5363,-3.4654,-3.397,0.0,0.0,-3.167,-3.1395,-3.1176,-3.1161,-3.1545,-3.1975,-3.2883,-3.4778,-3.6004,-3.7449,-3.9504,0.0,0.0,0.0,0.0,0.0,0.0,0.0,0.0,0.0,0.0,0.0,0.0,-5.0512,-5.0743,-5.0912,-5.1048,-5.1108,-5.1183,-5.135,-5.1424,-5.1499,-5.1647,-5.1704,-5.1778,-5.1711,-5.129,0.0,0.0,0.0,0.0,-4.8084,-4.7869,-4.7869,-4.7869,-4.7803,-4.7654,-4.7654,-4.7521,-4.7403,-4.7251,-4.7183,-4.7098,-4.6961,-4.6876,-4.6617,-4.5225,-4.4431,-4.3832,-4.2893,-4.2571,-4.2508,-4.2318,-4.2093,-4.1833,-4.167,-4.1083,-4.0403,-3.9661,-3.8981,-3.8362,-3.7945,-3.7876,-3.7992,-3.8335,-3.8391,-3.8391,-3.8391,-3.8655,-3.8805,-3.8805,-3.7771,-3.7102,-3.7102,-3.6035,-3.5337,-3.5446,-3.5549,-3.5622,-3.5728,-3.5368,-3.4763,-3.3894,-3.3407,-3.2745,-3.1817,-3.1875,-3.1894,-3.1894,-3.1307,-3.0642,-2.9872,-2.9201,-2.8443,-3.3006,-3.3464,-3.3779,-3.3164,-3.314,-3.2875,0.0,0.0,-3.1224,-3.0148,-3.0397,-3.0675,-3.0203,-3.1294,-3.2525,-3.3193,-3.5224,0.0,-3.8521,0.0,0.0,0.0,0.0,0.0,0.0,0.0,0.0,0.0,0.0,0.0,0.0,0.0,-5.0512,-5.0912,-5.0912,-5.0972,-5.1183,-5.1183,-5.1258,-5.1499,-5.1499,-5.1573,-5.1762,-5.1041,0.0,0.0,0.0,0.0,0.0,-4.7486,-4.7486,-4.7486,-4.7486,-4.747,-4.7486,-4.7486,-4.7403,-4.7183,-4.7183,-4.7098,-4.6876,-4.6876,-4.6876,-4.6617,-4.5225,-4.4787,-4.448,-4.3039,-4.2508,-4.2334,-4.1963,-4.1898,-4.1833,-4.167,-4.1083,-4.0403,-3.9661,-3.8981,-3.8362,-3.7945,-3.7876,-3.7992,-3.8335,-3.8391,-3.8391,-3.8391,-3.8655,-3.8805,-3.8805,-3.7771,-3.7102,-3.7102,-3.6035,-3.5291,-3.5291,-3.5503,-3.5622,-3.5622,-3.5711,-3.5163,-3.3772,-3.3842,-3.3218,-3.1834,-3.1875,-3.1894,-3.1894,-3.122,-3.0558,-2.9872,-2.9155,-2.8399,-3.1843,-3.2279,-3.2378,-3.2325,-3.2019,-3.1668,-3.1266,0.0,-2.9985,-2.9653,-2.9784,-2.9988,-2.9957,-3.0676,-3.1736,-3.3104,-3.4644,0.0,0.0,0.0,0.0,0.0,0.0,0.0,0.0,0.0,0.0,0.0,0.0,0.0,0.0,0.0,-5.0168,-5.0496,-5.0743,-5.0912,-5.0972,-5.1108,-5.1258,-5.1258,-5.1258,-5.1074,-5.066,-5.0562,0.0,0.0,0.0,0.0,0.0,-4.7486,-4.7486,-4.7486,-4.7486,-4.7403,-4.7319,-4.7319,-4.7183,-4.703,-4.703,-4.6961,-4.6876,-4.6876,-4.6876,-4.6617,-4.5225,-4.4787,-4.448,-4.2912,-4.227,-4.2028,-4.1914,-4.1817,-4.167,-4.1588,-4.143,-4.1083,-4.0403,-3.9692,-3.9043,-3.8722,-3.8254,-3.7992,-3.8335,-3.8391,-3.8391,-3.8391,-3.8655,-3.8625,-3.8117,-3.7458,-3.692,-3.6406,-3.564,-3.5198,-3.5291,-3.5503,-3.5622,-3.5622,-3.5728,-3.518,-3.3772,-3.3842,-3.3235,-3.1834,-3.1819,-3.1819,-3.1819,-3.1669,-3.0959,-2.9809,-2.9123,-2.8386,-2.9701,-3.0101,-3.0164,-3.0381,-3.0145,0.0,0.0,0.0,-2.89,-2.8728,-2.9103,-2.9493,-2.9434,-3.0178,-3.132,-3.2874,-3.4288,0.0,0.0,0.0,0.0,0.0,0.0,0.0,0.0,0.0,0.0,0.0,0.0,0.0,0.0,0.0,-5.001,-5.0168,-5.0496,-5.0743,-5.0912,-5.1048,-5.0978,-5.0778,-5.0778,-5.039,-4.9677,0.0,0.0,0.0,0.0,0.0,0.0,-4.7251,-4.7251,-4.7251,-4.7251,-4.7183,-4.7098,-4.7098,-4.703,-4.6876,-4.6876,-4.6876,-4.6876,-4.6876,-4.652,-4.5805,-4.4673,-4.4139,-4.3654,-4.251,-4.2077,-4.1898,-4.1817,-4.167,-4.1588,-4.1588,-4.1588,-4.1415,-4.0735,-4.0024,-3.9359,-3.8982,-3.8339,-3.7992,-3.8294,-3.8351,-3.8391,-3.8391,-3.8616,-3.8488,-3.7806,-3.7327,-3.677,-3.6075,-3.5442,-3.5152,-3.5291,-3.5458,-3.5594,-3.5622,-3.5667,-3.5094,-3.3707,-3.3761,-3.3179,-3.1743,-3.1746,-3.18,-3.18,-3.1598,-3.089,-2.9709,-2.9042,-2.8307,0.0,-2.7388,-2.7558,0.0,0.0,0.0,0.0,0.0,0.0,-2.7564,-2.8469,-2.9189,-2.8782,-2.9871,-3.1304,-3.2577,0.0,0.0,0.0,0.0,0.0,0.0,0.0,0.0,0.0,0.0,0.0,0.0,0.0,0.0,0.0,0.0,0.0,-4.9916,-5.012,-5.037,-5.082,-5.0848,-5.0553,-5.0098,-5.005,-4.9645,-4.8933,0.0,0.0,0.0,0.0,0.0,0.0,-4.6876,-4.6876,-4.6876,-4.6876,-4.6876,-4.6876,-4.6876,-4.6876,-4.6876,-4.6876,-4.6876,-4.6876,-4.6828,-4.5721,-4.4329,-4.3619,-4.2977,-4.2318,-4.1963,-4.1898,-4.1833,-4.167,-4.1588,-4.1588,-4.1588,-4.1588,-4.1415,-4.0798,-4.0056,-3.9375,-3.8832,-3.8312,-3.7992,-3.818,-3.8278,-3.8391,-3.8391,-3.8504,-3.8394,-3.7806,-3.7206,-3.6669,-3.6075,-3.5442,-3.5152,-3.5291,-3.5446,-3.552,-3.5577,-3.5622,-3.5006,-3.3658,-3.3639,-3.3043,-3.1614,-3.1746,-3.18,-3.18,-3.1165,-3.0439,-2.9591,-2.8962,-2.8262,-2.4888,0.0,-2.7367,-2.7558,-2.7617,-2.7675,0.0,-2.7555,-2.7272,0.0,0.0,0.0,0.0,0.0,0.0,0.0,0.0,0.0,0.0,0.0,0.0,0.0,0.0,0.0,0.0,0.0,0.0,0.0,0.0,0.0,0.0,0.0,0.0,-4.9931,-4.9488,-4.9628,-5.0418,-5.0181,-4.9963,-4.986,-4.9459,-4.8916,-4.8236,0.0,0.0,0.0,0.0,0.0,-4.6876,-4.6876,-4.6876,-4.6876,-4.6876,-4.6876,-4.6876,-4.6876,-4.6876,-4.6876,-4.6876,-4.6876,-4.6795,-4.6124,-4.4943,-4.3635,-4.3179,-4.2571,-4.2028,-4.1898,-4.1817,-4.167,-4.1588,-4.1588,-4.1588,-4.1588,-4.1588,-4.1541,-4.1399,-4.0372,-3.9518,-3.9515,-3.8663,-3.7992,-3.818,-3.8278,-3.8391,-3.8391,-3.8504,-3.8394,-3.7806,-3.7206,-3.6669,-3.6075,-3.5394,-3.4994,-3.5152,-3.5337,-3.552,-3.5577,-3.5622,-3.5006,-3.3658,-3.3632,-3.2997,-3.1614,-3.1746,-3.18,-3.18,-3.1647,-3.087,-2.954,-2.9418,-2.8672,-2.392,-2.5188,-2.6376,-2.6563,-2.6563,-2.662,-2.6791,-2.6806,-2.6863,0.0,0.0,0.0,0.0,0.0,0.0,0.0,0.0,0.0,0.0,0.0,0.0,0.0,0.0,0.0,0.0,0.0,0.0,0.0,0.0,0.0,0.0,0.0,0.0,0.0,-4.8716,-4.8839,-4.9769,-4.9297,-4.892,-4.8673,-4.8522,-4.8029,-4.7335,0.0,0.0,0.0,0.0,0.0,-4.6876,-4.6876,-4.6876,-4.6876,-4.6876,-4.6876,-4.6876,-4.6876,-4.6876,-4.6876,-4.6876,-4.6613,-4.6108,-4.5024,-4.3971,-4.3149,-4.2616,-4.2119,-4.1752,-4.1752,-4.167,-4.1588,-4.1588,-4.1588,-4.1588,-4.1588,-4.1588,-4.1588,-4.1588,-4.0482,-3.9503,-3.9643,-3.8654,-3.7876,-3.8049,-3.8221,-3.8351,-3.8391,-3.8448,-3.83,-3.7752,-3.7154,-3.6551,-3.6075,-3.5346,-3.4947,-3.5105,-3.5245,-3.5383,-3.5549,-3.5577,-3.5098,-3.405,-3.3735,-3.2957,-3.1593,-3.1671,-3.1709,-3.1709,-3.1763,-3.1196,-3.0041,-2.9713,-2.8969,-2.342,-2.4366,-2.5065,-2.5355,-2.5439,-2.5508,-2.5744,-2.6217,-2.6665,0.0,0.0,0.0,0.0,-3.0571,0.0,0.0,0.0,0.0,0.0,0.0,0.0,0.0,0.0,0.0,0.0,0.0,0.0,0.0,0.0,0.0,0.0,0.0,0.0,0.0,-4.7946,-4.808,-4.8802,-4.829,-4.7776,-4.7333,-4.7437,-4.7139,-4.6598,-4.6738,0.0,0.0,0.0,0.0,-4.6876,-4.6876,-4.6876,-4.6876,-4.6876,-4.6876,-4.6876,-4.6876,-4.6811,-4.6698,-4.6601,-4.5963,-4.5053,-4.3812,-4.3133,-4.2646,-4.2008,-4.1752,-4.1588,-4.1588,-4.1588,-4.1588,-4.1588,-4.1588,-4.1588,-4.1588,-4.1588,-4.1588,-4.1588,-4.0577,-3.9629,-3.9518,-3.8597,-3.7871,-3.7892,-3.8049,-3.8237,-3.8391,-3.8391,-3.8277,-3.7916,-3.7212,-3.6612,-3.6191,-3.5512,-3.5063,-3.5058,-3.5105,-3.5198,-3.5446,-3.5549,-3.5188,-3.437,-3.3769,-3.2815,-3.1496,-3.1559,-3.1579,-3.1617,-3.1709,-3.1403,-3.0679,-2.9868,-2.911,-2.2711,-2.3541,-2.427,-2.5051,-2.5244,-2.5437,-2.613,-2.6481,-2.6733,-2.7276,0.0,0.0,0.0,-3.1031,0.0,0.0,0.0,0.0,0.0,0.0,0.0,0.0,0.0,0.0,0.0,0.0,0.0,0.0,0.0,0.0,0.0,0.0,0.0,0.0,0.0,-4.6859,-4.7193,-4.7247,-4.7209,-4.7171,-4.671,-4.6445,-4.6333,-4.6404,-4.6458,0.0,0.0,-4.6738,-4.6876,-4.6876,-4.6876,-4.6876,-4.6876,-4.6876,-4.6876,-4.6876,-4.6488,-4.5888,-4.5088,-4.4294,-4.3536,-4.3113,-4.2584,-4.1976,-4.1702,-4.1588,-4.1588,-4.1588,-4.1588,-4.1588,-4.1588,-4.1588,-4.1588,-4.1588,-4.1588,-4.1588,-4.1588,-4.0972,-4.0245,-3.9629,-3.8978,-3.8428,-3.7972,-3.8049,-3.8237,-3.8391,-3.8391,-3.8415,-3.8469,-3.791,-3.7334,-3.6799,-3.6224,-3.5578,-3.4996,-3.5041,-3.5105,-3.5152,-3.5383,-3.4941,-3.3626,-3.2964,-3.2247,-3.1368,-3.1445,-3.1538,-3.1617,-3.1617,-3.133,-3.0679,-2.9868,-2.911,-2.2392,-2.2937,-2.3472,-2.4606,-2.5249,-2.5663,-2.6137,-2.6803,-2.74,-2.7885,0.0,0.0,0.0,0.0,0.0,0.0,0.0,0.0,0.0,0.0,0.0,0.0,0.0,0.0,0.0,0.0,0.0,0.0,0.0,0.0,0.0,0.0,0.0,0.0,0.0,0.0,-4.6118,-4.6266,-4.6412,-4.6412,-4.6239,-4.6152,-4.6223,-4.6278,-4.6333,-4.6458,0.0,-4.6458,-4.6545,-4.6545,-4.6598,-4.6738,-4.6738,-4.6565,-4.6261,-4.5753,-4.533,-4.4876,-4.4102,-4.3437,-4.2969,-4.2487,-4.2071,-4.1736,-4.1654,-4.1588,-4.1588,-4.1588,-4.1588,-4.1588,-4.1588,-4.1588,-4.1588,-4.1588,-4.1588,-4.1588,-4.1588,-4.1067,-4.0388,-3.9645,-3.9011,-3.8451,-3.7871,-3.7934,-3.8123,-3.8294,-3.8335,-3.8464,-3.856,-3.8074,-3.7646,-3.7524,-3.6588,-3.586,-3.5528,-3.5179,-3.5088,-3.5291,-3.5446,-3.4863,-3.3474,-3.3126,-3.2456,-3.1269,-3.1329,-3.1389,-3.1466,-3.1521,-3.1425,-3.1175,-3.0005,-2.9265,-2.2154,-2.2577,-2.2935,-2.4372,-2.5271,-2.5928,-2.6136,-2.7086,-2.8044,0.0,0.0,0.0,0.0,0.0,0.0,0.0,0.0,0.0,0.0,0.0,0.0,0.0,0.0,0.0,0.0,0.0,0.0,0.0,0.0,0.0,0.0,0.0,0.0,0.0,0.0,0.0,-4.5515,-4.5662,-4.5735,-4.5807,-4.5968,-4.604,-4.604,-4.6152,-4.6111,-4.6023,-4.6023,-4.5927,-4.5853,-4.5853,-4.5907,-4.603,-4.603,-4.5846,-4.5349,-4.4522,-4.4115,-4.3885,-4.3115,-4.2728,-4.25,-4.1992,-4.1736,-4.1588,-4.1588,-4.1588,-4.1588,-4.1588,-4.1588,-4.1588,-4.1588,-4.1588,-4.1588,-4.1588,-4.1588,-4.1588,-4.1588,-4.1067,-4.0388,-3.9645,-3.8965,-3.8347,-3.7769,-3.7759,-3.7934,-3.818,-3.8294,-3.8391,-3.852,-3.8182,-3.792,-3.7949,-3.6884,-3.6075,-3.5777,-3.5214,-3.5041,-3.5383,-3.5446,-3.4931,-3.3668,-3.3465,-3.2797,-3.1478,-3.1336,-3.1257,-3.1295,-3.1406,-3.15,-3.1562,-3.0259,-2.9574,-2.19,-2.2415,-2.3041,-2.4701,-2.5461,-2.5873,-2.6438,-2.7291,-2.8228,-2.9378,0.0,0.0,0.0,0.0,0.0,0.0,0.0,0.0,0.0,0.0,0.0,0.0,0.0,0.0,0.0,0.0,0.0,0.0,0.0,0.0,0.0,0.0,0.0,0.0,0.0,0.0,-4.5515,-4.5515,-4.5589,-4.5807,-4.5807,-4.5807,-4.5807,-4.5807,-4.5572,-4.5078,-4.5078,-4.4851,-4.4465,-4.4465,-4.4465,-4.4465,-4.4465,-4.4433,-4.4305,-4.3584,-4.3179,-4.2884,-4.2216,-4.1896,-4.1718,-4.1604,-4.1588,-4.1588,-4.1588,-4.1588,-4.1588,-4.1588,-4.1588,-4.1588,-4.1588,-4.1588,-4.1588,-4.1588,-4.1588,-4.1588,-4.1588,-4.1067,-4.0388,-3.9645,-3.8965,-3.8347,-3.7769,-3.77,-3.7817,-3.818,-3.8237,-3.8294,-3.8391,-3.8472,-3.8329,-3.7789,-3.7209,-3.6323,-3.5081,-3.4932,-3.4947,-3.5105,-3.5354,-3.5105,-3.4263,-3.3719,-3.3034,-3.2222,-3.1529,-3.1252,-3.1295,-3.1295,-3.1389,-3.15,-3.0714,-2.9928,-2.1846,-2.2265,-2.2779,-2.4649,-2.5527,-2.6121,-2.6894,-2.7907,-2.8926,-2.9572,-3.0538,0.0,0.0,0.0,0.0,0.0,0.0,0.0,0.0,0.0,0.0,0.0,0.0,0.0,0.0,0.0,0.0,0.0,0.0,0.0,0.0,0.0,0.0,0.0,0.0,0.0,0.0,-4.4856,-4.4783,-4.4912,-4.5056,-4.5128,-4.5112,-4.4701,-4.4354,-4.4171,-4.4171,-4.4098,-4.3913,-4.3897,-4.4034,-4.4054,-4.3757,-4.3515,-4.3368,-4.2666,-4.2264,-4.2084,-4.1831,-4.167,-4.1588,-4.1588,-4.1588,-4.1588,-4.1588,-4.1588,-4.1588,-4.1456,-4.139,-4.139,-4.139,-4.139,-4.139,-4.1288,-4.1339,-4.139,-4.139,-4.1002,-4.0388,-3.9645,-3.8965,-3.8286,-3.765,-3.7642,-3.7759,-3.7992,-3.8107,-3.8237,-3.8391,-3.8504,-3.8518,-3.828,-3.7433,-3.6537,-3.5678,-3.5164,-3.4899,-3.4994,-3.5152,-3.4985,-3.433,-3.365,-3.2967,-3.229,-3.1562,-3.123,-3.1252,-3.1252,-3.1291,-3.1334,-3.0602,-2.989,-2.1619,-2.2089,-2.2665,-2.4706,-2.5585,-2.6311,-2.7506,-2.8557,-2.939,-3.0038,-3.1406,-3.2846,-3.4178,0.0,0.0,0.0,0.0,0.0,0.0,0.0,0.0,0.0,0.0,0.0,0.0,0.0,0.0,0.0,0.0,0.0,0.0,0.0,0.0,0.0,0.0,0.0,0.0,-4.3951,-4.3862,-4.4046,-4.3969,-4.4125,-4.4385,-4.3927,-4.3595,-4.339,-4.339,-4.3263,-4.3042,-4.3026,-4.3094,-4.3182,-4.2839,-4.2632,-4.2436,-4.1992,-4.1736,-4.1588,-4.1588,-4.1588,-4.1588,-4.1588,-4.1588,-4.1588,-4.1588,-4.1588,-4.1456,-4.1323,-4.1256,-4.1205,-4.1189,-4.1189,-4.1205,-4.1102,-4.1153,-4.1205,-4.1205,-4.0714,-4.0055,-3.955,-3.873,-3.8033,-3.7559,-3.7599,-3.77,-3.7817,-3.7992,-3.8164,-3.8351,-3.8448,-3.8479,-3.8345,-3.7662,-3.69,-3.6092,-3.5545,-3.5148,-3.4916,-3.4994,-3.4901,-3.4549,-3.3681,-3.3026,-3.2587,-3.1681,-3.119,-3.119,-3.119,-3.1213,-3.1274,-3.0764,-3.0037,-2.1247,-2.1924,-2.2756,-2.5003,0.0,0.0,-2.8223,-2.8958,-2.9632,-3.1056,-3.2599,-3.391,-3.4743,0.0,0.0,0.0,0.0,0.0,0.0,0.0,0.0,0.0,0.0,0.0,0.0,0.0,0.0,0.0,0.0,0.0,0.0,0.0,0.0,0.0,0.0,0.0,0.0,-4.2891,-4.3018,-4.3161,-4.2667,-4.2837,-4.3722,-4.3706,-4.3327,-4.2679,-4.2679,-4.2268,-4.1588,-4.1588,-4.1588,-4.1588,-4.1588,-4.1588,-4.1588,-4.1588,-4.1588,-4.1588,-4.1588,-4.1588,-4.1588,-4.1588,-4.1588,-4.1588,-4.1588,-4.1456,-4.1323,-4.1323,-4.1221,-4.1034,-4.0867,-4.095,-4.1117,-4.1117,-4.1117,-4.1117,-4.1102,-4.0156,-3.9314,-3.9298,-3.8306,-3.748,-3.748,-3.748,-3.7539,-3.77,-3.7817,-3.7992,-3.818,-3.8351,-3.8228,-3.7752,-3.7863,-3.7461,-3.6141,-3.6009,-3.5694,-3.4949,-3.4899,-3.4947,-3.5088,-3.3879,-3.322,-3.322,-3.1854,-3.119,-3.119,-3.119,-3.119,-3.119,-3.119,-3.0395,-2.118,-2.1746,0.0,-2.4942,0.0,0.0,0.0,-2.9502,0.0,0.0,-3.3074,-3.3872,-3.5252,0.0,0.0,0.0,0.0,0.0,0.0,0.0,0.0,0.0,0.0,0.0,0.0,0.0,0.0,0.0,0.0,0.0,0.0,0.0,0.0,0.0,0.0,0.0,0.0,0.0,-4.2092,-4.2202,-4.1572,-4.1825,-4.2774,-4.239,-4.211,-4.192,-4.192,-4.1794,-4.1588,-4.1588,-4.1588,-4.1588,-4.1588,-4.1588,-4.1588,-4.1588,-4.1588,-4.1588,-4.1588,-4.1588,-4.1588,-4.1588,-4.1522,-4.139,-4.139,-4.1272,-4.1153,-4.1003,-4.0935,-4.0814,-4.0662,-4.0593,-4.0677,-4.0677,-4.0814,-4.0743,-4.0262,-3.9586,-3.9014,-3.867,-3.7899,-3.7329,-3.748,-3.748,-3.7539,-3.77,-3.7817,-3.7992,-3.8278,-3.8408,-3.8367,-3.8307,-3.7997,-3.7469,-3.6702,-3.6241,-3.5694,-3.4949,-3.4899,-3.4947,-3.5088,-3.3734,-3.3064,-3.3177,-3.1773,-3.1112,-3.119,-3.119,-3.119,-3.119,-3.119,-3.0395,-2.0966,-2.1648,0.0,-2.4867,-2.551,-2.631,-2.9016,0.0,0.0,0.0,0.0,0.0,0.0,0.0,0.0,0.0,0.0,0.0,0.0,0.0,0.0,0.0,0.0,0.0,0.0,0.0,0.0,0.0,0.0,0.0,0.0,0.0,0.0,0.0,0.0,0.0,0.0,0.0,0.0,-4.1264,-4.0931,-4.1153,-4.1763,-4.1594,-4.1522,-4.1588,-4.1588,-4.1588,-4.1588,-4.1588,-4.1588,-4.1588,-4.1588,-4.1588,-4.1588,-4.1588,-4.1588,-4.1588,-4.1588,-4.1588,-4.1588,-4.1522,-4.139,-4.1323,-4.1205,-4.1086,-4.095,-4.0799,-4.073,-4.0662,-4.0524,-4.0524,-4.0524,-4.0524,-4.0593,-4.0476,-3.9864,-3.9249,-3.876,-3.8138,-3.762,-3.7254,-3.7329,-3.7464,-3.7539,-3.7599,-3.7759,-3.7992,-3.8278,-3.8351,-3.8448,-3.8576,-3.8264,-3.7871,-3.7392,-3.6719,-3.6075,-3.5379,-3.5048,-3.4947,-3.4994,-3.3644,-3.295,-3.3064,-3.1691,-3.1015,-3.1112,-3.1112,-3.1151,-3.119,-3.119,-3.0565,-2.0561,-2.1418,0.0,-2.4604,-2.5562,0.0,-2.9069,-3.1269,-3.2866,-3.3132,0.0,0.0,0.0,0.0,0.0,0.0,0.0,0.0,0.0,0.0,0.0,0.0,0.0,0.0,0.0,0.0,0.0,0.0,0.0,0.0,0.0,0.0,0.0,0.0,0.0,0.0,0.0,0.0,0.0,0.0,-4.0662,-4.0799,-4.0799,-4.1122,-4.139,-4.1588,-4.1588,-4.1588,-4.1588,-4.1588,-4.1588,-4.1588,-4.1588,-4.1588,-4.1588,-4.1588,-4.1588,-4.1588,-4.1588,-4.1588,-4.1522,-4.1323,-4.1256,-4.1256,-4.1102,-4.095,-4.0799,-4.0799,-4.0662,-4.0524,-4.0524,-4.0524,-4.0524,-4.0524,-4.0524,-4.0324,-3.9585,-3.9087,-3.8518,-3.7729,-3.7374,-3.7194,-3.7194,-3.7389,-3.748,-3.7539,-3.7759,-3.7992,-3.8164,-3.8351,-3.8464,-3.8576,-3.856,-3.8449,-3.7998,-3.7327,-3.6636,-3.5993,-3.5313,-3.4899,-3.4899,-3.3665,-3.2946,-3.2923,-3.165,-3.0962,-3.0975,-3.0975,-3.1072,-3.119,-3.119,-3.0801,-1.9641,-2.0786,0.0,0.0,-2.6359,-2.8508,-2.9438,-3.1136,-3.2747,0.0,0.0,0.0,0.0,0.0,0.0,0.0,0.0,0.0,0.0,0.0,0.0,0.0,0.0,0.0,0.0,0.0,0.0,0.0,0.0,0.0,0.0,0.0,0.0,0.0,0.0,0.0,-4.0277,-4.047,-4.0524,0.0,-4.0524,-4.0662,-4.0799,-4.1018,-4.1221,-4.139,-4.1522,-4.1588,-4.1588,-4.1588,-4.1588,-4.1588,-4.1588,-4.1588,-4.1588,-4.1588,-4.1588,-4.1588,-4.139,-4.1374,-4.1323,-4.1153,-4.1018,-4.0935,-4.0867,-4.073,-4.0593,-4.0593,-4.0524,-4.0524,-4.0524,-4.0524,-4.0524,-4.0524,-4.0524,-4.0201,-3.8985,-3.8616,-3.8219,-3.7111,-3.6955,-3.7105,-3.7194,-3.7389,-3.7539,-3.7642,-3.7817,-3.7992,-3.8164,-3.8351,-3.8391,-3.8448,-3.856,-3.8323,-3.766,-3.7154,-3.6585,-3.5894,-3.5265,-3.4899,-3.4899,-3.4084,-3.3383,-3.2923,-3.2024,-3.1358,-3.0912,-3.0912,-3.0935,-3.1015,-3.1015,-3.0723,-1.9253,0.0,0.0,-2.4175,0.0,-2.8768,-2.935,-3.0765,0.0,0.0,0.0,0.0,0.0,0.0,0.0,0.0,0.0,0.0,0.0,0.0,0.0,0.0,0.0,0.0,0.0,0.0,0.0,0.0,0.0,0.0,0.0,0.0,0.0,0.0,0.0,0.0,-4.0137,-4.0331,-4.047,-4.0524,-4.0201,-3.9945,-3.972,-4.0671,-4.1169,-4.1221,-4.1355,-4.1355,-4.1355,-4.1355,-4.1355,-4.1355,-4.1355,-4.1355,-4.1355,-4.1355,-4.1355,-4.1355,-4.1221,-4.1205,-4.1153,-4.1018,-4.0882,-4.0799,-4.0662,-4.0593,-4.0524,-4.0524,-4.0524,-4.0524,-4.0524,-4.0524,-4.0524,-4.0524,-4.0524,-4.0247,-3.9216,-3.8739,-3.82,-3.7295,-3.6956,-3.6923,-3.7105,-3.7345,-3.7539,-3.7583,-3.7759,-3.7934,-3.8049,-3.8278,-3.8391,-3.8391,-3.8448,-3.8358,-3.8023,-3.7502,-3.694,-3.6371,-3.5679,-3.5215,-3.4916,-3.4535,-3.3868,-3.2818,-3.2087,-3.1399,-3.0814,-3.0814,-3.0871,-3.0952,-3.0952,-3.0774,-1.8892,0.0,-2.2063,-2.4517,-2.6554,0.0,-2.9047,0.0,0.0,0.0,0.0,0.0,0.0,0.0,0.0,0.0,0.0,0.0,0.0,0.0,0.0,0.0,0.0,0.0,0.0,0.0,0.0,0.0,0.0,0.0,0.0,0.0,0.0,0.0,0.0,-3.942,-3.9592,-3.9856,-3.9994,-4.0101,-3.9616,-3.9046,-3.8554,-3.9962,-4.0691,-4.0691,-4.0883,-4.0946,-4.0946,-4.107,-4.1117,-4.1117,-4.1117,-4.1117,-4.1117,-4.1117,-4.1117,-4.1117,-4.1034,-4.1034,-4.1034,-4.0799,-4.073,-4.073,-4.0524,-4.0524,-4.0524,-4.0524,-4.0524,-4.0524,-4.0524,-4.0524,-4.0524,-4.0524,-4.0524,-4.0339,-3.9662,-3.9077,-3.8446,-3.7646,-3.7079,-3.6785,-3.6999,-3.7301,-3.748,-3.748,-3.77,-3.7876,-3.7876,-3.8164,-3.8391,-3.8391,-3.8391,-3.8448,-3.8576,-3.7893,-3.7285,-3.6828,-3.6206,-3.5514,-3.4885,-3.4899,-3.427,-3.2911,-3.2166,-3.1497,-3.085,-3.0717,-3.0733,-3.0871,-3.0871,-3.0912,0.0,0.0,-2.2498,0.0,-2.5755,-2.7507,0.0,0.0,0.0,0.0,0.0,0.0,0.0,0.0,0.0,0.0,0.0,0.0,0.0,0.0,0.0,0.0,0.0,0.0,0.0,0.0,0.0,0.0,0.0,0.0,0.0,0.0,-3.7565,-3.7674,-3.7826,0.0,-3.7978,-3.84,-3.8601,-3.8601,-3.8626,-3.86,-3.8523,-3.8758,-3.8917,-3.9144,-3.9897,-4.0228,-4.0275,-4.0868,-4.1117,-4.1117,-4.1117,-4.1117,-4.1117,-4.1117,-4.1117,-4.1117,-4.0882,-4.0867,-4.0799,-4.0593,-4.0524,-4.0524,-4.0524,-4.0524,-4.0524,-4.0524,-4.0524,-4.0524,-4.0524,-4.0524,-4.0524,-4.0524,-4.0524,-4.0339,-3.9662,-3.9447,-3.9016,-3.7738,-3.7219,-3.6999,-3.715,-3.7345,-3.748,-3.748,-3.7658,-3.7759,-3.7876,-3.8107,-3.8278,-3.8408,-3.8391,-3.8408,-3.8464,-3.7855,-3.7215,-3.6499,-3.6038,-3.5465,-3.4772,-3.4851,-3.4502,-3.3657,-3.2911,-3.2183,-3.1487,-3.0841,-3.0609,-3.0733,-3.0733,-3.0773,-1.8363,-2.0196,-2.2063,0.0,-2.5192,-2.6783,0.0,0.0,0.0,0.0,0.0,0.0,0.0,0.0,0.0,0.0,0.0,0.0,0.0,0.0,0.0,0.0,0.0,0.0,0.0,0.0,0.0,0.0,0.0,0.0,0.0,-3.7035,-3.7228,-3.7297,-3.7419,0.0,-3.7707,-3.7857,-3.7861,-3.7678,-3.7874,-3.7738,-3.7384,-3.7384,-3.7864,-3.8654,-3.9029,-3.9234,-3.9296,-3.9895,-4.0173,-4.022,-4.0607,-4.0746,-4.0746,-4.0746,-4.0746,-4.0746,-4.0662,-4.0662,-4.0531,-4.0078,-3.9955,-3.9893,-3.9508,-3.9662,-3.9955,-3.9955,-4.0232,-4.0524,-4.0524,-4.0524,-4.0524,-4.0524,-4.0524,-4.0447,-4.0139,-3.9785,-3.9231,-3.8262,-3.7793,-3.7576,-3.7622,-3.7553,-3.748,-3.748,-3.7583,-3.7759,-3.7876,-3.8065,-3.8221,-3.8408,-3.8391,-3.8391,-3.8391,-3.8172,-3.7562,-3.6462,-3.6209,-3.5676,-3.474,-3.4756,-3.4686,-3.4419,-3.3276,-3.2332,-3.1576,-3.0874,-3.051,-3.0609,-3.0609,-3.0651,0.0,0.0,-2.1269,-2.2753,-2.4338,-2.5884,0.0,0.0,0.0,0.0,0.0,0.0,0.0,0.0,0.0,0.0,0.0,0.0,0.0,0.0,0.0,0.0,0.0,0.0,0.0,0.0,0.0,0.0,0.0,0.0,-3.6117,-3.6394,-3.66,-3.6669,-3.679,-3.6926,-3.7143,-3.721,-3.7137,-3.6945,-3.7167,-3.6984,-3.6492,-3.6492,-3.7046,-3.8,-3.8185,-3.8262,-3.8308,-3.8985,-3.9262,-3.9323,-3.9816,-4.0124,-4.0278,-4.0278,-4.0278,-4.0278,-4.0278,-4.0155,-3.9939,-3.9431,-3.9262,-3.917,-3.8662,-3.8985,-3.9524,-3.9524,-4.0001,-4.0524,-4.0524,-4.0524,-4.0524,-4.0524,-4.0524,-4.0524,-4.0524,-4.0001,-3.937,-3.8862,-3.835,-3.8029,-3.8029,-3.7696,-3.748,-3.748,-3.7599,-3.77,-3.7817,-3.7992,-3.8164,-3.8335,-3.8391,-3.8391,-3.8391,-3.8391,-3.7848,-3.6458,-3.6397,-3.585,-3.466,-3.4643,-3.4691,-3.4851,-3.3578,-3.2569,-3.1901,-3.1156,-3.0667,-3.0526,-3.0526,-3.0568,0.0,-1.8796,0.0,-2.1958,0.0,0.0,0.0,0.0,0.0,0.0,0.0,0.0,0.0,0.0,0.0,0.0,0.0,0.0,0.0,0.0,0.0,0.0,0.0,0.0,0.0,0.0,0.0,0.0,0.0,0.0,-3.48,-3.48,-3.5001,-3.5317,-3.5317,-3.5383,-3.5609,-3.5903,-3.6113,-3.6257,-3.6475,-3.6522,-3.6492,-3.6492,-3.6538,-3.663,-3.7277,-3.7554,-3.76,-3.8292,-3.8554,-3.8569,-3.86,-3.9,-3.957,-3.957,-3.957,-3.957,-3.957,-3.9154,-3.8616,-3.8569,-3.8554,-3.8554,-3.8523,-3.8985,-3.9524,-3.9524,-4.0001,-4.0524,-4.0524,-4.0524,-4.0524,-4.0524,-4.0524,-4.0524,-4.0524,-4.0001,-3.9508,-3.9462,-3.8676,-3.8029,-3.8029,-3.7696,-3.748,-3.748,-3.7539,-3.7539,-3.77,-3.7817,-3.7992,-3.818,-3.8335,-3.8391,-3.8391,-3.8391,-3.7809,-3.6384,-3.636,-3.5747,-3.4365,-3.4448,-3.4546,-3.4707,-3.3933,-3.3267,-3.263,-3.1918,-3.1205,-3.0526,-3.0526,-3.051,0.0,0.0,0.0,-2.0511,-2.2103,0.0,0.0,0.0,0.0,0.0,0.0,0.0,0.0,0.0,0.0,0.0,0.0,0.0,0.0,0.0,0.0,0.0,0.0,0.0,0.0,0.0,0.0,0.0,0.0,0.0,-3.4481,-3.4631,-3.4817,-3.5001,-3.5148,-3.5294,-3.5504,-3.5718,-3.5894,-3.6085,-3.6211,-3.6352,-3.6492,-3.6492,-3.6492,-3.6507,-3.6738,-3.6861,-3.6907,-3.7584,-3.7861,-3.7908,-3.8338,-3.8662,-3.8877,-3.8877,-3.8877,-3.8877,-3.8877,-3.8708,-3.8431,-3.8,-3.7861,-3.7861,-3.7717,-3.8111,-3.8739,-3.9062,-3.9688,-4.0207,-4.0207,-4.0261,-4.0401,-4.0455,-4.0524,-4.0524,-4.0524,-4.0339,-4.017,-4.017,-3.9647,-3.9085,-3.8667,-3.8262,-3.7849,-3.7543,-3.748,-3.7539,-3.77,-3.7817,-3.7992,-3.818,-3.8351,-3.8391,-3.8391,-3.797,-3.7307,-3.6367,-3.5886,-3.5224,-3.4333,-3.4349,-3.4448,-3.4546,-3.4283,-3.3703,-3.268,-3.1967,-3.1196,-3.0526,-3.0526,-3.0526,-1.6858,0.0,0.0,0.0,0.0,0.0,0.0,0.0,0.0,0.0,0.0,0.0,0.0,0.0,0.0,0.0,0.0,0.0,0.0,0.0,0.0,0.0,0.0,0.0,0.0,0.0,0.0,0.0,0.0,0.0,-3.4414,-3.4549,-3.4683,-3.4868,-3.5082,-3.5294,-3.5504,-3.5638,-3.5752,-3.5894,-3.6085,-3.6226,-3.6414,-3.6414,-3.6414,-3.6492,-3.6492,-3.6492,-3.6522,-3.6969,-3.7153,-3.7215,-3.7646,-3.7969,-3.8169,-3.8169,-3.8169,-3.8169,-3.8169,-3.795,-3.7674,-3.7228,-3.7026,-3.7009,-3.7094,-3.7562,-3.8248,-3.8812,-3.9495,-4.0011,-4.0011,-4.0137,-4.0347,-4.0401,-4.047,-4.0524,-4.0524,-4.0524,-4.0524,-4.0524,-4.0137,-3.9656,-3.9072,-3.856,-3.8056,-3.7575,-3.748,-3.7539,-3.7642,-3.7759,-3.7876,-3.8049,-3.8221,-3.8335,-3.8408,-3.7728,-3.7031,-3.6351,-3.5606,-3.4913,-3.4283,-3.425,-3.43,-3.4448,-3.4448,-3.3939,-3.2908,-3.2243,-3.156,-3.0874,-3.0642,-3.0526,0.0,0.0,0.0,0.0,0.0,0.0,0.0,0.0,0.0,0.0,0.0,0.0,0.0,0.0,0.0,0.0,0.0,0.0,0.0,0.0,0.0,0.0,0.0,0.0,0.0,0.0,0.0,0.0,0.0,-3.4196,-3.4414,-3.4414,-3.4549,-3.4868,-3.5082,-3.5294,-3.5504,-3.5653,-3.5688,-3.5688,-3.5894,-3.6085,-3.6196,-3.6196,-3.6274,-3.6492,-3.6492,-3.6492,-3.6492,-3.6492,-3.6492,-3.6492,-3.6492,-3.6892,-3.7477,-3.7461,-3.7477,-3.7477,-3.7477,-3.6888,-3.6196,-3.6196,-3.6085,-3.6095,-3.6808,-3.7476,-3.8144,-3.8827,-3.9495,-3.9996,-3.9996,-4.0137,-4.0277,-4.0277,-4.0401,-4.0539,-4.0524,-4.0524,-4.0524,-4.0524,-4.0152,-3.9621,-3.9072,-3.8576,-3.8072,-3.7575,-3.748,-3.748,-3.748,-3.7642,-3.7759,-3.7876,-3.8049,-3.8221,-3.8408,-3.7728,-3.6999,-3.6351,-3.5574,-3.4845,-3.4133,-3.4101,-3.4151,-3.43,-3.43,-3.4007,-3.3432,-3.2817,-3.2182,-3.156,-3.0815,-3.0526,-1.6284,0.0,0.0,0.0,0.0,0.0,0.0,0.0,0.0,0.0,0.0,0.0,0.0,0.0,0.0,0.0,0.0,0.0,0.0,0.0,0.0,0.0,0.0,0.0,0.0,0.0,0.0,0.0,0.0,-3.4128,-3.4196,-3.4481,-3.4698,-3.475,-3.5016,-3.5213,-3.5294,-3.5489,-3.5589,-3.5688,-3.5752,-3.5894,-3.6037,-3.6037,-3.61,-3.6163,-3.6163,-3.6163,-3.6163,-3.6429,-3.6492,-3.6492,-3.6492,-3.6599,-3.6769,-3.6612,-3.6549,-3.6565,-3.6438,-3.6252,-3.6037,-3.6037,-3.6037,-3.611,-3.6582,-3.7261,-3.7926,-3.8436,-3.9043,-3.964,-3.9768,-3.9839,-3.991,-4.0191,-4.0347,-4.0401,-4.0455,-4.0524,-4.0524,-4.0524,-4.0385,-4.0013,-3.915,-3.8904,-3.8513,-3.7654,-3.748,-3.748,-3.748,-3.7642,-3.7759,-3.7876,-3.8049,-3.8221,-3.8408,-3.729,-3.6513,-3.6319,-3.5104,-3.4311,-3.4117,-3.4101,-3.4101,-3.4151,-3.4151,-3.4103,-3.404,-3.3017,-3.2138,-3.1429,-3.0773,-3.0526,-1.6057,-1.6377,0.0,0.0,0.0,0.0,0.0,-2.0758,0.0,0.0,0.0,0.0,0.0,0.0,0.0,0.0,0.0,0.0,0.0,0.0,0.0,0.0,0.0,0.0,0.0,0.0,0.0,0.0,-3.2801,-3.325,-3.3725,-3.4269,-3.4631,-3.4698,-3.4949,-3.5148,-3.5213,-3.5424,-3.5554,-3.5589,-3.5589,-3.5718,-3.5894,-3.5894,-3.5894,-3.5973,-3.5973,-3.5973,-3.6037,-3.6226,-3.6289,-3.6289,-3.6289,-3.6289,-3.6289,-3.6148,-3.6085,-3.6085,-3.6037,-3.5973,-3.5894,-3.5894,-3.5846,-3.5853,-3.6466,-3.706,-3.7691,-3.8212,-3.8886,-3.9424,-3.9553,-3.9625,-3.9753,-3.998,-4.0191,-4.0347,-4.0401,-4.047,-4.0524,-4.0524,-4.0293,-3.9822,-3.9134,-3.8777,-3.8357,-3.7578,-3.748,-3.748,-3.748,-3.7599,-3.7642,-3.7817,-3.7992,-3.8051,-3.7858,-3.688,-3.6173,-3.5849,-3.4748,-3.4101,-3.4101,-3.4101,-3.4101,-3.4101,-3.4101,-3.3989,-3.3844,-3.3186,-3.2389,-3.1473,-3.0815,-3.0526,-1.5969,-1.61,-1.6355,0.0,0.0,0.0,-1.947,-2.0029,0.0,0.0,0.0,0.0,0.0,0.0,0.0,0.0,0.0,0.0,0.0,0.0,0.0,0.0,0.0,0.0,0.0,0.0,0.0,-3.1542,-3.1664,-3.2174,-3.3163,-3.3926,-3.4409,-3.4631,-3.4817,-3.4935,-3.5148,-3.5359,-3.5504,-3.5504,-3.5504,-3.5554,-3.5688,-3.5688,-3.5767,-3.591,-3.591,-3.591,-3.591,-3.591,-3.5973,-3.5973,-3.5973,-3.5973,-3.5973,-3.5973,-3.5973,-3.5973,-3.5973,-3.5831,-3.5688,-3.5688,-3.5604,-3.5609,-3.6207,-3.6866,-3.7569,-3.8302,-3.8945,-3.9424,-3.9424,-3.9553,-3.9696,-3.9681,-3.998,-4.0277,-4.0277,-4.0401,-4.0509,-4.0432,-3.9939,-3.936,-3.9072,-3.8402,-3.7857,-3.7515,-3.748,-3.748,-3.748,-3.748,-3.7539,-3.77,-3.7738,-3.755,-3.715,-3.6518,-3.5898,-3.5218,-3.4505,-3.4101,-3.4101,-3.4101,-3.4101,-3.4101,-3.4101,-3.3826,-3.3339,-3.3319,-3.2689,-3.156,-3.0832,-3.0526,0.0,0.0,0.0,0.0,0.0,0.0,-1.7961,-1.8865,0.0,0.0,0.0,0.0,0.0,0.0,0.0,0.0,0.0,0.0,0.0,0.0,0.0,0.0,0.0,0.0,0.0,0.0,-3.0712,-3.0698,-3.1488,-3.2319,-3.3149,-3.3506,-3.3891,-3.4467,-3.4631,-3.4817,-3.4935,-3.5148,-3.5359,-3.5504,-3.5504,-3.5504,-3.5554,-3.5554,-3.5554,-3.5619,-3.5619,-3.5619,-3.5619,-3.5619,-3.5748,-3.5973,-3.5973,-3.5973,-3.5973,-3.5831,-3.5752,-3.5752,-3.5604,-3.5554,-3.5554,-3.5554,-3.5504,-3.5534,-3.5654,-3.6492,-3.7659,-3.8871,-3.932,-3.9424,-3.9424,-3.9424,-3.9481,-3.9681,-3.991,-4.0066,-4.0277,-4.0401,-4.037,-3.9816,-3.9616,-3.9375,-3.8924,-3.8354,-3.7841,-3.7304,-3.7405,-3.748,-3.748,-3.748,-3.7539,-3.77,-3.716,-3.6933,-3.7118,-3.598,-3.5227,-3.5185,-3.4505,-3.4101,-3.4101,-3.4101,-3.4101,-3.4101,-3.4101,-3.4086,-3.4088,-3.3057,-3.2134,-3.1429,-3.0773,-3.0526,0.0,0.0,0.0,-1.6349,0.0,0.0,0.0,-1.8033,-1.8674,0.0,0.0,0.0,0.0,0.0,0.0,0.0,0.0,0.0,0.0,0.0,0.0,0.0,0.0,0.0,0.0,0.0,-2.968,-3.0038,-3.0899,-3.1654,-3.2098,-3.2623,-3.3216,-3.392,-3.4134,-3.4413,-3.4817,-3.5082,-3.5228,-3.5359,-3.5439,-3.5504,-3.5504,-3.5504,-3.5504,-3.5504,-3.5504,-3.5504,-3.5504,-3.5504,-3.5619,-3.5733,-3.5733,-3.5733,-3.5733,-3.5668,-3.5589,-3.5604,-3.5489,-3.5504,-3.5504,-3.5504,-3.5504,-3.5504,-3.5504,-3.6402,-3.7614,-3.8631,-3.9155,-3.9424,-3.9424,-3.9424,-3.9424,-3.9553,-3.9783,-3.9996,-4.0137,-4.0071,-3.9924,-3.9585,-3.897,-3.8465,-3.8271,-3.7841,-3.7451,-3.7241,-3.7389,-3.748,-3.748,-3.748,-3.7397,-3.7107,-3.6769,-3.6374,-3.587,-3.5219,-3.4816,-3.4565,-3.4194,-3.405,-3.4101,-3.4101,-3.4101,-3.4101,-3.4101,-3.4151,-3.4201,-3.3192,-3.2482,-3.1957,-3.1275,-3.079,0.0,0.0,0.0,0.0,0.0,-1.6742,0.0,0.0,0.0,-1.829,0.0,0.0,0.0,0.0,0.0,0.0,0.0,0.0,0.0,0.0,0.0,0.0,0.0,0.0,0.0,0.0,-2.8638,-2.9378,-3.0072,-3.0657,-3.1103,-3.1717,-3.25,-3.3267,-3.3514,-3.3952,-3.4493,-3.4957,-3.5148,-3.5213,-3.5424,-3.5504,-3.5504,-3.5504,-3.5504,-3.5504,-3.5504,-3.5504,-3.5504,-3.5504,-3.5504,-3.5504,-3.5504,-3.5504,-3.5504,-3.5504,-3.5504,-3.5504,-3.5504,-3.5504,-3.5504,-3.5504,-3.5504,-3.5534,-3.5654,-3.6492,-3.7539,-3.8197,-3.8886,-3.9424,-3.9424,-3.9424,-3.9424,-3.9424,-3.9711,-3.9895,-3.9844,-3.965,-3.9379,-3.9185,-3.8246,-3.7556,-3.7619,-3.7313,-3.706,-3.715,-3.7345,-3.748,-3.748,-3.748,-3.7212,-3.65,-3.6394,-3.5848,-3.4594,-3.4532,-3.437,-3.388,-3.3899,-3.3949,-3.405,-3.4101,-3.4101,-3.4101,-3.4101,-3.4101,-3.4101,-3.3616,-3.3076,-3.2455,-3.1731,-3.1051,0.0,0.0,0.0,0.0,-1.7016,0.0,0.0,0.0,-1.7658,-1.7753,0.0,-1.8916,-1.9094,0.0,0.0,0.0,0.0,0.0,0.0,0.0,0.0,0.0,0.0,0.0,0.0,0.0,0.0,-2.8745,-2.9025,-2.9718,-3.1045,-3.1315,-3.1772,-3.2614,-3.3166,-3.3616,-3.3805,-3.4574,-3.5001,-3.5213,-3.5424,-3.5504,-3.5504,-3.5504,-3.5504,-3.5504,-3.5504,-3.5504,-3.5504,-3.5504,-3.5504,-3.5504,-3.5504,-3.5504,-3.5504,-3.5504,-3.5504,-3.5504,-3.5504,-3.5504,-3.5504,-3.5504,-3.5504,-3.5609,-3.6193,-3.6866,-3.7539,-3.8197,-3.8886,-3.9424,-3.9424,-3.9424,-3.9424,-3.9424,-3.9553,-3.9602,-3.9167,-3.9162,-3.8938,-3.7889,-3.76,-3.7492,-3.7492,-3.7204,-3.7015,-3.6999,-3.7301,-3.748,-3.748,-3.748,-3.7212,-3.65,-3.5868,-3.5229,-3.4562,-3.398,-3.3686,-3.371,-3.3848,-3.3899,-3.3899,-3.405,-3.4101,-3.4101,-3.4101,-3.4101,-3.4101,-3.402,-3.3389,-3.2213,-3.1659,-3.1051,0.0,0.0,0.0,0.0,0.0,0.0,0.0,0.0,-1.7004,0.0,0.0,0.0,0.0,0.0,0.0,0.0,0.0,0.0,0.0,0.0,0.0,0.0,0.0,0.0,0.0,0.0,0.0,0.0,0.0,-2.9082,-2.9789,-3.0297,-3.0984,-3.1757,-3.2144,-3.2765,-3.3573,-3.3981,-3.4435,-3.4883,-3.5162,-3.5359,-3.5359,-3.5439,-3.5504,-3.5504,-3.5504,-3.5504,-3.5504,-3.5504,-3.5504,-3.5504,-3.5504,-3.5504,-3.5504,-3.5504,-3.5504,-3.5504,-3.5504,-3.5504,-3.5504,-3.5504,-3.5504,-3.5549,-3.5833,-3.6372,-3.7,-3.7644,-3.8302,-3.8916,-3.932,-3.9424,-3.932,-3.8916,-3.8968,-3.9013,-3.8501,-3.8217,-3.7958,-3.7536,-3.7184,-3.6923,-3.6923,-3.6863,-3.6862,-3.6999,-3.7165,-3.7389,-3.748,-3.748,-3.7054,-3.5947,-3.5568,-3.4936,-3.3884,-3.3572,-3.345,-3.3555,-3.3797,-3.3899,-3.3899,-3.405,-3.4101,-3.4101,-3.4101,-3.4101,-3.4101,-3.4101,-3.3421,-3.2089,-3.1978,-3.1358,-1.8478,0.0,0.0,0.0,0.0,0.0,0.0,0.0,0.0,0.0,0.0,0.0,0.0,0.0,-1.8448,0.0,0.0,0.0,0.0,0.0,0.0,0.0,0.0,0.0,0.0,0.0,0.0,0.0,0.0,0.0,-2.8859,-2.9462,-3.014,-3.1017,-3.1315,-3.1913,-3.2919,-3.3463,-3.3937,-3.442,-3.4927,-3.5148,-3.5148,-3.5294,-3.5359,-3.5359,-3.5359,-3.5439,-3.5439,-3.5439,-3.5439,-3.5439,-3.5359,-3.5359,-3.5359,-3.5439,-3.5504,-3.5504,-3.5504,-3.5504,-3.5504,-3.5504,-3.5504,-3.5504,-3.5504,-3.5968,-3.6611,-3.724,-3.7883,-3.8542,-3.9245,-3.9275,-3.9005,-3.8512,-3.8397,-3.825,-3.7819,-3.739,-3.7174,-3.7198,-3.683,-3.6492,-3.6492,-3.66,-3.6785,-3.6938,-3.7089,-3.7254,-3.748,-3.748,-3.6943,-3.5537,-3.5394,-3.4826,-3.3419,-3.3309,-3.3346,-3.3503,-3.371,-3.3797,-3.3899,-3.4,-3.405,-3.4101,-3.4101,-3.4101,-3.4101,-3.4101,-3.3485,-3.2303,-3.2294,-3.1565,0.0,0.0,0.0,-1.8491,0.0,0.0,0.0,0.0,-1.7244,0.0,0.0,0.0,0.0,-1.7041,-1.7277,-1.8035,0.0,0.0,0.0,0.0,0.0,0.0,0.0,0.0,0.0,0.0,0.0,0.0,0.0,0.0,-2.8788,-2.8902,-2.9394,-3.0326,-3.0974,-3.1382,-3.1584,-3.2995,-3.3703,-3.3732,-3.4559,-3.4935,-3.4935,-3.4935,-3.4935,-3.4935,-3.5148,-3.5213,-3.5213,-3.5213,-3.5213,-3.5213,-3.5001,-3.4935,-3.5001,-3.5359,-3.5504,-3.5504,-3.5504,-3.5504,-3.5504,-3.5504,-3.5504,-3.5504,-3.5504,-3.5968,-3.6611,-3.724,-3.7883,-3.8542,-3.9245,-3.8931,-3.8422,-3.8392,-3.7898,-3.7338,-3.7122,-3.7036,-3.6888,-3.6598,-3.6507,-3.6492,-3.6492,-3.66,-3.6785,-3.6938,-3.7089,-3.7254,-3.748,-3.748,-3.6943,-3.5537,-3.5394,-3.4826,-3.3419,-3.3309,-3.3346,-3.3503,-3.3503,-3.3658,-3.3899,-3.3899,-3.3949,-3.4101,-3.4101,-3.4101,-3.4101,-3.4101,-3.3744,-3.3032,-3.2478,-3.1508,0.0,0.0,-1.9004,-1.8952,0.0,0.0,0.0,0.0,0.0,0.0,0.0,0.0,0.0,0.0,-1.7109,-1.7473,-1.7499,-1.762,0.0,0.0,0.0,0.0,0.0,0.0,0.0,0.0,0.0,0.0,0.0,0.0,0.0,-2.8163,-2.9047,-2.938,-3.019,-3.0859,-3.1353,-3.2396,-3.31,-3.3587,-3.4376,-3.475,-3.475,-3.4868,-3.4935,-3.4935,-3.5001,-3.5001,-3.5001,-3.5001,-3.5001,-3.5001,-3.4935,-3.4935,-3.4935,-3.5067,-3.5082,-3.5082,-3.5082,-3.5082,-3.5082,-3.5082,-3.5082,-3.5148,-3.5294,-3.574,-3.6462,-3.7157,-3.7883,-3.8542,-3.9245,-3.8901,-3.8287,-3.7838,-3.7255,-3.6678,-3.6265,-3.6258,-3.631,-3.6335,-3.6414,-3.6492,-3.6492,-3.6554,-3.6616,-3.68,-3.6923,-3.7105,-3.727,-3.7405,-3.6943,-3.5537,-3.5394,-3.4826,-3.3419,-3.3309,-3.3309,-3.3346,-3.345,-3.3555,-3.3642,-3.3797,-3.3899,-3.3949,-3.405,-3.4101,-3.4101,-3.4101,-3.3761,-3.308,-3.2886,-3.2134,-1.8744,-1.8851,0.0,0.0,-1.8915,0.0,-1.8709,0.0,0.0,0.0,0.0,0.0,0.0,0.0,-1.7235,-1.7154,-1.7157,-1.7253,0.0,-1.7876,0.0,0.0,0.0,0.0,0.0,0.0,0.0,-2.3117,-2.4441,0.0,0.0,0.0,-2.8375,-2.8873,-2.9465,-3.0176,-3.096,-3.1734,-3.2434,-3.3137,-3.3908,-3.4412,-3.4631,-3.4668,-3.4735,-3.4735,-3.4817,-3.4817,-3.4817,-3.4817,-3.4817,-3.4802,-3.4735,-3.4735,-3.4735,-3.4868,-3.4935,-3.4935,-3.4935,-3.4935,-3.4935,-3.4935,-3.4935,-3.4979,-3.5348,-3.5785,-3.6372,-3.7386,-3.7993,-3.8497,-3.8931,-3.8556,-3.7883,-3.7225,-3.6596,-3.6079,-3.5778,-3.5831,-3.6037,-3.6148,-3.6352,-3.6492,-3.6492,-3.6492,-3.6554,-3.6662,-3.68,-3.6984,-3.7194,-3.7329,-3.6963,-3.5884,-3.5537,-3.4826,-3.3419,-3.3309,-3.3309,-3.3309,-3.3398,-3.345,-3.3503,-3.3658,-3.3797,-3.3899,-3.4,-3.405,-3.4101,-3.4101,-3.3874,-3.3437,-3.3194,-3.2722]},{"header":{"parameterUnit":"m.s-1","parameterCategory":1,"la1":30.6,"la2":29.2853,"lo1":-89.7004,"lo2":-87.6739,"dy":0.0162,"dx":0.0183,"nx":112,"ny":82,"refTime":"2023-05-16T12:00:00:Z","depth":0,"parameterNumber":3,"parameterNumberName":"V-component_of_WINDS"},"data":[0.0,0.0,0.0,0.0,0.0,0.0,0.0,0.0,0.0,0.0,0.0,0.0,0.0,0.0,0.0,0.0,0.0,0.0,0.0,0.0,0.0,0.0,0.0,0.0,0.0,0.0,0.0,0.0,0.0,0.0,0.0,0.0,0.0,0.0,0.0,0.0,0.0,0.0,0.0,0.0,0.0,0.0,0.0,0.0,0.0,0.0,0.0,0.0,0.0,0.0,0.0,0.0,0.0,0.0,0.0,0.0,0.0,0.0,0.0,0.0,0.0,0.0,0.0,0.0,0.0,0.0,0.0,0.0,0.0,0.0,0.0,0.0,0.0,0.0,0.0,0.0,0.0,0.0,0.0,0.0,0.0,0.0,0.0,0.0,0.0,0.0,0.0,0.0,0.0,0.0,0.0,-0.4313,-0.3227,-0.224,-0.1458,-0.087,-0.0314,0.0253,0.0,0.0,0.0,0.0,0.0,0.0,0.0,0.0,0.0,0.0,0.0,0.0,0.0,0.0,0.0,0.0,0.0,0.0,0.0,0.0,0.0,0.0,0.0,0.0,0.0,0.0,0.0,0.0,0.0,0.0,0.0,0.0,0.0,0.0,0.0,0.0,0.0,0.0,0.0,0.0,0.0,0.0,0.0,0.0,0.0,0.0,0.0,0.0,0.0,0.0,0.0,0.0,0.0,0.0,0.0,0.0,0.0,0.0,0.0,0.0,0.0,0.0,0.0,0.0,0.0,0.0,0.0,0.0,0.0,0.0,0.0,0.0,0.0,0.0,0.0,0.0,0.0,0.0,0.0,0.0,0.0,0.0,0.0,0.0,0.0,0.0,0.0,0.0,0.0,0.0,0.0,0.0,0.0,0.0,0.0,0.0,0.0,0.0,0.0,0.0,0.0,0.0,0.0,0.0,-0.5288,-0.4175,-0.3328,-0.2516,-0.179,-0.1086,-0.0367,0.0253,0.0,0.0,0.0,0.0,0.0,0.0,0.0,0.0,0.0,0.0,0.0,0.0,0.0,0.0,0.0,0.0,0.0,0.0,0.0,0.0,0.0,0.0,0.0,0.0,0.0,0.0,0.0,0.0,0.0,0.0,0.0,0.0,0.0,0.0,0.0,0.0,0.0,0.0,0.0,0.0,0.0,0.0,0.0,0.0,0.0,0.0,0.0,0.0,0.0,0.0,0.0,0.0,0.0,0.0,0.0,0.0,0.0,0.0,0.0,0.0,0.0,0.0,0.0,0.0,0.0,0.0,0.0,0.0,0.0,0.0,0.0,0.0,0.0,0.0,0.0,0.0,0.0,0.0,0.0,0.0,0.0,0.0,0.0,0.0,0.0,0.0,0.0,0.0,0.0,0.0,0.0,0.0,0.0,0.0,0.0,0.0,0.0,0.0,0.0,0.0,0.0,0.0,0.0,-0.586,-0.5314,-0.4492,-0.3707,-0.2961,-0.2238,-0.1492,-0.075,-0.0152,0.0292,0.0,0.0,0.0,0.0,0.0,0.0,0.0,0.0,0.0,0.0,0.0,0.0,0.0,0.0,0.0,0.0,0.0,0.0,0.0,0.0,0.0,0.0,0.0,0.0,0.0,0.0,0.0,0.0,0.0,0.0,0.0,0.0,0.0,0.0,0.0,0.0,0.0,0.0,0.0,0.0,0.0,0.0,0.0,0.0,0.0,0.0,0.0,0.0,0.0,0.0,0.0,0.0,0.0,0.0,0.0,0.0,0.0,0.0,0.0,0.0,0.0,0.0,0.0,0.0,0.0,0.0,0.0,0.0,0.0,0.0,0.0,0.0,0.0,0.0,0.0,0.0,0.0,0.0,0.0,0.0,0.0,0.0,0.0,0.0,0.0,0.0,0.0,0.0,0.0,0.0,0.0,0.0,0.0,0.0,0.0,0.0,0.0,0.0,0.0,0.0,0.0,0.0,-0.6029,-0.5406,-0.4871,-0.4181,-0.3405,-0.2687,-0.1905,-0.1198,-0.0608,-0.0101,0.0,0.0,0.0,0.0,0.0,0.0,0.0,0.0,0.0,0.0,0.0,0.0,0.0,0.0,0.0,0.0,0.0,0.0,0.0,0.0,0.0,0.0,0.0,0.0,0.0,0.0,0.0,0.0,0.0,0.0,0.0,0.0,0.0,0.0,0.0,0.0,0.0,0.0,0.0,0.0,0.0,0.0,0.0,0.0,0.0,0.0,0.0,0.0,0.0,0.0,0.0,0.0,0.0,0.0,0.0,0.0,0.0,0.0,0.0,0.0,0.0,0.0,0.0,0.0,0.0,0.0,0.0,0.0,0.0,0.0,0.0,0.0,0.0,0.0,0.0,0.0,0.0,0.0,0.0,0.0,0.0,0.0,0.0,0.0,0.0,0.0,0.0,0.0,0.0,0.0,0.0,0.0,0.0,0.0,0.0,0.0,0.0,0.0,0.0,0.0,0.0,0.0,-0.6272,-0.5654,-0.5295,-0.4618,-0.379,-0.2961,-0.2293,-0.1631,-0.0912,-0.0353,0.0,0.0,0.0,0.0,0.0,0.0,0.0,0.0,0.0,0.0,0.0,0.0,0.0,0.0,0.0,0.0,0.0,0.0,0.0,0.0,0.0,0.0,0.0,0.0,0.0,0.0,0.0,0.0,0.0,0.0,0.0,0.0,0.0,0.0,0.0,0.0,0.0,0.0,0.0,0.0,0.0,0.0,0.0,0.0,0.0,0.0,0.0,0.0,0.0,0.0,0.0,0.0,0.0,0.0,0.0,0.0,0.0,0.0,0.0,0.0,0.0,0.0,0.0,0.0,0.0,0.0,0.0,0.0,0.0,0.0,0.0,0.0,0.0,0.0,0.0,0.0,0.0,0.0,0.0,0.0,0.0,0.0,0.0,0.0,0.0,0.0,0.0,0.0,0.0,0.0,0.0,0.0,0.0,0.0,0.0,0.0,0.0,0.0,0.0,0.0,0.0,0.0,-0.6611,-0.5956,0.0,-0.5011,-0.4239,-0.3516,-0.2854,-0.2123,-0.142,0.0,0.0,0.0,0.0,0.0,0.0,0.0,0.0,0.0,0.0,0.0,0.0,0.0,0.0,0.0,0.0,0.0,0.0,0.0,0.0,0.0,0.0,0.0,0.0,0.0,0.0,0.0,0.0,0.0,0.0,0.0,0.0,0.0,0.0,0.0,0.0,0.0,0.0,0.0,0.0,0.0,0.0,0.0,0.0,0.0,0.0,0.0,0.0,0.0,0.0,0.0,0.0,0.0,0.0,0.0,0.0,0.0,0.0,0.0,0.0,0.0,0.0,0.0,0.0,0.0,0.0,0.0,0.0,0.0,0.0,0.0,0.0,0.0,0.0,0.0,0.0,0.0,0.0,0.0,0.0,0.0,0.0,0.0,0.0,0.0,0.0,0.0,0.0,0.0,0.0,0.0,0.0,0.0,0.0,0.0,0.0,0.0,0.0,0.0,0.0,0.0,0.0,-0.7622,-0.6948,-0.6352,0.0,-0.5454,-0.4739,-0.4073,-0.3411,-0.2665,-0.1977,0.0,0.0,0.0,0.0,0.0,0.0,0.0,0.0,0.0,0.0,0.0,0.0,0.0,0.0,0.0,0.0,0.0,0.0,0.0,0.0,0.0,0.0,0.0,0.0,0.0,0.0,0.0,0.0,0.0,0.0,0.0,0.0,0.0,0.0,0.0,0.0,0.0,0.0,0.0,0.0,0.0,0.0,0.0,0.0,0.0,0.0,0.0,0.0,0.0,0.0,0.0,0.0,0.0,0.0,0.0,0.0,0.0,0.0,0.0,0.0,0.0,0.0,0.0,0.0,0.0,0.0,0.0,0.0,0.0,0.0,0.0,0.0,0.0,0.0,0.0,0.0,0.0,0.0,0.0,0.0,0.0,0.0,0.0,0.0,0.0,0.0,0.0,0.0,0.0,0.0,0.0,0.0,0.0,0.0,0.0,0.0,0.0,0.0,0.0,0.0,0.0,0.0,-0.7802,-0.7338,-0.685,-0.6445,-0.5946,-0.5289,-0.4574,-0.3959,-0.3307,0.0,0.0,0.0,0.0,0.0,0.0,0.0,0.0,0.0,0.0,0.0,0.0,0.0,0.0,0.0,0.0,0.0,0.0,0.0,0.0,0.0,0.0,0.0,0.0,0.0,0.0,0.0,0.0,0.0,0.0,0.0,0.0,0.0,0.0,0.0,0.0,0.0,0.0,0.0,0.0,0.0,0.0,0.0,0.0,0.0,0.0,0.0,0.0,0.0,0.0,0.0,0.0,0.0,0.0,0.0,0.0,0.0,0.0,0.0,0.0,0.0,0.0,0.0,0.0,0.0,0.0,0.0,0.0,0.0,0.0,0.0,0.0,0.0,0.0,0.0,0.0,0.0,0.0,0.0,0.0,0.0,0.0,0.0,0.0,0.0,0.0,0.0,0.0,0.0,0.0,0.0,0.0,0.0,0.0,0.0,0.0,0.0,0.0,0.0,0.0,0.0,0.0,0.0,-0.8289,-0.7847,-0.7353,-0.7042,-0.6426,-0.5773,-0.5117,-0.4567,-0.3902,-0.3134,0.0,0.0,0.0,0.0,0.0,0.0,0.0,0.0,0.0,0.0,0.0,0.0,0.0,0.0,0.0,0.0,0.0,0.0,0.0,0.0,0.0,0.0,0.0,0.0,0.0,0.0,0.0,0.0,0.0,0.0,0.0,0.0,0.0,0.0,0.0,0.0,0.0,0.0,0.0,0.0,0.0,0.0,0.0,0.0,0.0,0.0,0.0,0.0,0.0,0.0,0.0,0.0,0.0,0.0,0.0,0.0,0.0,0.0,0.0,0.0,0.0,0.0,0.0,0.0,0.0,0.0,0.0,0.0,0.0,0.0,0.0,0.0,0.0,0.0,0.0,0.0,0.0,0.0,0.0,0.0,0.0,0.0,0.0,0.0,0.0,0.0,0.0,0.0,0.0,0.0,0.0,0.0,0.0,0.0,0.0,0.0,0.0,0.0,0.0,0.0,0.0,0.0,-0.8543,-0.8163,-0.7838,-0.7563,-0.6916,-0.6301,-0.5772,-0.5156,-0.4495,-0.3686,0.0,0.0,0.0,0.0,0.0,0.0,0.0,0.0,0.0,0.0,0.0,0.0,0.0,0.0,0.0,0.0,0.0,0.0,0.0,0.0,0.0,0.0,0.0,0.0,0.0,0.0,0.0,0.0,0.0,0.0,0.0,0.0,0.0,0.0,0.0,0.0,0.0,0.0,0.0,0.0,0.0,0.0,0.0,0.0,0.0,0.0,0.0,0.0,0.0,0.0,0.0,0.0,0.0,0.0,0.0,0.0,0.0,0.0,0.0,0.0,0.0,0.0,0.0,0.0,0.0,0.0,0.0,0.0,0.0,0.0,0.0,0.0,0.0,0.0,0.0,0.0,0.0,0.0,0.0,0.0,0.0,0.0,0.0,0.0,0.0,0.0,0.0,0.0,0.0,0.0,0.0,0.0,0.0,0.0,0.0,0.0,0.0,0.0,0.0,0.0,0.0,0.0,-0.871,-0.8518,-0.8313,-0.8002,-0.7433,-0.6899,-0.6511,-0.5845,-0.5042,-0.4239,0.0,0.0,0.0,0.0,0.0,0.0,0.0,0.0,0.0,0.0,0.0,0.0,0.0,0.0,0.0,0.0,0.0,0.0,0.0,0.0,0.0,0.0,0.0,0.0,0.0,0.0,0.0,0.0,0.0,0.0,0.0,0.0,0.0,0.0,0.0,0.0,0.0,0.0,0.0,0.0,0.0,0.0,0.0,0.0,0.0,0.0,0.0,0.0,0.0,0.0,0.0,0.0,0.0,0.0,0.0,0.0,0.0,0.0,0.0,0.0,-1.2097,0.0,0.0,0.0,0.0,0.0,0.0,0.0,0.0,0.0,0.0,0.0,0.0,0.0,0.0,0.0,0.0,0.0,0.0,0.0,0.0,0.0,0.0,0.0,0.0,0.0,0.0,0.0,0.0,0.0,0.0,0.0,0.0,0.0,0.0,0.0,0.0,0.0,0.0,0.0,0.0,0.0,-0.9483,-0.9438,-0.92,-0.8658,-0.824,-0.7758,-0.7167,-0.6544,-0.5773,-0.4791,0.0,0.0,0.0,0.0,0.0,0.0,0.0,0.0,0.0,0.0,0.0,0.0,0.0,0.0,0.0,0.0,0.0,0.0,0.0,0.0,0.0,0.0,0.0,0.0,0.0,0.0,0.0,0.0,0.0,0.0,0.0,0.0,0.0,0.0,0.0,0.0,0.0,0.0,0.0,0.0,0.0,0.0,0.0,0.0,0.0,0.0,0.0,0.0,0.0,0.0,0.0,0.0,0.0,0.0,0.0,0.0,0.0,0.0,0.0,0.0,0.0,-1.3099,0.0,0.0,0.0,0.0,0.0,0.0,0.0,0.0,0.0,0.0,0.0,0.0,0.0,0.0,0.0,0.0,0.0,0.0,0.0,0.0,0.0,0.0,0.0,0.0,0.0,0.0,0.0,0.0,0.0,0.0,0.0,0.0,0.0,0.0,0.0,0.0,0.0,0.0,0.0,0.0,-0.9987,-0.991,-0.9729,-0.9395,-0.8903,-0.8387,-0.7739,-0.7161,-0.6413,-0.542,-0.4807,0.0,0.0,0.0,0.0,0.0,0.0,0.0,0.0,0.0,0.0,0.0,0.0,0.0,0.0,0.0,0.0,0.0,0.0,0.0,0.0,0.0,0.0,0.0,0.0,0.0,0.0,0.0,0.0,0.0,0.0,0.0,0.0,0.0,0.0,0.0,0.0,0.0,0.0,0.0,0.0,0.0,0.0,0.0,0.0,0.0,0.0,0.0,0.0,0.0,0.0,0.0,0.0,0.0,0.0,-1.3672,-1.41,-1.4091,-1.4338,-1.4671,-1.4289,-1.4208,-1.4358,0.0,0.0,0.0,0.0,0.0,0.0,0.0,0.0,0.0,0.0,0.0,0.0,0.0,0.0,0.0,0.0,0.0,0.0,0.0,0.0,0.0,0.0,0.0,0.0,0.0,-1.8495,-1.8335,0.0,0.0,0.0,0.0,0.0,0.0,0.0,0.0,0.0,0.0,0.0,0.0,-1.0451,-1.0363,-1.0251,-1.0067,-0.9582,-0.8955,-0.8333,-0.7786,-0.7057,-0.5982,-0.5358,-0.4705,0.0,0.0,0.0,0.0,0.0,0.0,0.0,0.0,0.0,0.0,0.0,0.0,0.0,0.0,0.0,0.0,0.0,0.0,0.0,0.0,0.0,0.0,0.0,0.0,0.0,0.0,0.0,0.0,0.0,0.0,0.0,0.0,-1.2079,-1.1814,0.0,0.0,0.0,0.0,0.0,0.0,0.0,0.0,0.0,0.0,0.0,0.0,0.0,0.0,-1.3925,-1.4222,-1.4629,-1.5141,-1.5141,-1.528,-1.5497,-1.5618,-1.5739,-1.5799,-1.6193,0.0,-1.5335,-1.5338,0.0,0.0,0.0,0.0,0.0,0.0,0.0,0.0,0.0,0.0,0.0,0.0,0.0,0.0,0.0,0.0,0.0,0.0,0.0,0.0,0.0,0.0,-2.0347,-2.0221,-2.0439,-2.0575,0.0,-1.829,-1.648,-1.5882,0.0,0.0,0.0,0.0,0.0,0.0,0.0,0.0,-1.1292,-1.131,-1.1145,-1.0703,-1.0369,-0.9803,-0.8952,-0.8469,-0.7677,-0.6566,-0.5907,-0.5241,-0.4503,-0.3812,0.0,0.0,0.0,0.0,0.0,0.0,0.0,0.0,0.0,0.0,0.0,0.0,0.0,0.0,0.0,0.0,0.0,0.0,0.0,0.0,0.0,0.0,0.0,0.0,0.0,0.0,0.0,0.0,0.0,-1.2957,-1.3023,-1.3258,-1.316,-1.3175,0.0,0.0,0.0,0.0,0.0,0.0,0.0,0.0,0.0,-1.4637,-1.4815,-1.495,-1.5126,-1.5204,-1.5713,-1.6447,-1.6447,-1.6623,-1.7055,-1.7123,-1.7078,-1.7029,-1.7252,-1.7242,-1.6911,-1.6717,-1.6585,-1.6498,0.0,0.0,0.0,0.0,0.0,-1.7747,-1.783,0.0,0.0,0.0,0.0,0.0,0.0,0.0,0.0,0.0,0.0,0.0,0.0,0.0,0.0,-2.0702,-2.0621,-2.0472,-2.0057,-1.8889,-1.7853,0.0,-1.6827,-1.6058,-1.5314,0.0,0.0,0.0,0.0,0.0,-1.2145,-1.1945,-1.1675,-1.138,-1.1037,-1.0498,-0.9588,-0.8995,-0.8293,-0.7432,-0.6623,-0.5918,-0.5266,-0.4519,-0.3856,0.0,0.0,0.0,0.0,0.0,0.0,0.0,0.0,0.0,0.0,0.0,0.0,0.0,0.0,0.0,0.0,0.0,0.0,0.0,0.0,0.0,0.0,0.0,0.0,0.0,0.0,0.0,0.0,-1.4139,-1.4227,-1.4674,-1.4602,-1.479,0.0,0.0,0.0,0.0,0.0,0.0,-1.5846,-1.5914,-1.6085,-1.6488,-1.6602,-1.6689,-1.6699,-1.6699,-1.7029,-1.7751,-1.7751,-1.7976,-1.8331,-1.8331,-1.8258,-1.816,-1.8231,-1.8328,-1.8324,-1.7777,-1.737,-1.7201,-1.745,-1.7616,-1.7772,-1.7788,-1.8147,-1.863,-1.8631,-1.9032,-1.9507,-1.959,0.0,-2.0098,-2.0381,0.0,0.0,0.0,0.0,-2.1556,-2.1556,0.0,-2.1524,-2.1464,-2.1181,-2.0804,-2.0368,-1.9977,-1.9413,0.0,-1.7904,-1.7169,-1.64,0.0,0.0,0.0,0.0,-1.3218,-1.2871,-1.2512,-1.225,-1.2027,-1.1677,-1.1112,-1.0248,-0.9538,-0.8914,-0.8253,-0.7312,-0.6521,-0.5941,-0.524,-0.4578,-0.3884,0.0,0.0,0.0,0.0,0.0,0.0,0.0,0.0,0.0,0.0,0.0,0.0,0.0,0.0,0.0,0.0,0.0,0.0,0.0,0.0,0.0,0.0,0.0,0.0,0.0,0.0,0.0,0.0,0.0,-1.5858,-1.6467,0.0,0.0,0.0,0.0,-1.7339,-1.7036,-1.7024,-1.7376,-1.7478,-1.7658,-1.8086,-1.8451,-1.8834,-1.9144,-1.9153,-1.9182,-1.9408,-1.9408,-1.9255,-1.9119,-1.9119,-1.911,-1.917,-1.9332,-1.9274,-1.9046,-1.8091,-1.8052,-1.8636,-1.7919,-1.8107,-1.868,-1.8376,-1.8676,-1.9292,-1.9762,-2.0325,-2.0791,-2.0611,-2.0605,-2.0716,-2.1037,-2.128,0.0,0.0,-2.2111,-2.2553,-2.2616,-2.2995,-2.332,-2.3218,-2.2958,-2.2644,-2.2245,-2.1812,-2.0784,0.0,-1.7472,-1.691,-1.616,0.0,-1.4945,-1.4184,-1.4052,-1.3864,-1.3261,-1.3212,-1.307,-1.2621,-1.212,-1.1552,-1.0926,-1.0141,-0.9444,-0.8869,-0.7899,-0.708,-0.6482,-0.595,-0.5257,-0.4391,-0.4278,0.0,0.0,0.0,0.0,0.0,0.0,0.0,0.0,0.0,0.0,0.0,0.0,0.0,0.0,0.0,0.0,0.0,0.0,0.0,0.0,0.0,0.0,0.0,0.0,0.0,0.0,0.0,0.0,-1.78,-1.8228,0.0,0.0,-1.8616,-1.8769,-1.9054,-1.8965,-1.907,-1.9503,-1.9358,-1.9467,-1.9716,-1.994,-2.0041,-2.0107,-2.0357,-2.0589,-2.0898,-2.0898,-2.1022,-2.116,-2.116,-2.0896,-2.0421,-2.051,-2.0234,-1.9847,-1.9444,-1.9155,-1.8908,-1.8737,-1.8934,-1.9251,-1.9312,-1.9607,-2.003,-2.0221,-2.0389,-2.044,-2.0487,-2.0809,-2.1161,-2.1268,-2.1628,-2.193,-2.2021,-2.2337,-2.2667,-2.2667,-2.2776,-2.2831,-2.2778,-2.2523,-2.2211,-2.195,-2.1425,-2.0729,-1.9673,-1.9159,-1.8675,-1.799,-1.7374,-1.6757,-1.6098,-1.5677,-1.5191,-1.4517,-1.4057,-1.3608,-1.3119,-1.2613,-1.2135,-1.1706,-1.0725,-0.9978,-0.9647,-0.8641,-0.7735,-0.7124,-0.667,-0.6053,-0.5252,-0.488,-0.4427,0.0,0.0,0.0,0.0,0.0,0.0,0.0,0.0,0.0,0.0,0.0,0.0,0.0,0.0,0.0,0.0,0.0,0.0,0.0,0.0,0.0,0.0,0.0,0.0,0.0,0.0,-1.9425,-1.9694,-1.9896,-2.0156,-2.0483,-2.037,-2.043,-2.0712,-2.0808,-2.0924,-2.1148,-2.1193,-2.1296,-2.1481,-2.1697,-2.1642,-2.1472,-2.1726,-2.1906,-2.199,-2.199,-2.2031,-2.2167,-2.2167,-2.1893,-2.1496,-2.1496,-2.1293,-2.0977,-2.0706,-2.0307,-1.9919,-1.9678,-1.9694,-1.9826,-1.9879,-2.005,-2.035,-2.0651,-2.0785,-2.0835,-2.1043,-2.1487,-2.1993,-2.2112,-2.2514,-2.291,-2.291,-2.3141,-2.3384,-2.3384,-2.3282,-2.3225,-2.3225,-2.3007,-2.2728,-2.2564,-2.2124,-2.1632,-2.1329,-2.0414,-1.9536,-1.9037,-1.8384,-1.7781,-1.7149,-1.6699,-1.616,-1.5394,-1.4917,-1.4388,-1.3627,-1.3223,-1.2811,-1.2321,-1.1368,-1.0654,-1.0207,-0.9322,-0.8501,-0.7721,-0.7375,-0.6829,-0.5984,-0.5297,-0.4822,-0.4582,0.0,0.0,0.0,0.0,0.0,0.0,0.0,0.0,0.0,0.0,0.0,0.0,0.0,0.0,0.0,0.0,0.0,0.0,0.0,0.0,0.0,0.0,0.0,-2.0075,-2.0522,-2.1043,-2.1323,-2.1643,-2.1998,-2.2527,-2.2415,-2.2291,-2.2317,-2.2473,-2.2464,-2.2322,-2.2828,-2.3176,-2.3085,-2.3483,-2.3598,-2.3317,-2.3327,-2.3148,-2.2686,-2.2686,-2.2497,-2.2307,-2.2307,-2.2298,-2.228,-2.228,-2.2375,-2.2595,-2.1744,-2.1518,-2.1649,-2.0588,-2.0339,-2.0498,-2.009,-2.0024,-2.0278,-2.097,-2.1581,-2.2034,-2.2355,-2.2752,-2.31,-2.3501,-2.3845,-2.4186,-2.4304,-2.4511,-2.4653,-2.4653,-2.4653,-2.4653,-2.4653,-2.4524,-2.4406,-2.4198,-2.3923,-2.3604,-2.327,-2.1204,-1.9366,-1.9126,-1.8509,-1.7884,-1.7357,-1.6991,0.0,-1.5836,-1.5707,-1.5295,-1.4279,-1.3975,-1.3572,-1.2731,-1.2001,-1.1358,-1.0681,-1.0072,-0.93,-0.8303,-0.8112,-0.7554,-0.6556,-0.5631,-0.5096,-0.4959,0.0,0.0,0.0,0.0,0.0,0.0,0.0,0.0,0.0,0.0,0.0,0.0,0.0,0.0,0.0,0.0,0.0,0.0,0.0,0.0,0.0,0.0,-2.2705,-2.1632,-2.2162,-2.267,-2.2789,-2.3342,-2.3699,-2.3709,-2.4011,-2.4196,-2.4145,-2.4374,-2.4356,-2.4087,-2.4131,-2.4074,-2.3798,-2.4022,-2.4051,-2.4051,-2.4343,-2.4291,-2.3999,-2.3999,-2.391,-2.3617,-2.3617,-2.3463,-2.3181,-2.3181,-2.3026,-2.2838,-2.2619,-2.2528,-2.2465,-2.1105,-2.0771,-2.0995,-2.1215,-2.153,-2.1783,-2.1603,-2.1712,-2.1876,-2.1798,-2.2023,-2.2355,-2.2775,-2.31,-2.3447,-2.3646,-2.3857,-2.3989,-2.3989,-2.3989,-2.3989,-2.3989,-2.3857,-2.3725,-2.3658,-2.3392,-2.3056,-2.2989,-2.2214,-2.1327,-2.0631,-1.9771,-1.9028,-1.8627,0.0,0.0,-1.7012,-1.6449,-1.5898,-1.5304,-1.451,-1.3933,-1.3697,-1.2619,-1.1811,0.0,-1.0595,-0.9821,-0.9321,-0.8629,-0.7924,-0.7185,-0.6614,-0.6225,0.0,0.0,0.0,0.0,0.0,0.0,0.0,0.0,0.0,0.0,0.0,0.0,0.0,0.0,0.0,0.0,0.0,0.0,0.0,0.0,0.0,0.0,-2.4219,-2.4464,-2.3985,-2.4136,-2.4326,-2.4697,-2.5035,-2.5285,-2.5221,-2.5378,-2.5506,-2.5411,-2.5757,-2.5916,-2.5804,-2.5793,-2.5604,-2.5498,-2.5469,-2.5398,-2.5299,-2.5538,-2.5452,-2.5252,-2.5252,-2.5051,-2.4868,-2.4868,-2.4638,0.0,-2.4308,-2.4088,-2.3703,-2.3529,-2.3354,0.0,0.0,0.0,0.0,0.0,-2.2036,-2.233,-2.2066,-2.219,-2.2389,-2.235,-2.2613,-2.3054,-2.3274,-2.3561,-2.3745,-2.3968,-2.4026,-2.4068,-2.4136,-2.4148,-2.4148,-2.4148,-2.4068,-2.3999,-2.3999,-2.3792,-2.3584,-2.3584,0.0,0.0,-2.1967,-2.1046,-2.0268,-1.9839,-1.9274,-1.872,0.0,-1.7398,-1.6721,-1.6038,-1.5402,-1.4749,-1.4119,-1.3384,0.0,0.0,0.0,-1.0677,-0.9962,-0.8975,0.0,0.0,0.0,-0.702,0.0,0.0,0.0,0.0,-0.4451,-0.4119,0.0,0.0,0.0,0.0,0.0,0.0,0.0,0.0,0.0,0.0,0.0,0.0,0.0,0.0,0.0,0.0,-2.5624,-2.6177,-2.6801,-2.634,-2.6135,-2.6693,-2.6661,-2.6614,-2.6907,-2.6721,-2.6545,-2.6557,-2.6904,-2.712,-2.7319,0.0,0.0,0.0,0.0,-2.691,-2.6695,-2.6695,-2.649,-2.6275,-2.6275,-2.6078,-2.5891,-2.5891,-2.5683,-2.5466,-2.5466,-2.5273,-2.4914,-2.4546,-2.4319,-2.3923,-2.2899,-2.2507,-2.2511,-2.2204,-2.2197,0.0,0.0,0.0,0.0,-2.3416,-2.3908,-2.4375,-2.4385,-2.447,-2.4661,-2.4812,-2.4791,-2.4664,-2.4821,-2.4894,-2.4894,-2.4894,-2.4894,-2.4882,-2.4811,-2.4655,-2.456,-2.4502,-2.3833,-2.3228,-2.3003,-2.2214,-2.1441,-2.0857,-2.0229,0.0,-1.8943,-1.8389,-1.7639,-1.6596,0.0,0.0,-1.4464,-1.4208,-1.3563,-1.2373,-1.2193,-1.1561,-1.0302,-0.9325,-0.871,-0.8595,-0.8003,-0.7605,-0.7339,-0.7049,-0.6838,-0.6622,-0.5547,-0.5041,0.0,0.0,0.0,0.0,0.0,0.0,0.0,0.0,0.0,0.0,0.0,0.0,0.0,0.0,0.0,-2.66,-2.7208,-2.7962,-2.9103,-2.8959,-2.8466,-2.7796,-2.785,-2.8179,-2.8559,-2.855,-2.8502,-2.8488,-2.8297,-2.8191,-2.8064,-2.8045,0.0,-2.7389,-2.7399,-2.7206,-2.691,-2.691,-2.6807,-2.649,0.0,0.0,-2.6078,-2.6078,-2.6069,-2.6078,-2.6078,-2.6031,-2.5946,-2.5871,-2.5399,-2.4752,-2.3994,-2.3486,-2.3185,-2.3397,-2.3248,-2.2982,-2.3066,-2.3165,-2.3184,-2.3426,-2.3668,-2.3977,-2.4306,-2.4535,0.0,-2.4915,-2.509,-2.5264,-2.5264,-2.5417,-2.5505,-2.5505,-2.5505,-2.5378,-2.4941,-2.4849,-2.4733,-2.4342,-2.412,-2.3895,-2.3531,-2.2446,-2.1522,-2.1231,-2.0734,-2.0182,-1.9671,-1.9004,-1.8369,-1.7726,-1.6882,-1.6211,-1.5933,-1.4757,-1.397,-1.3701,-1.2707,-1.167,-1.0805,-1.0188,-0.9821,-0.9599,-0.8935,-0.8459,-0.8164,-0.781,-0.7401,-0.7056,-0.6283,-0.5925,0.0,0.0,0.0,0.0,0.0,0.0,0.0,0.0,0.0,0.0,0.0,-2.5154,0.0,0.0,-2.7185,-2.8195,-2.8781,-2.937,-3.0101,-3.0278,-2.9958,-2.9338,-2.9336,-2.9299,-2.9429,-2.946,-2.9388,-2.9321,-2.9251,-2.9154,-2.9075,-2.8973,-2.8777,-2.8468,-2.8167,-2.7969,-2.7865,-2.7761,-2.7542,-2.7437,-2.7437,-2.7332,-2.7008,-2.7008,-2.7008,-2.6797,-2.6797,-2.6683,-2.6485,-2.6473,-2.6015,-2.5522,-2.5286,-2.4685,-2.3736,-2.401,-2.4018,-2.3977,-2.3931,-2.3968,-2.4008,-2.4023,-2.4272,-2.4509,-2.4755,-2.4908,-2.4952,-2.5192,-2.5172,-2.506,-2.5317,-2.5472,-2.5549,-2.5716,-2.5716,-2.5647,-2.5371,-2.5314,-2.5164,-2.4659,-2.4556,-2.4402,-2.3858,-2.3117,-2.2435,-2.2074,-2.1509,-2.0988,-2.0554,-1.9697,-1.8924,-1.8429,-1.7668,-1.691,-1.6361,-1.4974,-1.4093,-1.4093,-1.2841,-1.1897,-1.1542,-1.0974,-1.052,-1.0234,-0.9861,-0.9472,-0.8949,-0.8685,-0.8326,-0.7898,-0.7398,-0.6974,0.0,0.0,0.0,0.0,0.0,0.0,0.0,0.0,-2.542,-2.637,-2.6693,-2.7113,-2.7975,-2.8335,-2.8763,-2.9504,-3.0135,-3.0606,-3.091,-3.114,-3.1143,-3.0951,-3.0591,-3.0275,-3.0154,-3.0065,-3.007,-3.0021,-2.9961,-3.0067,-3.0243,-3.0041,-2.9925,-2.9809,-2.9403,-2.9092,-2.8985,-2.876,-2.8653,-2.8545,-2.8457,-2.8301,-2.8076,-2.7999,-2.7853,-2.7539,-2.7539,-2.7349,-2.7122,-2.69,-2.6628,-2.6319,-2.6443,-2.5713,-2.4598,-2.4609,-2.4687,-2.4844,-2.4766,-2.4913,-2.502,-2.4732,-2.4922,-2.5317,-2.5221,-2.5279,-2.5398,-2.5562,-2.5264,-2.5103,-2.5442,-2.5611,-2.5768,-2.5924,-2.5924,-2.598,-2.5888,-2.5853,-2.5704,-2.5164,-2.4981,-2.4711,-2.4175,-2.3807,-2.3446,-2.2927,-2.2295,-2.1733,-2.1366,-2.0421,-1.9545,-1.8893,-1.8409,-1.7648,-1.6388,-1.518,-1.4383,-1.411,-1.3103,-1.2381,-1.2257,-1.1623,-1.1142,-1.0855,-1.0674,-1.0293,-0.9716,-0.9555,-0.9227,-0.8718,-0.8511,-0.7935,-2.1934,-2.3075,-2.4181,-2.4254,-2.5011,-2.5769,0.0,0.0,-2.7524,-2.8126,-2.8494,-2.8786,-2.9199,-2.9846,-3.0267,-3.0112,-3.0962,-3.1766,-3.2248,-3.2082,-3.2078,-3.223,-3.1384,-3.0985,-3.132,-3.1159,-3.1148,-3.1306,-3.1032,-3.104,-3.1195,-3.1215,-3.1096,-3.0738,-3.0748,-3.0419,-2.9887,-2.9776,-2.9656,-2.9424,-2.9033,-2.8848,-2.8729,-2.8457,-2.8184,-2.8184,-2.8184,-2.8155,-2.8077,-2.7764,-2.7568,-2.748,-2.71,-2.6712,-2.6447,-2.5674,-2.5232,-2.5178,-2.5412,-2.5653,-2.573,-2.5295,-2.5403,-2.5743,-2.5328,-2.5516,-2.5819,-2.5819,-2.5942,-2.6063,-2.6075,-2.6405,-2.6721,-2.6733,-2.6896,-2.6932,-2.6473,-2.6381,-2.6232,-2.5716,-2.5245,-2.4826,-2.4641,-2.4044,-2.353,-2.3298,-2.2883,-2.2391,-2.1754,-2.1261,-2.0535,-1.9304,-1.8824,-1.7966,-1.6407,-1.6012,-1.534,-1.4199,-1.3953,-1.3509,-1.2757,-1.2222,-1.1913,-1.167,-1.0965,-1.0572,-1.0479,-1.0201,-0.9826,-0.9198,-0.9198,-0.8658,-2.3851,-2.4711,0.0,0.0,-2.6719,-2.72,-2.7825,-2.8318,-2.8787,-2.9316,-2.9678,-3.0022,-3.047,-3.0812,-3.1228,0.0,-3.1999,-3.2363,-3.2879,-3.275,-3.2632,-3.2926,-3.2394,-3.2042,-3.2044,-3.1962,-3.1949,-3.2201,-3.1912,-3.1685,-3.1688,-3.148,-3.1371,-3.1251,-3.1011,-3.0781,-3.057,-3.0359,-3.0137,-2.9803,-2.9616,-2.9407,-2.9287,-2.9111,-2.8896,-2.8643,-2.8398,-2.8291,-2.8281,-2.8105,-2.7891,-2.7646,-2.7658,-2.7416,-2.7052,-2.6447,-2.623,-2.6205,-2.6043,-2.6115,-2.6206,-2.5751,-2.5962,-2.6285,-2.6083,-2.6185,-2.6321,-2.6321,-2.6209,-2.6074,-2.6157,-2.6479,-2.6727,-2.6891,-2.7067,-2.7174,-2.6955,-2.6909,-2.676,-2.6244,-2.5968,-2.5624,-2.4952,-2.4378,-2.3929,-2.3564,-2.3001,-2.2553,-2.2126,-2.165,-2.0772,-1.9384,-1.8803,-1.8139,-1.7107,-1.6499,-1.5882,-1.5164,-1.4668,-1.4119,-1.3443,-1.3083,-1.2666,-1.2277,-1.1827,-1.1412,-1.0982,-1.0814,-1.0422,-0.9946,-0.9653,-0.9233,-2.572,0.0,0.0,-2.7921,-2.827,-2.857,-2.934,-2.9629,-2.9845,-3.023,-3.0551,-3.0989,-3.1425,-3.1698,-3.2066,-3.2727,-3.2897,-3.2943,-3.3235,-3.3195,-3.3209,-3.3252,-3.3213,-3.3044,-3.286,-3.2751,-3.2659,-3.2804,-3.2619,-3.2466,-3.2175,-3.1965,-3.1864,-3.1754,-3.1501,-3.1379,-3.1268,-3.1055,-3.0842,-3.0495,-3.0264,-3.0092,-2.9858,-2.9741,-2.9336,-2.8896,-2.8603,-2.8398,-2.8291,-2.8291,-2.8221,-2.8052,-2.8147,-2.8078,-2.7752,-2.7543,-2.7269,-2.7013,-2.6658,-2.6588,-2.6682,-2.6216,-2.6435,-2.6796,-2.6657,-2.6646,-2.6824,-2.6824,-2.6474,-2.6103,-2.6271,-2.6412,-2.6644,-2.6809,-2.6974,-2.7231,-2.7231,-2.7231,-2.7116,-2.6749,-2.6565,-2.6221,-2.5474,-2.4816,-2.4284,-2.385,-2.3238,-2.2703,-2.2402,-2.1702,-2.0803,-1.9727,-1.9049,-1.8379,-1.7748,-1.7073,-1.6464,-1.5909,-1.5358,-1.4772,-1.4136,-1.3763,-1.3328,-1.2827,-1.2545,-1.2119,-1.1571,-1.139,-1.1041,-1.0603,-1.0201,-0.9785,-2.7212,0.0,-2.857,-2.9112,-2.9641,-3.0025,-3.0062,-3.0458,-3.0831,-3.0855,-3.1276,-3.1716,-3.2051,-3.2507,-3.2865,-3.2881,-3.3319,-3.3557,-3.3281,-3.3683,-3.3879,-3.3594,-3.3724,-3.3994,0.0,-3.3526,-3.3138,-3.3289,-3.3321,-3.3204,-3.3119,-3.3151,-3.3037,-3.2696,-3.2685,-3.2571,-3.2207,-3.2207,-3.2092,-3.1747,-3.0983,-3.067,-3.065,-2.9878,-2.9336,-2.8916,-2.8906,-2.8672,-2.8291,-2.8291,-2.8398,-2.8717,-2.8717,-2.8765,-2.889,-2.888,-2.8299,-2.7559,-2.7301,-2.7241,-2.7169,-2.6703,-2.6928,-2.7221,-2.6764,-2.6961,-2.7293,-2.7293,-2.6966,-2.6605,-2.6605,-2.6583,-2.6644,-2.6644,-2.6891,-2.7231,-2.7231,-2.7231,-2.7219,-2.7208,-2.6806,-2.6462,-2.6427,-2.5281,-2.4397,-2.4385,-2.3608,-2.2852,-2.2478,-2.1563,-2.0849,-2.0595,-1.9826,-1.8947,-1.8166,-1.7915,-1.7287,-1.6156,-1.5891,-1.5428,-1.4706,-1.4162,-1.3705,-1.3371,-1.2851,-1.249,-1.229,-1.1911,-1.1561,-1.1063,-1.0936,-1.0422,-2.8312,0.0,-2.983,-3.029,-3.0482,-3.0699,-3.106,-3.1264,-3.1396,-3.1396,-3.1541,-3.1829,-3.2292,-3.2647,-3.2983,-3.3397,-3.3527,-3.3679,-3.358,-3.3795,-3.4028,-3.406,-3.4441,0.0,0.0,0.0,0.0,-3.4018,-3.3939,-3.3802,-3.3749,-3.342,-3.3193,-3.3079,-3.2851,-3.2612,-3.2612,-3.2612,-3.2373,-3.2133,-3.1637,-3.1347,-3.1097,-3.0547,-3.0148,-2.9736,-2.916,-2.8957,-2.9036,-2.8739,-2.8717,-2.9036,-2.9248,-2.9367,-2.9299,-2.9209,-2.9013,-2.8631,-2.7966,-2.7696,-2.7624,-2.7169,-2.74,-2.7742,-2.7583,-2.7683,-2.7796,-2.7796,-2.7446,-2.7075,-2.7075,-2.6887,-2.6863,-2.7054,-2.7058,-2.7067,-2.7149,-2.7231,-2.7231,-2.7231,-2.7093,-2.6771,-2.6337,-2.569,-2.5016,-2.4051,-2.3156,-2.2553,-2.2402,-2.1748,-2.11,-2.0666,-2.0178,-1.9605,-1.8759,-1.8247,-1.775,-1.704,-1.6558,-1.6029,-1.5254,-1.4982,-1.4476,-1.3722,-1.3337,-1.2915,-1.2498,-1.2243,-1.1935,-1.1576,-1.1293,-1.0785,-2.9438,-3.0196,-3.0918,-3.1295,-3.1428,-3.1513,-3.1765,-3.1849,-3.1761,-3.1749,-3.1661,-3.1841,-3.2394,-3.2687,-3.2957,-3.3577,-3.3582,-3.3569,-3.3656,-3.407,-3.4303,-3.4425,-3.4956,0.0,0.0,0.0,0.0,-3.4502,-3.4311,-3.4199,-3.4097,-3.3759,-3.342,-3.3193,-3.2965,-3.2851,-3.2727,-3.2727,-3.2612,-3.2248,-3.2133,-3.1787,-3.1431,-3.1162,-3.0933,-3.0497,-2.9796,-2.952,-2.9461,-2.9013,-2.9036,-2.9343,-2.9554,-2.9659,-2.9733,-2.9559,-2.9549,-2.9415,-2.8493,-2.8059,-2.7872,-2.7593,-2.7757,-2.7998,-2.7998,-2.8157,-2.8298,-2.8298,-2.7949,-2.7566,-2.7566,-2.7393,-2.7245,-2.726,-2.7234,-2.7201,-2.7183,-2.7231,-2.7231,-2.7231,-2.7231,-2.7035,-2.6449,-2.6015,-2.5247,-2.3875,-2.3079,-2.2594,-2.2424,-2.1959,-2.14,-2.0898,-2.0697,-2.0206,-1.9348,-1.8829,-1.8253,-1.7666,-1.7115,-1.6517,-1.579,-1.5505,-1.5,-1.4309,-1.3847,-1.3345,-1.2867,-1.2553,-1.2243,-1.1988,-1.1707,-1.1189,-3.0614,-3.122,-3.1749,-3.2265,-3.24,-3.23,-3.2038,-3.2038,-3.1937,-3.1761,-3.1749,-3.1829,0.0,0.0,-3.2747,-3.3577,-3.348,-3.3391,-3.3709,-3.437,-3.4808,0.0,0.0,0.0,0.0,0.0,0.0,-3.4524,0.0,-3.4412,-3.4086,-3.4086,-3.3861,-3.3306,-3.3193,-3.3079,-3.2727,-3.2727,-3.2612,-3.2363,-3.2363,-3.2133,-3.1787,-3.1787,-3.1556,-3.1124,-3.0671,-3.0228,-2.9796,-2.9323,-2.9343,-2.9659,-2.9659,-2.9774,-2.9994,-2.9994,-2.9994,-2.987,-2.899,-2.8369,-2.7955,-2.7935,-2.7998,-2.7998,-2.7998,-2.8373,-2.8757,-2.8757,-2.8429,-2.808,-2.808,-2.7909,-2.77,-2.7406,-2.7516,-2.7515,-2.7286,-2.7242,-2.7231,-2.7231,-2.7149,-2.7056,-2.6891,-2.6065,-2.5098,-2.394,-2.3369,-2.2934,-2.2466,-2.2025,-2.1655,-2.1205,-2.1205,-2.0804,-1.9868,-1.9497,-1.891,-1.7884,-1.7451,-1.6974,-1.636,-1.579,-1.5385,-1.501,-1.4301,-1.373,-1.3451,-1.2851,-1.2498,-1.2305,-1.2182,-1.1639,-3.1506,-3.2017,-3.2377,-3.2438,-3.24,-3.2388,-3.23,-3.2313,-3.2213,-3.1937,-3.1937,-3.1898,0.0,0.0,0.0,-3.3287,-3.3529,0.0,-3.4005,-3.4664,0.0,-3.4796,0.0,-3.6059,-3.5852,-3.5632,0.0,0.0,-3.4646,-3.4524,-3.4412,-3.4199,-3.3985,-3.3872,-3.342,-3.3193,-3.3079,-3.2851,-3.2612,-3.2612,-3.2612,-3.2487,-3.2133,-3.2133,-3.1957,-3.1576,-3.0812,-3.051,-3.0557,-2.9774,-2.9669,-2.9889,-2.9889,-2.9994,-2.9994,-2.9994,-2.9994,-2.9963,-2.9725,-2.9114,-2.838,-2.8038,-2.7998,-2.7998,-2.7998,-2.8373,-2.8757,-2.8757,-2.8669,-2.8571,-2.8571,-2.8222,-2.8008,-2.8244,-2.7839,-2.7437,-2.7733,-2.7495,-2.7231,-2.7231,-2.6974,-2.6644,-2.6396,-2.5738,-2.5168,-2.4836,-2.3878,-2.2934,-2.2466,-2.2025,-2.1655,-2.1205,-2.1205,-2.1001,-2.042,-1.9736,-1.9033,-1.8495,-1.7805,-1.7169,-1.656,-1.6244,-1.586,-1.5368,-1.4629,-1.4126,-1.3777,-1.3099,-1.2683,-1.2498,-1.2305,-1.195,-3.1909,-3.2471,-3.281,-3.2736,-3.2736,-3.2649,-3.2562,-3.2377,-3.2118,-3.1846,-3.1577,0.0,-3.1148,0.0,0.0,0.0,0.0,0.0,-3.3859,-3.4626,-3.5109,0.0,-3.5776,0.0,-3.6059,-3.5852,-3.5632,0.0,-3.498,-3.4646,-3.4524,-3.4311,-3.4199,-3.4086,-3.3759,-3.342,-3.3193,-3.2851,-3.2727,-3.2727,-3.2727,-3.2612,-3.2487,-3.2487,-3.2373,-3.2092,0.0,-3.1031,-3.1059,-3.0144,-2.9879,-2.9994,-2.9994,-2.9994,-2.9994,-2.9994,-2.9994,-2.9994,-2.9994,-2.9528,-2.8835,-2.838,-2.8206,-2.8264,-2.8051,-2.8373,-2.8757,-2.8757,-2.8757,-2.8757,-2.8757,-2.856,-2.839,-2.8622,-2.8175,-2.7656,-2.7939,-2.7587,-2.7149,-2.7067,-2.6809,-2.6479,-2.624,-2.5843,-2.5415,-2.5207,-2.4384,-2.3477,-2.2807,-2.2161,-2.1655,-2.1205,-2.1205,-2.1051,-2.0644,-2.0043,-1.9497,-1.8995,-1.8285,-1.7578,-1.6892,-1.6501,-1.6105,-1.5756,-1.5103,-1.452,-1.4092,-1.3589,-1.3083,-1.2683,-1.2552,-1.224,-3.2235,-3.2777,-3.3154,-3.3081,-3.3081,-3.3056,-3.271,-3.2239,-3.1878,-3.1538,0.0,-3.067,-3.0516,-3.0822,-3.1234,-3.1653,0.0,-3.2935,-3.3601,-3.4522,-3.5165,-3.5201,-3.5825,-3.6306,-3.6266,-3.6059,-3.5852,-3.5852,-3.5423,-3.498,-3.4635,-3.4524,-3.4412,-3.4086,-3.4086,-3.3861,-3.3193,-3.2955,-3.2727,-3.2727,-3.2727,-3.2727,-3.2727,-3.2727,-3.2727,-3.2685,0.0,0.0,-3.1309,-3.0377,-2.9994,-2.9994,-2.9994,-2.9994,-2.9994,-2.9994,-2.9994,-2.9994,-2.9994,-2.9735,-2.9413,-2.8856,-2.8743,-2.8625,-2.8211,-2.8427,-2.8757,-2.8757,-2.8757,-2.8757,-2.8757,-2.8757,-2.8833,-2.8778,-2.8399,-2.8094,-2.8099,-2.7633,-2.7138,-2.6891,-2.6727,-2.6479,-2.624,-2.599,-2.5753,-2.5327,-2.4869,-2.42,-2.3402,-2.2443,-2.1727,-2.1215,-2.1205,-2.1051,-2.0644,-2.042,-2.0004,-1.9364,-1.8714,-1.8073,-1.7243,-1.6696,-1.6272,-1.6132,-1.5549,-1.4967,-1.4469,-1.4098,-1.353,-1.2867,-1.2867,-1.2514,-3.298,-3.3237,-3.3313,-3.3154,-3.3081,-3.2955,-3.2381,-3.2206,0.0,0.0,-3.1063,-3.0918,-3.067,-3.0589,-3.081,-3.178,0.0,0.0,0.0,0.0,-3.474,0.0,0.0,0.0,0.0,0.0,0.0,0.0,0.0,0.0,-3.498,-3.4646,-3.4412,-3.4086,-3.4086,-3.3861,-3.3193,-3.3193,-3.2965,-3.2727,-3.2727,-3.2727,-3.2727,-3.2727,-3.2727,-3.2685,0.0,0.0,-3.1309,-3.0377,-2.9994,-2.9994,-2.9994,-2.9994,-2.9994,-2.9994,-2.9994,-2.9994,-2.9994,-3.0037,-3.0088,-2.9628,-2.9105,-2.8689,-2.8913,-2.8896,-2.8757,-2.8757,-2.8757,-2.8757,-2.8757,-2.8757,-2.8921,-2.9282,-2.8981,-2.8577,-2.8603,-2.7862,-2.7056,-2.6727,-2.6633,-2.6479,-2.6063,-2.5895,-2.5874,-2.5786,-2.5085,-2.4424,-2.4275,-2.3202,-2.2076,-2.1245,-2.1205,-2.1051,-2.0644,-2.042,-2.0004,-1.9364,-1.8714,-1.8146,-1.7442,-1.689,-1.6473,-1.6272,-1.5764,-1.5186,-1.4684,-1.4162,-1.3655,-1.318,-1.305,-1.2826,-3.3263,-3.3556,-3.3556,-3.3484,-3.3183,-3.2916,-3.2541,0.0,0.0,0.0,-2.9949,-2.9546,-2.9584,0.0,0.0,0.0,0.0,0.0,0.0,0.0,0.0,0.0,0.0,0.0,0.0,0.0,0.0,0.0,0.0,0.0,-3.4991,-3.4646,-3.4412,-3.4311,-3.4199,-3.3974,-3.3646,-3.3306,-3.3079,-3.2965,-3.2727,-3.2727,-3.2727,-3.2727,-3.2727,-3.2685,0.0,0.0,-3.1309,-3.0377,-2.9994,-2.9994,-2.9994,-2.9994,-2.9994,-2.9994,-2.9994,-2.9994,-3.0193,-3.0287,-3.0453,-3.0437,-2.9938,-2.9235,-2.9096,-2.8961,-2.8757,-2.8757,-2.8757,-2.8757,-2.8757,-2.885,-2.9035,-2.9393,-2.9094,-2.8669,-2.8351,-2.7748,-2.7067,-2.6644,-2.6644,-2.6479,-2.5979,-2.5895,-2.5895,-2.5895,-2.5355,-2.4764,-2.4519,-2.3499,-2.2518,-2.1686,-2.1346,-2.1051,-2.0644,-2.0489,-2.0246,-1.9667,-1.8976,-1.8313,-1.7825,-1.7008,-1.6533,-1.6473,-1.6017,-1.5608,-1.51,-1.459,-1.4077,-1.358,-1.3325,-1.305,-3.336,-3.372,-3.3784,-3.3572,-3.3239,-3.2746,-3.2199,-3.1093,0.0,0.0,-2.8799,-2.8235,-2.8425,0.0,-2.9448,0.0,-3.0992,0.0,0.0,0.0,0.0,0.0,0.0,0.0,0.0,0.0,0.0,0.0,0.0,0.0,0.0,-3.4758,-3.4524,-3.4524,-3.4311,-3.4199,-3.4086,-3.3646,-3.3306,-3.3193,-3.2965,-3.2737,-3.2727,-3.2727,-3.2675,-3.254,0.0,0.0,0.0,-3.0336,-2.9994,-2.9994,-2.9994,-2.9994,-2.9994,-2.9994,-2.9994,-3.0088,-3.0287,-3.0495,-3.0599,-3.1023,-3.0658,-2.9893,-2.9505,-2.9113,-2.8888,-2.8872,-2.8757,-2.8757,-2.8757,-2.8943,-2.922,-2.9497,-2.9092,-2.8597,-2.8218,-2.7656,-2.7067,-2.6644,-2.6644,-2.6479,-2.5979,-2.5895,-2.5895,-2.5895,-2.5464,-2.5062,-2.469,-2.3761,-2.2888,-2.222,-2.1537,-2.1051,-2.0722,-2.0644,-2.0411,-2.002,-1.9241,-1.8648,-1.8193,-1.727,-1.6763,-1.6603,-1.6263,-1.5948,-1.5504,-1.493,-1.4413,-1.3958,-1.3532,-1.3233,-3.3144,-3.3687,-3.3875,-3.3123,-3.2969,-3.2521,-3.088,0.0,0.0,-2.8781,-2.8417,-2.8366,-2.8172,-2.8475,-2.8872,-2.939,0.0,-3.1126,0.0,0.0,0.0,0.0,0.0,0.0,0.0,0.0,0.0,0.0,0.0,0.0,0.0,-3.4991,-3.4758,-3.4524,-3.4524,-3.4311,-3.4086,-3.4086,-3.3759,-3.3193,-3.3193,-3.2965,-3.2727,-3.2727,-3.2499,-3.2075,0.0,0.0,0.0,-3.0201,-2.9994,-2.9994,-2.9994,-2.9994,-2.9994,-2.9994,-3.0193,-3.0391,-3.0391,-3.0703,-3.1127,-3.123,-3.0874,-3.0356,-3.0188,-2.9805,-2.9325,-2.8877,-2.8757,-2.8757,-2.8757,-2.8943,-2.922,-2.9703,-2.9281,-2.8689,-2.8643,-2.7897,-2.7067,-2.6644,-2.6644,-2.6479,-2.5979,-2.5895,-2.5895,-2.5895,-2.5464,-2.5179,-2.5136,-2.4042,-2.3093,-2.2808,-2.1876,-2.1138,-2.0906,-2.0731,-2.0489,-2.0264,-1.9602,-1.8948,-1.8425,-1.7751,-1.7195,-1.6612,-1.6412,-1.6017,-1.5504,-1.493,-1.4487,-1.4084,-1.3691,-1.3407,-3.2856,-3.3275,-3.3313,-3.2862,-3.2291,-3.1526,-3.0701,0.0,-2.8787,-2.8196,-2.778,-2.7583,-2.7784,-2.794,-2.8348,-2.9257,-2.9918,0.0,0.0,0.0,0.0,0.0,0.0,0.0,0.0,0.0,0.0,0.0,0.0,0.0,0.0,-3.5202,-3.4991,-3.4758,-3.4646,-3.4412,-3.4311,-3.4199,-3.3974,-3.3759,-3.3523,-3.3409,-3.3296,-3.3069,-3.2705,-3.2246,0.0,0.0,0.0,-3.018,-2.9994,-2.9994,-2.9994,-3.0099,-3.0193,-3.0193,-3.0401,-3.0609,-3.0817,-3.1023,-3.123,-3.1424,-3.1294,-3.1001,-3.0439,-2.9871,-2.9379,-2.8888,-2.8757,-2.885,-2.8943,-2.9324,-2.9691,-2.9954,-2.9598,-2.9091,-2.8769,-2.8161,-2.7504,-2.67,-2.6644,-2.6479,-2.5979,-2.5895,-2.5895,-2.5895,-2.5464,-2.52,-2.52,-2.4063,-2.3184,-2.3103,-2.1974,-2.1128,-2.0906,-2.0731,-2.0489,-2.0342,-1.964,-1.8995,-1.8425,-1.7788,-1.7241,-1.676,-1.6612,-1.6401,-1.6171,-1.5528,-1.4944,-1.4547,-1.4104,-1.368,-3.2087,-3.2431,-3.2447,-3.2121,-3.1478,-3.0721,0.0,0.0,-2.8019,-2.7533,-2.722,-2.7088,-2.7181,-2.743,-2.7961,-2.8925,-2.9679,-3.0597,-3.1847,0.0,0.0,0.0,0.0,0.0,0.0,0.0,0.0,0.0,0.0,0.0,0.0,-3.5533,-3.5202,-3.4991,-3.4758,-3.4635,-3.4524,-3.4311,-3.4199,-3.4086,-3.3861,-3.3738,-3.3625,-3.3261,-3.2833,0.0,0.0,0.0,0.0,-3.0339,-3.0203,-3.0203,-3.0203,-3.0308,-3.0505,-3.0505,-3.0713,-3.0931,-3.1127,-3.123,-3.1322,-3.1527,-3.1618,-3.1444,-3.0504,-2.9969,-2.9565,-2.8932,-2.885,-2.8943,-2.922,-2.9611,-2.9977,-3.0136,-2.9848,-2.9355,-2.8815,-2.8322,-2.7744,-2.6817,-2.6644,-2.6479,-2.5979,-2.5895,-2.5895,-2.5895,-2.5464,-2.52,-2.52,-2.4063,-2.3184,-2.3184,-2.1974,-2.1128,-2.0984,-2.0731,-2.0566,-2.042,-1.9908,-1.9269,-1.8499,-1.8044,-1.7502,-1.6917,-1.6682,-1.6603,-1.6603,-1.5952,-1.5361,-1.4894,-1.44,-1.395,-3.0645,-3.107,-3.1362,-3.0791,-3.05,-3.0124,0.0,0.0,-2.7991,-2.6673,-2.6893,-2.702,-2.6255,-2.6965,-2.7779,-2.835,-2.9426,0.0,-3.1754,0.0,0.0,0.0,0.0,0.0,0.0,0.0,0.0,0.0,0.0,0.0,0.0,0.0,-3.5533,-3.4991,-3.4991,-3.4869,-3.4524,-3.4524,-3.4412,-3.4086,-3.4086,-3.3974,-3.3614,-3.3146,0.0,0.0,0.0,0.0,0.0,-3.0838,-3.0838,-3.0838,-3.0838,-3.0827,-3.0838,-3.0838,-3.0931,-3.123,-3.123,-3.1322,-3.1618,-3.1618,-3.1618,-3.1444,-3.0504,-3.0209,-3.0002,-2.903,-2.8943,-2.9231,-2.9794,-2.9886,-2.9977,-3.0136,-2.9848,-2.9355,-2.8815,-2.8322,-2.7744,-2.6817,-2.6644,-2.6479,-2.5979,-2.5895,-2.5895,-2.5895,-2.5464,-2.52,-2.52,-2.4063,-2.3184,-2.3184,-2.1974,-2.1205,-2.1205,-2.0809,-2.0566,-2.0566,-2.0411,-1.9793,-1.872,-1.8471,-1.7942,-1.6927,-1.6682,-1.6603,-1.6603,-1.6079,-1.5486,-1.4894,-1.4536,-1.4082,-3.0086,-3.0365,-3.0458,-3.0144,-2.9728,-2.9273,-2.8902,0.0,-2.7236,-2.6817,-2.6817,-2.6765,-2.6388,-2.6902,-2.7588,-2.8274,-2.9328,0.0,0.0,0.0,0.0,0.0,0.0,0.0,0.0,0.0,0.0,0.0,0.0,0.0,0.0,0.0,-3.595,-3.5522,-3.5202,-3.4991,-3.4869,-3.4635,-3.4412,-3.4412,-3.4412,-3.4126,-3.369,-3.3308,0.0,0.0,0.0,0.0,0.0,-3.0838,-3.0838,-3.0838,-3.0838,-3.0931,-3.1023,-3.1023,-3.123,-3.1424,-3.1424,-3.1527,-3.1618,-3.1618,-3.1618,-3.1444,-3.0504,-3.0209,-3.0002,-2.9217,-2.9324,-2.9703,-2.9897,-2.9966,-3.0136,-3.0216,-3.0101,-2.9848,-2.9355,-2.8838,-2.8236,-2.724,-2.6786,-2.6479,-2.5979,-2.5895,-2.5895,-2.5895,-2.5464,-2.5083,-2.4753,-2.3864,-2.307,-2.2749,-2.1947,-2.1359,-2.1205,-2.0809,-2.0566,-2.0566,-2.042,-1.9803,-1.872,-1.8471,-1.7951,-1.6927,-1.683,-1.683,-1.683,-1.6486,-1.5945,-1.5106,-1.46,-1.4153,-2.8682,-2.8942,-2.8876,-2.8705,-2.8357,0.0,0.0,0.0,-2.6598,-2.6324,-2.6551,-2.6673,-2.6271,-2.6817,-2.7588,-2.8451,-2.9414,0.0,0.0,0.0,0.0,0.0,0.0,0.0,0.0,0.0,0.0,0.0,0.0,0.0,0.0,0.0,-3.6168,-3.595,-3.5522,-3.5202,-3.4991,-3.4758,-3.4547,-3.425,-3.425,-3.3988,-3.3508,0.0,0.0,0.0,0.0,0.0,0.0,-3.1127,-3.1127,-3.1127,-3.1127,-3.123,-3.1322,-3.1322,-3.1424,-3.1618,-3.1618,-3.1618,-3.1618,-3.1618,-3.1378,-3.1041,-3.0274,-2.9913,-2.9723,-2.9491,-2.96,-2.9886,-2.9966,-3.0136,-3.0216,-3.0216,-3.0216,-3.0089,-2.9596,-2.9079,-2.8465,-2.755,-2.697,-2.6479,-2.6074,-2.599,-2.5895,-2.5895,-2.5559,-2.5114,-2.4551,-2.378,-2.3088,-2.2542,-2.1932,-2.1436,-2.1205,-2.0886,-2.0654,-2.0566,-2.0489,-1.9956,-1.8877,-1.8618,-1.8015,-1.7056,-1.6968,-1.6908,-1.6908,-1.6537,-1.5995,-1.5301,-1.4718,-1.4268,0.0,-2.6914,-2.6963,0.0,0.0,0.0,0.0,0.0,0.0,-2.5368,-2.6087,-2.663,-2.5916,-2.6661,-2.7695,-2.8821,0.0,0.0,0.0,0.0,0.0,0.0,0.0,0.0,0.0,0.0,0.0,0.0,0.0,0.0,0.0,0.0,0.0,-3.6266,-3.5916,-3.5598,-3.5091,-3.4947,-3.4582,-3.3792,-3.3759,-3.3486,-3.3005,0.0,0.0,0.0,0.0,0.0,0.0,-3.1618,-3.1618,-3.1618,-3.1618,-3.1618,-3.1618,-3.1618,-3.1618,-3.1618,-3.1618,-3.1618,-3.1618,-3.1586,-3.113,-3.0466,-3.0119,-2.9537,-2.922,-2.9794,-2.9886,-2.9977,-3.0136,-3.0216,-3.0216,-3.0216,-3.0216,-3.0089,-2.9642,-2.9102,-2.8477,-2.7827,-2.7076,-2.6479,-2.624,-2.6063,-2.5895,-2.5895,-2.5728,-2.5292,-2.4551,-2.3932,-2.3248,-2.2542,-2.1932,-2.1436,-2.1205,-2.0984,-2.0819,-2.0644,-2.0566,-2.0109,-1.9043,-1.8839,-1.8222,-1.7254,-1.6968,-1.6908,-1.6908,-1.6397,-1.593,-1.5486,-1.4917,-1.44,-2.5326,0.0,-2.7129,-2.6963,-2.6903,-2.6843,0.0,-2.6263,-2.5767,0.0,0.0,0.0,0.0,0.0,0.0,0.0,0.0,0.0,0.0,0.0,0.0,0.0,0.0,0.0,0.0,0.0,0.0,0.0,0.0,0.0,0.0,0.0,0.0,-3.6277,-3.5791,-3.5563,-3.5632,-3.4812,-3.4338,-3.4108,-3.3517,-3.2994,-3.2536,0.0,0.0,0.0,0.0,0.0,-3.1618,-3.1618,-3.1618,-3.1618,-3.1618,-3.1618,-3.1618,-3.1618,-3.1618,-3.1618,-3.1618,-3.1618,-3.1564,-3.1405,-3.0745,-3.013,-3.0375,-3.0086,-2.9703,-2.9886,-2.9966,-3.0136,-3.0216,-3.0216,-3.0216,-3.0216,-3.0216,-3.0181,-3.0078,-2.9332,-2.858,-2.8316,-2.7324,-2.6479,-2.624,-2.6063,-2.5895,-2.5895,-2.5728,-2.5292,-2.4551,-2.3932,-2.3248,-2.2542,-2.201,-2.1655,-2.1436,-2.1128,-2.0819,-2.0644,-2.0566,-2.0109,-1.9043,-1.8931,-1.8385,-1.7254,-1.6968,-1.6908,-1.6908,-1.6738,-1.6327,-1.5624,-1.5396,-1.4926,-2.4878,-2.5743,-2.6491,-2.6332,-2.6332,-2.6274,-2.6099,-2.6,-2.5828,0.0,0.0,0.0,0.0,0.0,0.0,0.0,0.0,0.0,0.0,0.0,0.0,0.0,0.0,0.0,0.0,0.0,0.0,0.0,0.0,0.0,0.0,0.0,0.0,0.0,-3.5557,-3.5321,-3.55,-3.4679,-3.4095,-3.3766,-3.3193,-3.2702,-3.2229,0.0,0.0,0.0,0.0,0.0,-3.1618,-3.1618,-3.1618,-3.1618,-3.1618,-3.1618,-3.1618,-3.1618,-3.1618,-3.1618,-3.1618,-3.1589,-3.1394,-3.08,-3.0504,-3.0214,-3.0258,-3.0182,-3.0057,-3.0057,-3.0136,-3.0216,-3.0216,-3.0216,-3.0216,-3.0216,-3.0216,-3.0216,-3.0216,-2.9412,-2.87,-2.8539,-2.7572,-2.6644,-2.6396,-2.6146,-2.599,-2.5895,-2.5812,-2.5471,-2.4634,-2.4013,-2.3398,-2.2542,-2.2087,-2.1731,-2.1512,-2.1282,-2.1051,-2.0731,-2.0644,-2.0264,-1.9461,-1.9184,-1.8457,-1.7332,-1.7107,-1.7038,-1.7038,-1.6978,-1.6587,-1.5973,-1.5716,-1.5242,-2.4787,-2.5342,-2.5617,-2.5578,-2.555,-2.5508,-2.5409,-2.5764,-2.6089,0.0,0.0,0.0,0.0,-2.8013,0.0,0.0,0.0,0.0,0.0,0.0,0.0,0.0,0.0,0.0,0.0,0.0,0.0,0.0,0.0,0.0,0.0,0.0,0.0,0.0,-3.5155,-3.4772,-3.4971,-3.4445,-3.3921,-3.3297,-3.2908,-3.255,-3.2026,-3.1823,0.0,0.0,0.0,0.0,-3.1618,-3.1618,-3.1618,-3.1618,-3.1618,-3.1618,-3.1618,-3.1618,-3.1575,-3.1498,-3.1433,-3.1295,-3.0964,-3.0252,-3.0202,-3.0419,-3.0102,-3.0057,-3.0216,-3.0216,-3.0216,-3.0216,-3.0216,-3.0216,-3.0216,-3.0216,-3.0216,-3.0216,-3.0216,-2.9481,-2.8792,-2.8712,-2.7786,-2.6888,-2.6655,-2.6396,-2.6157,-2.5895,-2.5895,-2.5576,-2.474,-2.4281,-2.3663,-2.2725,-2.219,-2.1803,-2.1589,-2.1512,-2.1359,-2.0984,-2.0731,-2.0419,-1.9844,-1.9203,-1.8471,-1.7548,-1.7314,-1.7235,-1.7166,-1.7038,-1.6697,-1.6312,-1.5881,-1.5478,-2.4461,-2.4915,-2.5353,-2.5604,-2.5688,-2.5772,-2.613,-2.6137,-2.627,-2.6804,0.0,0.0,0.0,-2.8811,0.0,0.0,0.0,0.0,0.0,0.0,0.0,0.0,0.0,0.0,0.0,0.0,0.0,0.0,0.0,0.0,0.0,0.0,0.0,0.0,0.0,-3.4358,-3.4131,-3.3856,-3.3674,-3.3492,-3.2858,-3.2521,-3.2443,-3.2342,-3.2229,0.0,0.0,-3.1823,-3.1618,-3.1618,-3.1618,-3.1618,-3.1618,-3.1618,-3.1618,-3.1618,-3.1356,-3.0952,-3.0844,-3.0585,-3.0343,-3.0469,-3.0235,-3.0079,-3.0159,-3.0216,-3.0216,-3.0216,-3.0216,-3.0216,-3.0216,-3.0216,-3.0216,-3.0216,-3.0216,-3.0216,-3.0216,-2.9768,-2.924,-2.8792,-2.806,-2.7284,-2.6712,-2.6396,-2.6157,-2.5895,-2.5895,-2.579,-2.5462,-2.4855,-2.4129,-2.3444,-2.2745,-2.2232,-2.1762,-2.1578,-2.1512,-2.1436,-2.1051,-2.0377,-1.9414,-1.8841,-1.8245,-1.7657,-1.752,-1.7392,-1.7166,-1.7166,-1.6834,-1.6312,-1.5881,-1.5478,-2.433,-2.4705,-2.5061,-2.5816,-2.6146,-2.6344,-2.6481,-2.692,-2.74,-2.7522,0.0,0.0,0.0,0.0,0.0,0.0,0.0,0.0,0.0,0.0,0.0,0.0,0.0,0.0,0.0,0.0,0.0,0.0,0.0,0.0,0.0,0.0,0.0,0.0,0.0,0.0,-3.3815,-3.3614,-3.3412,-3.3412,-3.2982,-3.2768,-3.2667,-3.2555,-3.2443,-3.2229,0.0,-3.2229,-3.2139,-3.2139,-3.2026,-3.1823,-3.1823,-3.1556,-3.1203,-3.1152,-3.1009,-3.0843,-3.0452,-3.0415,-3.0368,-3.0305,-3.0148,-3.0045,-3.0125,-3.0216,-3.0216,-3.0216,-3.0216,-3.0216,-3.0216,-3.0216,-3.0216,-3.0216,-3.0216,-3.0216,-3.0216,-2.9837,-2.9343,-2.8804,-2.8214,-2.7554,-2.6888,-2.6561,-2.6324,-2.6074,-2.5979,-2.5822,-2.5644,-2.4962,-2.4331,-2.3906,-2.3085,-2.2408,-2.2201,-2.1876,-2.1502,-2.1205,-2.0984,-2.0434,-1.9326,-1.9029,-1.855,-1.7872,-1.7725,-1.7579,-1.7442,-1.7382,-1.7151,-1.6751,-1.6122,-1.5725,-2.439,-2.4638,-2.4919,-2.625,-2.6747,-2.6849,-2.6946,-2.7684,-2.8413,0.0,0.0,0.0,0.0,0.0,0.0,0.0,0.0,0.0,0.0,0.0,0.0,0.0,0.0,0.0,0.0,0.0,0.0,0.0,0.0,0.0,0.0,0.0,0.0,0.0,0.0,0.0,-3.3679,-3.3481,-3.3381,-3.3281,-3.3092,-3.2992,-3.2992,-3.2768,-3.2588,-3.2375,-3.2375,-3.2308,-3.2107,-3.2107,-3.1995,-3.1784,-3.1784,-3.1362,-3.0877,-3.0599,-3.0604,-3.0729,-3.033,-3.0337,-3.0455,-3.0091,-3.0045,-3.0216,-3.0216,-3.0216,-3.0216,-3.0216,-3.0216,-3.0216,-3.0216,-3.0216,-3.0216,-3.0216,-3.0216,-3.0216,-3.0216,-2.9837,-2.9343,-2.8804,-2.831,-2.7733,-2.7065,-2.6809,-2.6561,-2.624,-2.6074,-2.5895,-2.5738,-2.5153,-2.4626,-2.4293,-2.3384,-2.2652,-2.2356,-2.2004,-2.1578,-2.1051,-2.0984,-2.0473,-1.9536,-1.9419,-1.8936,-1.8174,-1.791,-1.7774,-1.7706,-1.7588,-1.7461,-1.7226,-1.6515,-1.6057,-2.4644,-2.4785,-2.5034,-2.6957,-2.7185,-2.7145,-2.7739,-2.8138,-2.8725,-2.9895,0.0,0.0,0.0,0.0,0.0,0.0,0.0,0.0,0.0,0.0,0.0,0.0,0.0,0.0,0.0,0.0,0.0,0.0,0.0,0.0,0.0,0.0,0.0,0.0,0.0,0.0,-3.3679,-3.3679,-3.358,-3.3281,-3.3281,-3.3281,-3.3281,-3.3281,-3.2807,-3.2154,-3.2154,-3.1698,-3.099,-3.099,-3.099,-3.099,-3.099,-3.0968,-3.0879,-3.0376,-3.0375,-3.0589,-3.0113,-3.0023,-3.0171,-3.0227,-3.0216,-3.0216,-3.0216,-3.0216,-3.0216,-3.0216,-3.0216,-3.0216,-3.0216,-3.0216,-3.0216,-3.0216,-3.0216,-3.0216,-3.0216,-2.9837,-2.9343,-2.8804,-2.831,-2.7733,-2.7065,-2.6891,-2.6727,-2.624,-2.6157,-2.6074,-2.5895,-2.5706,-2.5249,-2.4541,-2.3819,-2.3029,-2.1921,-2.1828,-2.1731,-2.1512,-2.1138,-2.0678,-2.0183,-1.9566,-1.9072,-1.8603,-1.8203,-1.7862,-1.7706,-1.7706,-1.7579,-1.7461,-1.7025,-1.659,-2.4692,-2.4946,-2.5299,-2.7136,-2.7736,-2.8011,-2.8464,-2.928,-2.9954,-3.0224,-3.0671,0.0,0.0,0.0,0.0,0.0,0.0,0.0,0.0,0.0,0.0,0.0,0.0,0.0,0.0,0.0,0.0,0.0,0.0,0.0,0.0,0.0,0.0,0.0,0.0,0.0,0.0,-3.3648,-3.3289,-3.3082,-3.2886,-3.2787,-3.2776,-3.2477,-3.2225,-3.1945,-3.1945,-3.1746,-3.1467,-3.1456,-3.1264,-3.1134,-3.0639,-3.0611,-3.0649,-3.0154,-3.0147,-3.0296,-3.0114,-3.0136,-3.0216,-3.0216,-3.0216,-3.0216,-3.0216,-3.0216,-3.0216,-3.0397,-3.0487,-3.0487,-3.0487,-3.0487,-3.0487,-3.0691,-3.0589,-3.0487,-3.0487,-2.9926,-2.9343,-2.8804,-2.831,-2.7816,-2.7229,-2.6974,-2.6809,-2.6479,-2.6313,-2.6157,-2.5895,-2.5728,-2.5495,-2.5217,-2.4193,-2.3165,-2.2294,-2.1973,-2.1807,-2.1655,-2.1436,-2.0918,-2.0222,-1.9723,-1.9226,-1.8643,-1.8223,-1.794,-1.7862,-1.7862,-1.7794,-1.7638,-1.7226,-1.6739,-2.4761,-2.5077,-2.5506,-2.7559,-2.8291,-2.8713,-2.9497,-3.0225,-3.0835,-3.097,-3.1681,-3.2561,-3.3295,0.0,0.0,0.0,0.0,0.0,0.0,0.0,0.0,0.0,0.0,0.0,0.0,0.0,0.0,0.0,0.0,0.0,0.0,0.0,0.0,0.0,0.0,0.0,0.0,-3.3421,-3.3053,-3.2742,-3.2387,-3.2206,-3.2248,-3.1915,-3.1674,-3.1525,-3.1525,-3.1433,-3.1272,-3.126,-3.1167,-3.0944,-3.0416,-3.0269,-3.0409,-3.0091,-3.0045,-3.0216,-3.0216,-3.0216,-3.0216,-3.0216,-3.0216,-3.0216,-3.0216,-3.0216,-3.0397,-3.0578,-3.0668,-3.0769,-3.0758,-3.0758,-3.0769,-3.0972,-3.0871,-3.0769,-3.0769,-2.9989,-2.9236,-2.8867,-2.8268,-2.7633,-2.7288,-2.7067,-2.6891,-2.6727,-2.6479,-2.6229,-2.599,-2.5812,-2.5589,-2.526,-2.4341,-2.3395,-2.2553,-2.2211,-2.1963,-2.1818,-2.1655,-2.1283,-2.0657,-1.9939,-1.9357,-1.8909,-1.8291,-1.8008,-1.8008,-1.8008,-1.793,-1.7784,-1.7494,-1.6994,-2.4877,-2.5221,-2.5608,-2.8261,0.0,0.0,-3.0935,-3.1054,-3.109,-3.2159,-3.3028,-3.3762,-3.4142,0.0,0.0,0.0,0.0,0.0,0.0,0.0,0.0,0.0,0.0,0.0,0.0,0.0,0.0,0.0,0.0,0.0,0.0,0.0,0.0,0.0,0.0,0.0,0.0,-3.2911,-3.2712,-3.2524,-3.1716,-3.1553,-3.1766,-3.1754,-3.1479,-3.1008,-3.1008,-3.0709,-3.0216,-3.0216,-3.0216,-3.0216,-3.0216,-3.0216,-3.0216,-3.0216,-3.0216,-3.0216,-3.0216,-3.0216,-3.0216,-3.0216,-3.0216,-3.0216,-3.0216,-3.0397,-3.0578,-3.0578,-3.0781,-3.1062,-3.1217,-3.1139,-3.0984,-3.0984,-3.0984,-3.0984,-3.0972,-2.9986,-2.909,-2.9079,-2.8087,-2.7231,-2.7231,-2.7231,-2.7149,-2.6891,-2.6727,-2.6479,-2.624,-2.599,-2.5543,-2.4634,-2.4354,-2.375,-2.2584,-2.2501,-2.2304,-2.1838,-2.1807,-2.1731,-2.1502,-2.0256,-1.9568,-1.9568,-1.8577,-1.8008,-1.8008,-1.8008,-1.8008,-1.8008,-1.8008,-1.7549,-2.4908,-2.5349,0.0,-2.8316,0.0,0.0,0.0,-3.1775,0.0,0.0,-3.3656,-3.4021,-3.4794,0.0,0.0,0.0,0.0,0.0,0.0,0.0,0.0,0.0,0.0,0.0,0.0,0.0,0.0,0.0,0.0,0.0,0.0,0.0,0.0,0.0,0.0,0.0,0.0,0.0,-3.2444,-3.2236,-3.1612,-3.1375,-3.1507,-3.094,-3.0595,-3.0457,-3.0457,-3.0365,-3.0216,-3.0216,-3.0216,-3.0216,-3.0216,-3.0216,-3.0216,-3.0216,-3.0216,-3.0216,-3.0216,-3.0216,-3.0216,-3.0216,-3.0306,-3.0487,-3.0487,-3.0679,-3.0871,-3.1038,-3.1128,-3.1318,-3.1484,-3.1572,-3.1496,-3.1496,-3.1318,-3.1122,-3.0754,-2.9966,-2.9133,-2.8614,-2.7916,-2.7371,-2.7231,-2.7231,-2.7149,-2.6891,-2.6727,-2.6479,-2.6063,-2.5906,-2.5757,-2.5355,-2.4794,-2.4101,-2.3269,-2.2756,-2.2304,-2.1838,-2.1807,-2.1731,-2.1502,-2.0571,-1.9867,-1.964,-1.8715,-1.8144,-1.8008,-1.8008,-1.8008,-1.8008,-1.8008,-1.7549,-2.4986,-2.5458,0.0,-2.8355,-2.8961,-2.9478,-3.1665,0.0,0.0,0.0,0.0,0.0,0.0,0.0,0.0,0.0,0.0,0.0,0.0,0.0,0.0,0.0,0.0,0.0,0.0,0.0,0.0,0.0,0.0,0.0,0.0,0.0,0.0,0.0,0.0,0.0,0.0,0.0,0.0,-3.195,-3.155,-3.1293,-3.1328,-3.0638,-3.0306,-3.0216,-3.0216,-3.0216,-3.0216,-3.0216,-3.0216,-3.0216,-3.0216,-3.0216,-3.0216,-3.0216,-3.0216,-3.0216,-3.0216,-3.0216,-3.0216,-3.0306,-3.0487,-3.0578,-3.0769,-3.096,-3.1139,-3.1306,-3.1395,-3.1484,-3.1661,-3.1661,-3.1661,-3.1661,-3.1572,-3.134,-3.0727,-3.0117,-2.9341,-2.8739,-2.7964,-2.7441,-2.7371,-2.7219,-2.7149,-2.7067,-2.6809,-2.6479,-2.6063,-2.599,-2.5812,-2.5654,-2.5206,-2.4594,-2.3822,-2.328,-2.2652,-2.2108,-2.1901,-2.1731,-2.1655,-2.0718,-2.0093,-1.9867,-1.8854,-1.8269,-1.8144,-1.8144,-1.8076,-1.8008,-1.8008,-1.7646,-2.4942,-2.5525,0.0,-2.8429,-2.9148,0.0,-3.1723,-3.3386,-3.4483,-3.4309,0.0,0.0,0.0,0.0,0.0,0.0,0.0,0.0,0.0,0.0,0.0,0.0,0.0,0.0,0.0,0.0,0.0,0.0,0.0,0.0,0.0,0.0,0.0,0.0,0.0,0.0,0.0,0.0,0.0,0.0,-3.1484,-3.1306,-3.1306,-3.0847,-3.0487,-3.0216,-3.0216,-3.0216,-3.0216,-3.0216,-3.0216,-3.0216,-3.0216,-3.0216,-3.0216,-3.0216,-3.0216,-3.0216,-3.0216,-3.0216,-3.0306,-3.0578,-3.0668,-3.0668,-3.0972,-3.1139,-3.1306,-3.1306,-3.1484,-3.1661,-3.1661,-3.1661,-3.1661,-3.1661,-3.1661,-3.1504,-3.0927,-3.0264,-2.969,-2.9082,-2.8163,-2.7522,-2.7522,-2.729,-2.7231,-2.7149,-2.6809,-2.6479,-2.6229,-2.599,-2.5822,-2.5654,-2.5644,-2.5209,-2.4324,-2.378,-2.3228,-2.26,-2.2066,-2.1807,-2.1807,-2.0833,-2.0288,-2.0175,-1.9111,-1.8512,-1.8337,-1.8337,-1.8212,-1.8008,-1.8008,-1.7783,-2.3827,-2.4882,0.0,0.0,-3.019,-3.1941,-3.2126,-3.3536,-3.4811,0.0,0.0,0.0,0.0,0.0,0.0,0.0,0.0,0.0,0.0,0.0,0.0,0.0,0.0,0.0,0.0,0.0,0.0,0.0,0.0,0.0,0.0,0.0,0.0,0.0,0.0,0.0,-3.2038,-3.1761,-3.1661,0.0,-3.1661,-3.1484,-3.1306,-3.105,-3.0781,-3.0487,-3.0306,-3.0216,-3.0216,-3.0216,-3.0216,-3.0216,-3.0216,-3.0216,-3.0216,-3.0216,-3.0216,-3.0216,-3.0487,-3.0476,-3.0578,-3.0871,-3.105,-3.1128,-3.1217,-3.1395,-3.1572,-3.1572,-3.1661,-3.1661,-3.1661,-3.1661,-3.1661,-3.1661,-3.1661,-3.1408,-3.0458,-3.017,-2.9726,-2.8605,-2.8101,-2.7708,-2.7522,-2.729,-2.7149,-2.6974,-2.6727,-2.6479,-2.6229,-2.599,-2.5895,-2.5812,-2.5644,-2.5365,-2.4809,-2.4013,-2.3307,-2.2757,-2.2143,-2.1807,-2.1807,-2.1195,-2.0658,-2.0175,-1.9624,-1.9028,-1.8482,-1.8482,-1.8405,-1.8269,-1.8269,-1.7917,-2.3564,0.0,0.0,-2.818,0.0,-3.2232,-3.2312,-3.3427,0.0,0.0,0.0,0.0,0.0,0.0,0.0,0.0,0.0,0.0,0.0,0.0,0.0,0.0,0.0,0.0,0.0,0.0,0.0,0.0,0.0,0.0,0.0,0.0,0.0,0.0,0.0,0.0,-3.2213,-3.1937,-3.1761,-3.1661,-3.1408,-3.1069,-3.0754,-3.0927,-3.0883,-3.0781,-3.0601,-3.0601,-3.0601,-3.0601,-3.0601,-3.0601,-3.0601,-3.0601,-3.0601,-3.0601,-3.0601,-3.0601,-3.0781,-3.0769,-3.0871,-3.105,-3.1229,-3.1306,-3.1484,-3.1572,-3.1661,-3.1661,-3.1661,-3.1661,-3.1661,-3.1661,-3.1661,-3.1661,-3.1661,-3.1444,-3.0639,-3.0266,-2.9845,-2.8877,-2.8357,-2.795,-2.7708,-2.7383,-2.7149,-2.7056,-2.6809,-2.6561,-2.6396,-2.6063,-2.5895,-2.5895,-2.5812,-2.563,-2.5287,-2.4587,-2.3875,-2.3171,-2.2621,-2.2112,-2.1818,-2.158,-2.1061,-2.0309,-1.9856,-1.9336,-1.8607,-1.8607,-1.8549,-1.8414,-1.8414,-1.8218,-2.333,0.0,-2.6411,-2.8453,-3.0279,0.0,-3.2402,0.0,0.0,0.0,0.0,0.0,0.0,0.0,0.0,0.0,0.0,0.0,0.0,0.0,0.0,0.0,0.0,0.0,0.0,0.0,0.0,0.0,0.0,0.0,0.0,0.0,0.0,0.0,0.0,-3.2352,-3.2204,-3.1845,-3.1671,-3.1472,-3.0951,-3.0506,-3.0122,-3.0664,-3.0802,-3.0802,-3.0808,-3.0855,-3.0855,-3.0949,-3.0984,-3.0984,-3.0984,-3.0984,-3.0984,-3.0984,-3.0984,-3.0984,-3.1062,-3.1062,-3.1062,-3.1306,-3.1395,-3.1395,-3.1661,-3.1661,-3.1661,-3.1661,-3.1661,-3.1661,-3.1661,-3.1661,-3.1661,-3.1661,-3.1661,-3.1517,-3.0987,-3.053,-3.0037,-2.9412,-2.871,-2.8099,-2.7881,-2.7476,-2.7231,-2.7231,-2.6891,-2.6644,-2.6644,-2.6229,-2.5895,-2.5895,-2.5895,-2.5812,-2.5654,-2.52,-2.4562,-2.3689,-2.3066,-2.2516,-2.1904,-2.1807,-2.1414,-2.0565,-2.01,-1.9586,-1.8998,-1.8916,-1.8741,-1.8549,-1.8549,-1.8482,0.0,0.0,-2.6811,0.0,-2.9758,-3.1366,0.0,0.0,0.0,0.0,0.0,0.0,0.0,0.0,0.0,0.0,0.0,0.0,0.0,0.0,0.0,0.0,0.0,0.0,0.0,0.0,0.0,0.0,0.0,0.0,0.0,0.0,-3.1801,-3.1612,-3.146,0.0,-3.1307,-3.0819,-3.0567,-3.0567,-3.0314,-3.0158,-3.0098,-3.0145,-3.0132,-2.9901,-3.0201,-3.0314,-3.0349,-3.0796,-3.0984,-3.0984,-3.0984,-3.0984,-3.0984,-3.0984,-3.0984,-3.0984,-3.1229,-3.1217,-3.1306,-3.1572,-3.1661,-3.1661,-3.1661,-3.1661,-3.1661,-3.1661,-3.1661,-3.1661,-3.1661,-3.1661,-3.1661,-3.1661,-3.1661,-3.1517,-3.0987,-3.0819,-3.0482,-2.9484,-2.8559,-2.7881,-2.7615,-2.7383,-2.7231,-2.7231,-2.6985,-2.6809,-2.6644,-2.6313,-2.6063,-2.5906,-2.5895,-2.5906,-2.5822,-2.5294,-2.4632,-2.4158,-2.3292,-2.2594,-2.2046,-2.1883,-2.1559,-2.1031,-2.0565,-2.011,-1.9675,-1.9272,-1.8942,-1.8741,-1.8741,-1.8674,-2.2778,-2.4609,-2.6411,0.0,-2.9108,-3.0675,0.0,0.0,0.0,0.0,0.0,0.0,0.0,0.0,0.0,0.0,0.0,0.0,0.0,0.0,0.0,0.0,0.0,0.0,0.0,0.0,0.0,0.0,0.0,0.0,0.0,-3.1911,-3.1655,-3.1574,-3.1399,0.0,-3.1083,-3.0931,-3.0523,-2.9971,-2.9723,-2.9484,-2.9208,-2.9208,-2.945,-2.9929,-3.0083,-3.0105,-3.0153,-3.0751,-3.0966,-3.1001,-3.13,-3.1407,-3.1407,-3.1407,-3.1407,-3.1407,-3.1484,-3.1484,-3.1524,-3.1312,-3.1216,-3.1168,-3.0867,-3.0987,-3.1216,-3.1216,-3.1432,-3.1661,-3.1661,-3.1661,-3.1661,-3.1661,-3.1661,-3.1601,-3.136,-3.1084,-3.0651,-2.9893,-2.8999,-2.8316,-2.8222,-2.7661,-2.7231,-2.7231,-2.7056,-2.6809,-2.6644,-2.6407,-2.6146,-2.5906,-2.5895,-2.5895,-2.5895,-2.5626,-2.5098,-2.4248,-2.3853,-2.3168,-2.2132,-2.2035,-2.178,-2.1507,-2.0793,-2.0203,-1.9827,-1.9292,-1.9065,-1.8942,-1.8942,-1.8875,0.0,0.0,-2.5573,-2.6877,-2.8246,-2.9516,0.0,0.0,0.0,0.0,0.0,0.0,0.0,0.0,0.0,0.0,0.0,0.0,0.0,0.0,0.0,0.0,0.0,0.0,0.0,0.0,0.0,0.0,0.0,0.0,-3.1953,-3.1637,-3.1398,-3.1318,-3.1145,-3.0984,-3.0754,-3.0673,-3.0207,-2.9387,-2.9169,-2.8895,-2.851,-2.851,-2.8943,-2.9689,-2.9833,-2.9893,-2.9929,-3.0458,-3.0675,-3.0723,-3.1108,-3.1348,-3.1468,-3.1468,-3.1468,-3.1468,-3.1468,-3.1372,-3.1204,-3.0807,-3.0675,-3.0603,-3.0206,-3.0458,-3.0879,-3.0879,-3.1252,-3.1661,-3.1661,-3.1661,-3.1661,-3.1661,-3.1661,-3.1661,-3.1661,-3.1252,-3.0759,-3.0362,-2.9427,-2.8657,-2.8657,-2.7894,-2.7231,-2.7231,-2.7067,-2.6891,-2.6727,-2.6479,-2.6229,-2.5979,-2.5895,-2.5895,-2.5895,-2.5895,-2.5409,-2.436,-2.4205,-2.3616,-2.2294,-2.2176,-2.2101,-2.1883,-2.1084,-2.045,-1.9934,-1.9468,-1.9256,-1.9075,-1.9075,-1.9008,0.0,-2.3005,0.0,-2.6168,0.0,0.0,0.0,0.0,0.0,0.0,0.0,0.0,0.0,0.0,0.0,0.0,0.0,0.0,0.0,0.0,0.0,0.0,0.0,0.0,0.0,0.0,0.0,0.0,0.0,0.0,-3.0788,-3.0788,-3.056,-3.0164,-3.0164,-3.0087,-2.988,-2.9465,-2.9113,-2.884,-2.8626,-2.8534,-2.851,-2.851,-2.8546,-2.8619,-2.9124,-2.934,-2.9376,-2.9917,-3.0122,-3.0134,-3.0158,-3.047,-3.0915,-3.0915,-3.0915,-3.0915,-3.0915,-3.0591,-3.017,-3.0134,-3.0122,-3.0122,-3.0098,-3.0458,-3.0879,-3.0879,-3.1252,-3.1661,-3.1661,-3.1661,-3.1661,-3.1661,-3.1661,-3.1661,-3.1661,-3.1252,-3.0867,-3.0831,-2.9677,-2.8657,-2.8657,-2.7894,-2.7231,-2.7231,-2.7149,-2.7149,-2.6891,-2.6727,-2.6479,-2.624,-2.5979,-2.5895,-2.5895,-2.5895,-2.5502,-2.4541,-2.4295,-2.3772,-2.2746,-2.2478,-2.2327,-2.2111,-2.1618,-2.099,-2.0389,-1.9944,-1.9499,-1.9075,-1.9075,-1.9065,0.0,0.0,0.0,-2.4552,-2.5994,0.0,0.0,0.0,0.0,0.0,0.0,0.0,0.0,0.0,0.0,0.0,0.0,0.0,0.0,0.0,0.0,0.0,0.0,0.0,0.0,0.0,0.0,0.0,0.0,0.0,-3.0911,-3.0773,-3.0533,-3.0292,-3.0152,-3.0011,-2.9792,-2.9443,-2.9197,-2.8961,-2.8803,-2.8657,-2.851,-2.851,-2.851,-2.8522,-2.8703,-2.8799,-2.8835,-2.9364,-2.9581,-2.9617,-2.9953,-3.0206,-3.0374,-3.0374,-3.0374,-3.0374,-3.0374,-3.0242,-3.0025,-2.9689,-2.9581,-2.9581,-2.9733,-3.0179,-3.0676,-3.1211,-3.1711,-3.2125,-3.2125,-3.2025,-3.1849,-3.1749,-3.1661,-3.1661,-3.1661,-3.1517,-3.1384,-3.1384,-3.056,-2.9721,-2.927,-2.8442,-2.7752,-2.7277,-2.7231,-2.7149,-2.6891,-2.6727,-2.6479,-2.624,-2.599,-2.5895,-2.5895,-2.5611,-2.5164,-2.453,-2.4092,-2.3536,-2.2724,-2.2628,-2.2478,-2.2327,-2.2158,-2.1471,-2.042,-1.9975,-1.9588,-1.9075,-1.9075,-1.9075,-2.1005,0.0,0.0,0.0,0.0,0.0,0.0,0.0,0.0,0.0,0.0,0.0,0.0,0.0,0.0,0.0,0.0,0.0,0.0,0.0,0.0,0.0,0.0,0.0,0.0,0.0,0.0,0.0,0.0,0.0,-3.0986,-3.0836,-3.0685,-3.0444,-3.0228,-3.0011,-2.9792,-2.9509,-2.9341,-2.9197,-2.8961,-2.8816,-2.8578,-2.8578,-2.8578,-2.851,-2.851,-2.851,-2.8534,-2.8883,-2.9027,-2.9076,-2.9412,-2.9665,-2.9821,-2.9821,-2.9821,-2.9821,-2.9821,-2.9784,-2.9567,-2.9217,-2.9189,-2.9306,-2.9638,-3.0147,-3.0697,-3.1429,-3.1982,-3.24,-3.24,-3.2213,-3.195,-3.1849,-3.1761,-3.1661,-3.1661,-3.1661,-3.1661,-3.1661,-3.1077,-3.0292,-2.9577,-2.8794,-2.8032,-2.73,-2.7231,-2.7149,-2.6974,-2.6809,-2.6644,-2.6396,-2.6146,-2.5979,-2.5906,-2.5448,-2.4978,-2.4519,-2.4017,-2.3438,-2.2799,-2.2777,-2.2703,-2.2478,-2.2478,-2.1935,-2.0864,-2.0344,-1.9817,-1.9292,-1.9147,-1.9075,0.0,0.0,0.0,0.0,0.0,0.0,0.0,0.0,0.0,0.0,0.0,0.0,0.0,0.0,0.0,0.0,0.0,0.0,0.0,0.0,0.0,0.0,0.0,0.0,0.0,0.0,0.0,0.0,0.0,-3.1198,-3.0986,-3.0986,-3.0836,-3.0444,-3.0228,-3.0011,-2.9792,-2.9521,-2.9419,-2.9419,-2.9197,-2.8961,-2.8791,-2.8791,-2.8724,-2.851,-2.851,-2.851,-2.851,-2.851,-2.851,-2.851,-2.851,-2.8823,-2.928,-2.9268,-2.928,-2.928,-2.928,-2.908,-2.8791,-2.8791,-2.8961,-2.9229,-2.9807,-3.0347,-3.0888,-3.1441,-3.1982,-3.2388,-3.2388,-3.2213,-3.2038,-3.2038,-3.1849,-3.1673,-3.1661,-3.1661,-3.1661,-3.1661,-3.1089,-3.0402,-2.9577,-2.8806,-2.8043,-2.73,-2.7231,-2.7231,-2.7231,-2.6974,-2.6809,-2.6644,-2.6396,-2.6146,-2.5906,-2.5448,-2.4956,-2.4519,-2.3995,-2.3504,-2.3023,-2.3001,-2.2927,-2.2703,-2.2703,-2.2402,-2.1711,-2.1007,-2.0404,-1.9817,-1.9349,-1.9075,-2.0289,0.0,0.0,0.0,0.0,0.0,0.0,0.0,0.0,0.0,0.0,0.0,0.0,0.0,0.0,0.0,0.0,0.0,0.0,0.0,0.0,0.0,0.0,0.0,0.0,0.0,0.0,0.0,0.0,-3.1272,-3.1198,-3.0911,-3.0698,-3.0609,-3.0305,-3.0075,-3.0011,-2.9779,-2.9599,-2.9419,-2.9341,-2.9197,-2.9052,-2.9052,-2.8973,-2.8895,-2.8895,-2.8895,-2.8895,-2.859,-2.851,-2.851,-2.851,-2.8595,-2.8727,-2.8863,-2.8943,-2.8955,-2.9114,-2.9096,-2.9052,-2.9052,-2.9052,-2.9241,-3.0022,-3.058,-3.1125,-3.1826,-3.2471,-3.2822,-3.2636,-3.255,-3.2463,-3.2113,-3.195,-3.1849,-3.1749,-3.1661,-3.1661,-3.1661,-3.1553,-3.0981,-2.9635,-2.9183,-2.8629,-2.7357,-2.7231,-2.7231,-2.7231,-2.6974,-2.6809,-2.6644,-2.6396,-2.6146,-2.5906,-2.5153,-2.4628,-2.4497,-2.3678,-2.3143,-2.3012,-2.3001,-2.3001,-2.2927,-2.2927,-2.2787,-2.2424,-2.1237,-2.0474,-2.0023,-1.9416,-1.9075,-2.0096,-2.0314,0.0,0.0,0.0,0.0,0.0,-2.3879,0.0,0.0,0.0,0.0,0.0,0.0,0.0,0.0,0.0,0.0,0.0,0.0,0.0,0.0,0.0,0.0,0.0,0.0,0.0,0.0,-3.0722,-3.087,-3.0903,-3.0856,-3.0773,-3.0698,-3.0381,-3.0152,-3.0075,-2.9856,-2.9702,-2.9599,-2.9599,-2.9443,-2.9197,-2.9197,-2.9197,-2.9131,-2.9131,-2.9131,-2.9052,-2.8816,-2.8736,-2.8736,-2.8736,-2.8736,-2.8736,-2.8882,-2.8961,-2.8961,-2.9052,-2.9131,-2.9197,-2.9197,-2.9287,-2.9555,-3.0194,-3.0823,-3.1347,-3.2064,-3.2629,-3.3081,-3.2896,-3.281,-3.2624,-3.2376,-3.2113,-3.195,-3.1849,-3.1761,-3.1661,-3.1661,-3.148,-3.0973,-2.9624,-2.9221,-2.8642,-2.7428,-2.7231,-2.7231,-2.7231,-2.7067,-2.6974,-2.6727,-2.6479,-2.6152,-2.5777,-2.4993,-2.4399,-2.4181,-2.3438,-2.3001,-2.3001,-2.3001,-2.3001,-2.3001,-2.3001,-2.2818,-2.2401,-2.1551,-2.0734,-1.9954,-1.9349,-1.9075,-2.0166,-2.0061,-2.0106,0.0,0.0,0.0,-2.2695,-2.3142,0.0,0.0,0.0,0.0,0.0,0.0,0.0,0.0,0.0,0.0,0.0,0.0,0.0,0.0,0.0,0.0,0.0,0.0,0.0,-3.0063,-3.0048,-3.0134,-3.0388,-3.0682,-3.0846,-3.0773,-3.0533,-3.0368,-3.0152,-2.9934,-2.9792,-2.9792,-2.9792,-2.9702,-2.9419,-2.9419,-2.9353,-2.9209,-2.9209,-2.9209,-2.9209,-2.9209,-2.9131,-2.9131,-2.9131,-2.9131,-2.9131,-2.9131,-2.9131,-2.9131,-2.9131,-2.9275,-2.9419,-2.9419,-2.9611,-2.988,-3.0382,-3.0934,-3.1524,-3.2139,-3.2679,-3.3081,-3.3081,-3.2896,-3.2723,-3.2711,-3.2376,-3.2038,-3.2038,-3.1849,-3.1649,-3.1589,-3.1204,-3.0613,-2.9577,-2.907,-2.8398,-2.7382,-2.7231,-2.7231,-2.7231,-2.7231,-2.7149,-2.6891,-2.667,-2.6293,-2.5532,-2.4864,-2.4213,-2.3755,-2.3274,-2.3001,-2.3001,-2.3001,-2.3001,-2.3001,-2.3001,-2.2709,-2.2067,-2.1741,-2.1026,-1.9817,-1.936,-1.9075,0.0,0.0,0.0,0.0,0.0,0.0,-2.103,-2.1798,0.0,0.0,0.0,0.0,0.0,0.0,0.0,0.0,0.0,0.0,0.0,0.0,0.0,0.0,0.0,0.0,0.0,0.0,-2.9659,-2.9645,-2.9751,-3.0007,-3.0375,-3.0302,-3.0516,-3.0898,-3.0773,-3.0533,-3.0368,-3.0152,-2.9934,-2.9792,-2.9792,-2.9792,-2.9702,-2.9702,-2.9702,-2.9624,-2.9624,-2.9624,-2.9624,-2.9624,-2.9468,-2.9131,-2.9131,-2.9131,-2.9131,-2.9275,-2.9341,-2.9341,-2.9611,-2.9702,-2.9702,-2.9702,-2.9792,-2.9817,-2.9917,-3.062,-3.1599,-3.2616,-3.2993,-3.3081,-3.3081,-3.3081,-3.2982,-3.2711,-3.2463,-3.23,-3.2038,-3.1849,-3.1541,-3.1108,-3.0951,-3.0625,-2.9867,-2.9165,-2.8386,-2.7603,-2.7301,-2.7231,-2.7231,-2.7231,-2.7149,-2.6891,-2.6506,-2.5981,-2.551,-2.4613,-2.3985,-2.3733,-2.3274,-2.3001,-2.3001,-2.3001,-2.3001,-2.3001,-2.3001,-2.2883,-2.2563,-2.157,-2.0769,-2.0023,-1.9416,-1.9075,0.0,0.0,0.0,-2.001,0.0,0.0,0.0,-2.102,-2.1576,0.0,0.0,0.0,0.0,0.0,0.0,0.0,0.0,0.0,0.0,0.0,0.0,0.0,0.0,0.0,0.0,0.0,-2.8787,-2.9007,-2.9322,-2.9518,-2.9671,-2.9763,-3.004,-3.0542,-3.0332,-3.0312,-3.0533,-3.0228,-3.0088,-2.9934,-2.9869,-2.9792,-2.9792,-2.9792,-2.9792,-2.9792,-2.9792,-2.9792,-2.9792,-2.9792,-2.9624,-2.9456,-2.9456,-2.9456,-2.9456,-2.9534,-2.9599,-2.9611,-2.9779,-2.9792,-2.9792,-2.9792,-2.9792,-2.9792,-2.9792,-3.0545,-3.1562,-3.2416,-3.2855,-3.3081,-3.3081,-3.3081,-3.3081,-3.2896,-3.2649,-3.2388,-3.2213,-3.1731,-3.1192,-3.0927,-3.0446,-2.9918,-2.9499,-2.8775,-2.8093,-2.7557,-2.729,-2.7231,-2.7231,-2.7231,-2.7046,-2.6713,-2.6348,-2.5825,-2.5116,-2.4547,-2.3928,-2.3534,-2.3282,-2.3075,-2.3001,-2.3001,-2.3001,-2.3001,-2.3001,-2.2927,-2.2852,-2.197,-2.1094,-2.0359,-1.9829,-1.9427,0.0,0.0,0.0,0.0,0.0,-2.004,0.0,0.0,0.0,-2.1133,0.0,0.0,0.0,0.0,0.0,0.0,0.0,0.0,0.0,0.0,0.0,0.0,0.0,0.0,0.0,0.0,-2.7898,-2.837,-2.8662,-2.8839,-2.8877,-2.9191,-2.9521,-2.9954,-2.9913,-3.0038,-3.0517,-3.0254,-3.0152,-3.0075,-2.9856,-2.9792,-2.9792,-2.9792,-2.9792,-2.9792,-2.9792,-2.9792,-2.9792,-2.9792,-2.9792,-2.9792,-2.9792,-2.9792,-2.9792,-2.9792,-2.9792,-2.9792,-2.9792,-2.9792,-2.9792,-2.9792,-2.9792,-2.9817,-2.9917,-3.062,-3.1499,-3.2051,-3.2629,-3.3081,-3.3081,-3.3081,-3.3081,-3.3081,-3.2736,-3.245,-3.2265,-3.1539,-3.0905,-3.0615,-2.9881,-2.921,-2.9128,-2.8373,-2.78,-2.7615,-2.7383,-2.7231,-2.7231,-2.7231,-2.7036,-2.6519,-2.62,-2.5688,-2.4789,-2.4405,-2.3955,-2.3394,-2.3298,-2.3224,-2.3075,-2.3001,-2.3001,-2.3001,-2.3001,-2.3001,-2.3001,-2.2461,-2.1685,-2.0776,-2.0312,-1.9781,0.0,0.0,0.0,0.0,-2.0827,0.0,0.0,0.0,-2.0493,-2.0513,0.0,-2.1286,-2.1206,0.0,0.0,0.0,0.0,0.0,0.0,0.0,0.0,0.0,0.0,0.0,0.0,0.0,0.0,-2.7759,-2.7665,-2.7956,-2.8824,-2.882,-2.8986,-2.9366,-2.9862,-3.0004,-2.9908,-3.0188,-3.0292,-3.0075,-2.9856,-2.9792,-2.9792,-2.9792,-2.9792,-2.9792,-2.9792,-2.9792,-2.9792,-2.9792,-2.9792,-2.9792,-2.9792,-2.9792,-2.9792,-2.9792,-2.9792,-2.9792,-2.9792,-2.9792,-2.9792,-2.9792,-2.9792,-2.988,-3.0369,-3.0934,-3.1499,-3.2051,-3.2629,-3.3081,-3.3081,-3.3081,-3.3081,-3.3081,-3.2896,-3.25,-3.1859,-3.1431,-3.0834,-2.9735,-2.9376,-2.9292,-2.9292,-2.8548,-2.7893,-2.7881,-2.7476,-2.7231,-2.7231,-2.7231,-2.7036,-2.6519,-2.606,-2.5478,-2.4767,-2.4237,-2.3807,-2.3604,-2.3372,-2.3298,-2.3298,-2.3075,-2.3001,-2.3001,-2.3001,-2.3001,-2.3001,-2.2947,-2.231,-2.122,-2.0461,-1.9781,0.0,0.0,0.0,0.0,0.0,0.0,0.0,0.0,-1.9998,0.0,0.0,0.0,0.0,0.0,0.0,0.0,0.0,0.0,0.0,0.0,0.0,0.0,0.0,0.0,0.0,0.0,0.0,0.0,0.0,-2.7719,-2.8023,-2.8252,-2.8516,-2.8973,-2.907,-2.9373,-2.9965,-3.0064,-3.0198,-3.0457,-3.0164,-2.9934,-2.9934,-2.9869,-2.9792,-2.9792,-2.9792,-2.9792,-2.9792,-2.9792,-2.9792,-2.9792,-2.9792,-2.9792,-2.9792,-2.9792,-2.9792,-2.9792,-2.9792,-2.9792,-2.9792,-2.9792,-2.9792,-2.9829,-3.0068,-3.052,-3.1047,-3.1587,-3.2139,-3.2654,-3.2993,-3.3081,-3.2993,-3.2654,-3.2409,-3.2017,-3.1316,-3.0673,-3.0058,-2.9458,-2.9051,-2.8847,-2.8847,-2.8414,-2.803,-2.7881,-2.7626,-2.729,-2.7231,-2.7231,-2.6921,-2.6117,-2.5842,-2.5383,-2.4505,-2.4169,-2.397,-2.3824,-2.3446,-2.3298,-2.3298,-2.3075,-2.3001,-2.3001,-2.3001,-2.3001,-2.3001,-2.3001,-2.2437,-2.1441,-2.0866,-2.017,-2.3758,0.0,0.0,0.0,0.0,0.0,0.0,0.0,0.0,0.0,0.0,0.0,0.0,0.0,-2.0578,0.0,0.0,0.0,0.0,0.0,0.0,0.0,0.0,0.0,0.0,0.0,0.0,0.0,0.0,0.0,-2.7386,-2.7715,-2.8106,-2.8422,-2.8444,-2.8861,-2.964,-2.9736,-3.0025,-3.0452,-3.0228,-3.0152,-3.0152,-3.0011,-2.9934,-2.9934,-2.9934,-2.9869,-2.9869,-2.9869,-2.9869,-2.9869,-2.9934,-2.9934,-2.9934,-2.9869,-2.9792,-2.9792,-2.9792,-2.9792,-2.9792,-2.9792,-2.9792,-2.9792,-2.9792,-3.0181,-3.0721,-3.1248,-3.1788,-3.234,-3.293,-3.2955,-3.2729,-3.2315,-3.1934,-3.1531,-3.0762,-3.0143,-2.9569,-2.9193,-2.8775,-2.851,-2.851,-2.8339,-2.8099,-2.7962,-2.7696,-2.7441,-2.7231,-2.7231,-2.6841,-2.5819,-2.5716,-2.5302,-2.4281,-2.42,-2.4116,-2.3897,-2.3604,-2.3446,-2.3298,-2.315,-2.3075,-2.3001,-2.3001,-2.3001,-2.3001,-2.3001,-2.2586,-2.1789,-2.1274,-2.0498,0.0,0.0,0.0,-2.335,0.0,0.0,0.0,0.0,-2.046,0.0,0.0,0.0,0.0,-1.9346,-1.9528,-2.003,0.0,0.0,0.0,0.0,0.0,0.0,0.0,0.0,0.0,0.0,0.0,0.0,0.0,0.0,-2.7319,-2.7427,-2.7531,-2.7789,-2.8383,-2.8631,-2.8438,-2.932,-2.9818,-2.9844,-3.0175,-3.0368,-3.0368,-3.0368,-3.0368,-3.0368,-3.0152,-3.0075,-3.0075,-3.0075,-3.0075,-3.0075,-3.0292,-3.0368,-3.0292,-2.9934,-2.9792,-2.9792,-2.9792,-2.9792,-2.9792,-2.9792,-2.9792,-2.9792,-2.9792,-3.0181,-3.0721,-3.1248,-3.1788,-3.234,-3.293,-3.2667,-3.224,-3.2215,-3.18,-3.1192,-3.0195,-2.9991,-2.9738,-2.8723,-2.8522,-2.851,-2.851,-2.8339,-2.8099,-2.7962,-2.7696,-2.7441,-2.7231,-2.7231,-2.6841,-2.5819,-2.5716,-2.5302,-2.4281,-2.42,-2.4116,-2.3897,-2.3897,-2.3677,-2.3298,-2.3298,-2.3224,-2.3001,-2.3001,-2.3001,-2.3001,-2.3001,-2.2761,-2.228,-2.1599,-2.0657,0.0,0.0,-2.4214,-2.3932,0.0,0.0,0.0,0.0,0.0,0.0,0.0,0.0,0.0,0.0,-1.9338,-1.9406,-1.9435,-1.9484,0.0,0.0,0.0,0.0,0.0,0.0,0.0,0.0,0.0,0.0,0.0,0.0,0.0,-2.6843,-2.7444,-2.7517,-2.7908,-2.8277,-2.8605,-2.917,-2.9673,-2.9978,-3.0413,-3.0609,-3.0609,-3.0444,-3.0368,-3.0368,-3.0292,-3.0292,-3.0292,-3.0292,-3.0292,-3.0292,-3.0368,-3.0368,-3.0368,-3.0216,-3.0228,-3.0228,-3.0228,-3.0228,-3.0228,-3.0228,-3.0228,-3.0152,-3.0011,-3.039,-3.0867,-3.1317,-3.1788,-3.234,-3.293,-3.2641,-3.2127,-3.175,-3.126,-3.0641,-2.9762,-2.9492,-2.9273,-2.8773,-2.8578,-2.851,-2.851,-2.8431,-2.8351,-2.8111,-2.795,-2.7708,-2.7452,-2.7301,-2.6841,-2.5819,-2.5716,-2.5302,-2.4281,-2.42,-2.42,-2.4116,-2.397,-2.3824,-2.3666,-2.3446,-2.3298,-2.3224,-2.3075,-2.3001,-2.3001,-2.3001,-2.2772,-2.2313,-2.2078,-2.1269,-2.4539,-2.4457,0.0,0.0,-2.3886,0.0,-2.3,0.0,0.0,0.0,0.0,0.0,0.0,0.0,-1.9566,-1.922,-1.9139,-1.9078,0.0,-1.9169,0.0,0.0,0.0,0.0,0.0,0.0,0.0,-2.2816,-2.3809,0.0,0.0,0.0,-2.7045,-2.74,-2.7597,-2.7894,-2.8369,-2.8825,-2.9332,-2.9836,-3.0264,-3.0579,-3.0773,-3.0672,-3.0596,-3.0596,-3.0533,-3.0533,-3.0533,-3.0533,-3.0533,-3.052,-3.0596,-3.0596,-3.0596,-3.0444,-3.0368,-3.0368,-3.0368,-3.0368,-3.0368,-3.0368,-3.0368,-3.0407,-3.0458,-3.0699,-3.1064,-3.165,-3.2021,-3.2303,-3.2667,-3.2353,-3.1788,-3.1235,-3.0708,-3.014,-2.9493,-2.9275,-2.9052,-2.8882,-2.8657,-2.851,-2.851,-2.851,-2.8431,-2.8259,-2.8111,-2.7869,-2.7522,-2.7371,-2.6979,-2.6071,-2.5819,-2.5302,-2.4281,-2.42,-2.42,-2.42,-2.4043,-2.397,-2.3897,-2.3677,-2.3446,-2.3298,-2.315,-2.3075,-2.3001,-2.3001,-2.2848,-2.2553,-2.239,-2.1761]}]]